[[{"header":{"parameterUnit":"m.s-1","parameterCategory":1,"la1":31.0,"la2":29.5877,"lo1":-88.7671,"lo2":-86.6584,"dx":0.0162,"dy":0.0185,"nx":115,"ny":88,"refTime":"2023-01-02T18:00:00:Z","depth":0,"parameterNumber":2,"parameterNumberName":"U-component_of_WINDS"},"data":[0.0,0.0,0.0,0.0,0.0,0.0,0.0,0.0,0.0,0.0,0.0,0.0,0.0,0.0,0.0,0.0,0.0,0.0,0.0,0.0,0.0,0.0,0.0,0.0,0.0,0.0,0.0,0.0,0.0,0.0,0.0,0.0,0.0,0.0,0.0,0.0,0.0,0.0,0.0,0.0,0.0,0.0,0.0,0.0,0.0,0.0,0.0,0.0,0.0,0.0,0.0,0.0,0.0,0.0,0.0,0.0,0.0,0.0,0.0,0.0,0.0,0.0,0.0,0.0,0.0,0.0,0.0,0.0,0.0,0.0,0.0,0.0,0.0,0.0,0.0,0.0,0.0,0.0,0.0,0.0,0.0,0.0,0.0,0.0,0.0,0.0,0.0,0.0,0.0,0.0,0.0,0.0,0.0,0.0,0.0,0.0,0.0,0.0,0.0,0.0,0.0,0.0,0.0,0.0,0.0,0.0,0.0,0.0,0.0,0.0,0.0,0.0,0.0,0.0,0.0,0.0,0.0,0.0,0.0,0.0,0.0,0.0,0.0,0.0,0.0,0.0,0.0,0.0,0.0,0.0,0.0,0.0,0.0,0.0,0.0,0.0,0.0,0.0,0.0,0.0,0.0,0.0,0.0,0.0,0.0,0.0,0.0,0.0,0.0,0.0,0.0,0.0,0.0,0.0,0.0,0.0,0.0,0.0,0.0,0.0,0.0,0.0,0.0,0.0,0.0,0.0,0.0,0.0,0.0,0.0,0.0,0.0,0.0,0.0,0.0,0.0,0.0,0.0,0.0,0.0,0.0,0.0,0.0,0.0,0.0,0.0,0.0,0.0,0.0,0.0,0.0,0.0,0.0,0.0,0.0,0.0,0.0,0.0,0.0,0.0,0.0,0.0,0.0,0.0,0.0,0.0,0.0,0.0,0.0,0.0,0.0,0.0,0.0,0.0,0.0,0.0,0.0,0.0,0.0,0.0,0.0,0.0,0.0,0.0,0.0,0.0,0.0,0.0,0.0,0.0,0.0,0.0,0.0,0.0,0.0,0.0,0.0,0.0,0.0,0.0,0.0,0.0,0.0,0.0,0.0,0.0,0.0,0.0,0.0,0.0,0.0,0.0,0.0,0.0,0.0,0.0,0.0,0.0,0.0,0.0,0.0,0.0,0.0,0.0,0.0,0.0,0.0,0.0,0.0,0.0,0.0,0.0,0.0,0.0,0.0,0.0,0.0,0.0,0.0,0.0,0.0,0.0,0.0,0.0,0.0,0.0,0.0,0.0,0.0,0.0,0.0,0.0,0.0,0.0,0.0,0.0,0.0,0.0,0.0,0.0,0.0,0.0,0.0,0.0,0.0,0.0,0.0,0.0,0.0,0.0,0.0,0.0,0.0,0.0,0.0,0.0,0.0,0.0,0.0,0.0,0.0,0.0,0.0,0.0,0.0,0.0,0.0,0.0,0.0,0.0,0.0,0.0,0.0,0.0,0.0,0.0,0.0,0.0,0.0,0.0,0.0,0.0,0.0,0.0,0.0,0.0,0.0,0.0,0.0,0.0,0.0,0.0,0.0,0.0,0.0,0.0,0.0,0.0,0.0,0.0,0.0,0.0,0.0,0.0,0.0,0.0,0.0,0.0,0.0,0.0,0.0,0.0,0.0,0.0,0.0,0.0,0.0,0.0,0.0,0.0,0.0,0.0,0.0,0.0,0.0,0.0,0.0,0.0,0.0,0.0,0.0,0.0,0.0,0.0,0.0,0.0,0.0,0.0,0.0,0.0,0.0,0.0,0.0,0.0,0.0,0.0,0.0,0.0,0.0,0.0,0.0,0.0,0.0,0.0,0.0,0.0,0.0,0.0,0.0,0.0,0.0,0.0,0.0,0.0,0.0,0.0,0.0,0.0,0.0,0.0,0.0,0.0,0.0,0.0,0.0,0.0,0.0,0.0,0.0,0.0,0.0,0.0,0.0,0.0,0.0,0.0,0.0,0.0,0.0,0.0,0.0,0.0,0.0,0.0,0.0,0.0,0.0,0.0,0.0,0.0,0.0,0.0,0.0,0.0,0.0,0.0,0.0,0.0,0.0,0.0,0.0,0.0,0.0,0.0,0.0,0.0,0.0,0.0,0.0,0.0,0.0,0.0,0.0,0.0,0.0,0.0,0.0,0.0,0.0,0.0,0.0,0.0,0.0,0.0,0.0,0.0,0.0,0.0,0.0,0.0,0.0,0.0,0.0,0.0,0.0,0.0,0.0,0.0,0.0,0.0,0.0,0.0,0.0,0.0,0.0,0.0,0.0,0.0,0.0,0.0,0.0,0.0,0.0,0.0,0.0,0.0,0.0,0.0,0.0,0.0,0.0,0.0,0.0,0.0,0.0,0.0,0.0,0.0,0.0,0.0,0.0,0.0,0.0,0.0,0.0,0.0,0.0,0.0,0.0,0.0,0.0,0.0,0.0,0.0,0.0,0.0,0.0,0.0,0.0,0.0,0.0,0.0,0.0,0.0,0.0,0.0,0.0,0.0,0.0,0.0,0.0,0.0,0.0,0.0,0.0,0.0,0.0,0.0,0.0,0.0,0.0,0.0,0.0,0.0,0.0,0.0,0.0,0.0,0.0,0.0,0.0,0.0,0.0,0.0,0.0,0.0,0.0,0.0,0.0,0.0,0.0,0.0,0.0,0.0,0.0,0.0,0.0,0.0,0.0,0.0,0.0,0.0,0.0,0.0,0.0,0.0,0.0,0.0,0.0,0.0,0.0,0.0,0.0,0.0,0.0,0.0,0.0,0.0,0.0,0.0,0.0,0.0,0.0,0.0,0.0,0.0,0.0,0.0,0.0,0.0,0.0,0.0,0.0,0.0,0.0,0.0,0.0,0.0,0.0,0.0,0.0,0.0,0.0,0.0,0.0,0.0,0.0,0.0,0.0,0.0,0.0,0.0,0.0,0.0,0.0,0.0,0.0,0.0,0.0,0.0,0.0,0.0,0.0,0.0,0.0,0.0,0.0,0.0,0.0,0.0,0.0,0.0,0.0,0.0,0.0,0.0,0.0,0.0,0.0,0.0,0.0,0.0,0.0,0.0,0.0,0.0,0.0,0.0,0.0,0.0,0.0,0.0,0.0,0.0,0.0,0.0,0.0,0.0,0.0,0.0,0.0,0.0,0.0,0.0,0.0,0.0,0.0,0.0,0.0,0.0,0.0,0.0,0.0,0.0,0.0,0.0,0.0,0.0,0.0,0.0,0.0,0.0,0.0,0.0,0.0,0.0,0.0,0.0,0.0,0.0,0.0,0.0,0.0,0.0,0.0,0.0,0.0,0.0,0.0,0.0,0.0,0.0,0.0,0.0,0.0,0.0,0.0,0.0,0.0,0.0,0.0,0.0,0.0,0.0,0.0,0.0,0.0,0.0,0.0,0.0,0.0,0.0,0.0,0.0,0.0,0.0,0.0,0.0,0.0,0.0,0.0,0.0,0.0,0.0,0.0,0.0,0.0,0.0,0.0,0.0,0.0,0.0,0.0,0.0,0.0,0.0,0.0,0.0,0.0,0.0,0.0,0.0,0.0,0.0,0.0,0.0,0.0,0.0,0.0,0.0,0.0,0.0,0.0,0.0,0.0,0.0,0.0,0.0,0.0,0.0,0.0,0.0,0.0,0.0,0.0,0.0,0.0,0.0,0.0,0.0,0.0,0.0,0.0,0.0,0.0,0.0,0.0,0.0,0.0,0.0,0.0,0.0,0.0,0.0,0.0,0.0,0.0,0.0,0.0,0.0,0.0,0.0,0.0,0.0,0.0,0.0,0.0,0.0,0.0,0.0,0.0,0.0,0.0,0.0,0.0,0.0,0.0,0.0,0.0,0.0,0.0,0.0,0.0,0.0,0.0,0.0,0.0,0.0,0.0,0.0,0.0,0.0,0.0,0.0,0.0,0.0,0.0,0.0,0.0,0.0,0.0,0.0,0.0,0.0,0.0,0.0,0.0,0.0,0.0,0.0,0.0,0.0,0.0,0.0,0.0,0.0,0.0,0.0,0.0,0.0,0.0,0.0,0.0,0.0,0.0,0.0,0.0,0.0,0.0,0.0,0.0,0.0,0.0,0.0,0.0,0.0,0.0,0.0,0.0,0.0,0.0,0.0,0.0,0.0,0.0,0.0,0.0,0.0,0.0,0.0,0.0,0.0,0.0,0.0,0.0,0.0,0.0,0.0,0.0,0.0,0.0,0.0,0.0,0.0,0.0,0.0,0.0,0.0,0.0,0.0,0.0,0.0,1.1509,0.0,0.0,0.0,1.2287,0.0,0.0,0.0,0.0,0.0,0.0,0.0,0.0,0.0,0.0,0.0,0.0,0.0,0.0,0.0,0.0,0.0,0.0,0.0,0.0,0.0,0.0,0.0,0.0,0.0,0.0,0.0,0.0,0.0,0.0,0.0,0.0,0.0,0.0,0.0,0.0,0.0,0.0,0.0,0.0,0.0,0.0,0.0,0.0,0.0,0.0,0.0,0.0,0.0,0.0,0.0,0.0,0.0,0.0,0.0,0.0,0.0,0.0,0.0,0.0,0.0,0.0,0.0,0.0,0.0,0.0,0.0,0.0,0.0,0.0,0.0,0.0,0.0,0.0,0.0,0.0,0.0,0.0,0.0,0.0,0.0,0.0,0.0,0.0,0.0,0.0,0.0,0.0,0.0,0.0,0.0,0.0,0.0,0.0,0.0,0.0,0.0,0.0,0.0,0.0,0.0,0.0,0.0,0.0,0.0,0.0,0.0,0.0,0.0,0.0,1.1608,1.0717,1.2947,1.3461,1.1828,0.0,0.0,0.0,0.0,0.0,0.0,0.0,0.0,0.0,0.0,0.0,0.0,0.0,0.0,0.0,0.0,0.0,0.0,0.0,0.0,0.0,0.0,0.0,0.0,0.0,0.0,0.0,0.0,0.0,0.0,0.0,0.0,0.0,0.0,0.0,0.0,0.0,0.0,0.0,0.0,0.0,0.0,0.0,0.0,0.0,0.0,0.0,0.0,0.0,0.0,0.0,0.0,0.0,0.0,0.0,0.0,0.0,0.0,0.0,0.0,0.0,0.0,0.0,0.0,0.0,0.0,0.0,0.0,0.0,0.0,0.0,0.0,0.0,0.0,0.0,0.0,0.0,0.0,0.0,0.0,0.0,0.0,0.0,0.0,0.0,0.0,0.0,0.0,0.0,0.0,0.0,0.0,0.0,0.0,0.0,0.0,0.0,0.0,0.0,0.0,0.0,0.0,0.0,0.0,0.0,0.0,0.0,0.0,0.0,0.0,0.0,0.0,1.3369,1.3699,1.1975,0.0,0.0,0.0,0.0,0.0,0.0,0.0,0.0,0.0,0.0,0.0,0.0,0.0,0.0,0.0,0.0,0.0,0.0,0.0,0.0,0.0,0.0,0.0,0.0,0.0,0.0,0.0,0.0,0.0,0.0,0.0,0.0,0.0,0.0,0.0,0.0,0.0,0.0,0.0,0.0,0.0,0.0,0.0,0.0,0.0,0.0,0.0,0.0,0.0,0.0,0.0,0.0,0.0,0.0,0.0,0.0,0.0,0.0,0.0,0.0,0.0,0.0,0.0,0.0,0.0,0.0,0.0,0.0,0.0,0.0,0.0,0.0,0.0,0.0,0.0,0.0,0.0,0.0,0.0,0.0,0.0,0.0,0.0,0.0,0.0,0.0,0.0,0.0,0.0,0.0,0.0,0.0,0.0,0.0,0.0,0.0,0.0,0.0,0.0,0.0,0.0,0.0,0.0,0.0,0.0,0.0,0.0,0.0,0.0,0.0,1.1509,1.254,1.3791,0.0,1.3149,0.0,0.0,0.0,0.0,0.0,0.0,0.0,0.0,0.0,0.0,0.0,0.0,0.0,0.0,0.0,0.0,0.0,0.0,0.0,0.0,0.0,0.0,0.0,0.0,0.0,0.0,0.0,0.0,0.0,0.0,0.0,0.0,0.0,0.0,0.0,0.0,0.0,0.0,0.0,0.0,0.0,0.0,0.0,0.0,0.0,0.0,0.0,0.0,0.0,0.0,0.0,0.0,0.0,0.0,0.0,0.0,0.0,0.0,0.0,0.0,0.0,0.0,0.0,0.0,0.0,0.0,0.0,0.0,0.0,0.0,0.0,0.0,0.0,0.0,0.0,0.0,0.0,0.0,0.0,0.0,0.0,0.0,0.0,0.0,0.0,0.0,0.0,0.0,0.0,0.0,0.0,0.0,0.0,0.0,0.0,0.0,0.0,0.0,0.0,0.0,0.0,0.0,0.0,0.0,0.0,0.0,0.0,0.0,0.0,0.0,1.1951,1.3351,1.3718,1.3571,0.0,0.0,0.0,0.0,0.0,0.0,0.0,0.0,0.0,0.0,0.0,0.0,0.0,0.0,0.0,0.0,0.0,0.0,0.0,0.0,0.0,0.0,0.0,0.0,0.0,0.0,0.0,0.0,0.0,0.0,0.0,0.0,0.0,0.0,0.0,0.0,0.0,0.0,0.0,0.0,0.0,0.0,0.0,0.0,0.0,0.0,0.0,0.0,0.0,0.0,0.0,0.0,0.0,0.0,0.0,0.0,0.0,0.0,0.0,0.0,0.0,0.0,0.0,0.0,0.0,0.0,0.0,0.0,0.0,0.0,0.0,0.0,0.0,0.0,0.0,0.0,0.0,0.0,0.0,0.0,0.0,0.0,0.0,0.0,0.0,0.0,0.0,0.0,0.0,0.0,0.0,0.0,0.0,0.0,0.0,0.0,0.0,0.0,0.0,0.0,0.0,0.0,0.0,0.0,0.0,0.0,0.0,0.0,0.0,0.0,1.1981,1.2853,1.4414,1.3959,1.3477,1.3109,0.0,0.0,0.0,0.0,0.0,0.0,0.0,0.0,0.0,0.0,0.0,0.0,0.0,0.0,0.0,0.0,0.0,0.0,0.0,0.0,0.0,0.0,0.0,0.0,0.0,0.0,0.0,0.0,0.0,0.0,0.0,0.0,0.0,0.0,0.0,0.0,0.0,0.0,0.0,0.0,0.0,0.0,0.0,0.0,0.0,0.0,0.0,0.0,0.0,0.0,0.0,0.0,0.0,0.0,0.0,0.0,0.0,0.0,0.0,0.0,0.0,0.0,0.0,0.0,0.0,0.0,0.0,0.0,0.0,0.0,0.0,0.0,0.0,0.0,0.0,0.0,0.0,0.0,0.0,0.0,0.0,0.0,0.0,0.0,0.0,0.0,0.0,0.0,0.0,0.0,0.0,0.0,0.0,0.0,0.0,0.0,0.0,0.0,0.0,0.0,0.0,0.0,0.0,0.0,0.0,0.0,0.0,0.0,1.3645,1.3442,1.4176,1.6065,1.487,1.4091,0.0,0.0,0.0,0.0,0.0,0.0,0.0,0.0,0.0,0.0,0.0,0.0,0.0,0.0,0.0,0.0,0.0,0.0,0.0,0.0,0.0,0.0,0.0,0.0,0.0,0.0,0.0,0.0,0.0,0.0,0.0,0.0,0.0,0.0,0.0,0.0,0.0,0.0,0.0,0.0,0.0,0.0,0.0,0.0,0.0,0.0,0.0,0.0,0.0,0.0,0.0,0.0,0.0,0.0,0.0,0.0,0.0,0.0,0.0,0.0,0.0,0.0,0.0,0.0,0.0,0.0,0.0,0.0,0.0,0.0,0.0,0.0,0.0,0.0,0.0,0.0,0.0,0.0,0.0,0.0,0.0,0.0,0.0,0.0,0.0,0.0,0.0,0.0,0.0,0.0,0.0,0.0,0.0,0.0,0.0,0.0,0.0,0.0,0.0,0.0,0.0,0.0,0.0,0.0,0.0,0.0,0.0,0.0,0.0,1.3201,1.4666,1.5675,1.6187,1.5726,1.5181,0.0,0.0,0.0,0.0,0.0,0.0,0.0,0.0,0.0,0.0,0.0,0.0,0.0,0.0,0.0,0.0,0.0,0.0,0.0,0.0,0.0,0.0,0.0,0.0,0.0,0.0,0.0,0.0,0.0,0.0,0.0,0.0,0.0,0.0,0.0,0.0,0.0,0.0,0.0,0.0,0.0,0.0,0.0,0.0,0.0,0.0,0.0,0.0,0.0,0.0,0.0,0.0,0.0,0.0,0.0,0.0,0.0,0.0,0.0,0.0,0.0,0.0,0.0,0.0,0.0,0.0,0.0,0.0,0.0,0.0,0.0,0.0,0.0,0.0,0.0,0.0,0.0,0.0,0.0,0.0,0.0,0.0,0.0,0.0,0.0,0.0,0.0,0.0,0.0,0.0,0.0,0.0,0.0,0.0,0.0,0.0,0.0,0.0,0.0,0.0,0.0,0.0,0.0,0.0,0.0,0.0,0.0,0.0,0.0,1.4016,1.6039,1.7036,1.6805,1.6365,1.5764,0.0,0.0,0.0,0.0,0.0,0.0,0.0,0.0,0.0,0.0,0.0,0.0,0.0,0.0,0.0,0.0,0.0,0.0,0.0,0.0,0.0,0.0,0.0,0.0,0.0,0.0,0.0,0.0,0.0,0.0,0.0,0.0,0.0,0.0,0.0,0.0,0.0,0.0,0.0,0.0,0.0,0.0,0.0,0.0,0.0,0.0,0.0,0.0,0.0,0.0,0.0,0.0,0.0,0.0,0.0,0.0,0.0,0.0,0.0,0.0,0.0,0.0,0.0,0.0,0.0,0.0,0.0,0.0,0.0,0.0,0.0,0.0,0.0,0.0,0.0,0.0,0.0,0.0,0.0,0.0,0.0,0.0,0.0,0.0,0.0,0.0,0.0,0.0,0.0,0.0,0.0,0.0,0.0,0.0,0.0,0.0,0.0,0.0,0.0,0.0,0.0,0.0,0.0,0.0,0.0,0.0,0.0,0.0,1.3864,1.6336,1.7475,1.8009,1.8064,1.6659,1.5724,0.0,0.0,0.0,0.0,0.0,0.0,0.0,0.0,0.0,0.0,0.0,0.0,0.0,0.0,0.0,0.0,0.0,0.0,0.0,0.0,0.0,0.0,0.0,0.0,0.0,0.0,0.0,0.0,0.0,0.0,0.0,0.0,0.0,0.0,0.0,0.0,0.0,0.0,0.0,0.0,0.0,0.0,0.0,0.0,0.0,0.0,0.0,0.0,0.0,0.0,0.0,0.0,0.0,0.0,0.0,0.0,0.0,0.0,0.0,0.0,0.0,0.0,0.0,0.0,0.0,0.0,0.0,0.0,0.0,0.0,0.0,0.0,0.0,0.0,0.0,0.0,0.0,0.0,0.0,0.0,0.0,0.0,0.0,0.0,0.0,0.0,0.0,0.0,0.0,0.0,0.0,0.0,0.0,0.0,0.0,0.0,0.0,0.0,0.0,0.0,0.0,0.0,0.0,0.0,0.0,0.0,0.0,0.0,0.0,1.6317,1.7492,1.8131,1.8093,1.7214,1.6636,0.0,0.0,0.0,0.0,0.0,0.0,0.0,0.0,0.0,0.0,0.0,0.0,0.0,0.0,0.0,0.0,0.0,0.0,0.0,0.0,0.0,0.0,0.0,0.0,0.0,0.0,0.0,0.0,0.0,0.0,0.0,0.0,0.0,0.0,0.0,0.0,0.0,0.0,0.0,0.0,0.0,0.0,0.0,0.0,0.0,0.0,0.0,0.0,0.0,0.0,0.0,0.0,0.0,0.0,0.0,0.0,0.0,0.0,0.0,0.0,0.0,0.0,0.0,0.0,0.0,0.0,0.0,0.0,0.0,0.0,0.0,0.0,0.0,0.0,0.0,0.0,0.0,0.0,0.0,0.0,0.0,0.0,0.0,0.0,0.0,0.0,0.0,0.0,0.0,0.0,0.0,0.0,0.0,0.0,0.0,0.0,0.0,0.0,0.0,0.0,0.0,0.0,0.0,0.0,0.0,0.0,0.0,0.0,0.0,1.7876,1.8466,1.8915,1.919,1.8081,1.7533,1.7652,0.0,0.0,0.0,0.0,0.0,0.0,0.0,0.0,0.0,0.0,0.0,0.0,0.0,0.0,0.0,0.0,0.0,0.0,0.0,0.0,0.0,0.0,0.0,0.0,0.0,0.0,0.0,0.0,0.0,0.0,0.0,0.0,0.0,0.0,0.0,0.0,0.0,0.0,0.0,0.0,0.0,0.0,0.0,0.0,0.0,0.0,0.0,0.0,0.0,0.0,0.0,0.0,0.0,0.0,0.0,0.0,0.0,0.0,0.0,0.0,0.0,0.0,0.0,0.0,0.0,0.0,0.0,0.0,0.0,0.0,0.0,0.0,0.0,0.0,0.0,0.0,0.0,0.0,0.0,0.0,0.0,0.0,0.0,0.0,0.0,0.0,0.0,0.0,0.0,0.0,0.0,0.0,0.0,0.0,0.0,0.0,0.0,0.0,0.0,0.0,0.0,0.0,0.0,0.0,0.0,0.0,0.0,0.0,2.0665,2.0213,2.0275,2.0871,1.9093,1.8468,0.0,0.0,0.0,0.0,0.0,0.0,0.0,0.0,0.0,0.0,0.0,0.0,0.0,0.0,0.0,0.0,0.0,0.0,0.0,0.0,0.0,0.0,0.0,0.0,0.0,0.0,0.0,0.0,0.0,0.0,0.0,0.0,0.0,0.0,0.0,0.0,0.0,0.0,0.0,0.0,0.0,0.0,0.0,0.0,0.0,0.0,0.0,0.0,0.0,0.0,0.0,0.0,0.0,0.0,0.0,0.0,0.0,0.0,0.0,0.0,0.0,0.0,0.0,0.0,0.0,0.0,0.0,0.0,0.0,0.0,0.0,0.0,0.0,0.0,0.0,0.0,0.0,0.0,0.0,0.0,0.0,0.0,0.0,0.0,0.0,0.0,0.0,0.0,0.0,0.0,0.0,0.0,0.0,0.0,0.0,0.0,0.0,0.0,0.0,0.0,0.0,0.0,0.0,0.0,0.0,0.0,0.0,0.0,0.0,1.9927,2.0507,2.0539,1.9811,1.9251,1.8419,0.0,0.0,0.0,0.0,0.0,0.0,0.0,0.0,0.0,0.0,0.0,0.0,0.0,0.0,0.0,0.0,0.0,0.0,0.0,0.0,0.0,0.0,0.0,0.0,0.0,0.0,0.0,0.0,0.0,0.0,0.0,0.0,0.0,0.0,0.0,0.0,0.0,0.0,0.0,0.0,0.0,0.0,0.0,0.0,0.0,0.0,0.0,0.0,0.0,0.0,0.0,0.0,0.0,0.0,0.0,0.0,0.0,0.0,0.0,0.0,0.0,0.0,0.0,0.0,0.0,0.0,0.0,0.0,0.0,0.0,0.0,0.0,0.0,0.0,0.0,0.0,0.0,0.0,0.0,0.0,0.0,0.0,0.0,0.0,0.0,0.0,0.0,0.0,0.0,0.0,0.0,0.0,0.0,0.0,0.0,0.0,0.0,0.0,0.0,0.0,0.0,0.0,0.0,0.0,0.0,0.0,0.0,0.0,2.0009,2.1753,2.1935,2.1657,2.0916,2.0195,1.9384,0.0,0.0,0.0,0.0,0.0,0.0,0.0,0.0,0.0,0.0,0.0,0.0,0.0,0.0,0.0,0.0,0.0,0.0,0.0,0.0,0.0,0.0,0.0,0.0,0.0,0.0,0.0,0.0,0.0,0.0,0.0,0.0,0.0,0.0,0.0,0.0,0.0,0.0,0.0,0.0,0.0,0.0,0.0,0.0,0.0,0.0,0.0,0.0,0.0,0.0,0.0,0.0,0.0,0.0,0.0,0.0,0.0,0.0,0.0,0.0,0.0,0.0,0.0,0.0,0.0,0.0,0.0,0.0,0.0,0.0,0.0,0.0,0.0,0.0,0.0,0.0,0.0,0.0,0.0,0.0,0.0,0.0,0.0,0.0,0.0,0.0,0.0,0.0,0.0,0.0,0.0,0.0,0.0,0.0,0.0,0.0,0.0,0.0,0.0,0.0,0.0,0.0,0.0,0.0,0.0,0.0,0.0,0.0,2.0323,2.4771,2.3727,2.3185,2.3123,2.1595,2.0803,0.0,0.0,0.0,0.0,0.0,0.0,0.0,0.0,0.0,0.0,0.0,0.0,0.0,0.0,0.0,0.0,0.0,0.0,0.0,0.0,0.0,0.0,0.0,0.0,0.0,0.0,0.0,0.0,0.0,0.0,0.0,0.0,0.0,0.0,0.0,0.0,0.0,0.0,0.0,0.0,0.0,0.0,0.0,0.0,0.0,0.0,0.0,0.0,0.0,0.0,0.0,0.0,0.0,0.0,0.0,0.0,0.0,0.0,0.0,0.0,0.0,0.0,0.0,0.0,0.0,0.0,0.0,0.0,0.0,0.0,0.0,0.0,0.0,0.0,0.0,0.0,0.0,0.0,0.0,0.0,0.0,0.0,0.0,0.0,0.0,0.0,0.0,0.0,0.0,0.0,0.0,0.0,0.0,0.0,0.0,0.0,0.0,0.0,0.0,0.0,0.0,0.0,0.0,0.0,0.0,0.0,0.0,0.0,2.3392,2.4615,2.3924,2.3664,2.3735,2.2926,2.1639,0.0,0.0,0.0,0.0,0.0,0.0,0.0,0.0,0.0,0.0,0.0,0.0,0.0,0.0,0.0,0.0,0.0,0.0,0.0,0.0,0.0,0.0,0.0,0.0,0.0,0.0,0.0,0.0,0.0,0.0,0.0,0.0,0.0,0.0,0.0,0.0,0.0,0.0,0.0,0.0,0.0,0.0,0.0,0.0,0.0,0.0,0.0,0.0,1.5404,0.0,0.0,0.0,0.0,0.0,0.0,0.0,0.0,0.0,0.0,0.0,0.0,0.0,0.0,0.0,0.0,0.0,0.0,0.0,0.0,0.0,0.0,0.0,0.0,0.0,0.0,0.0,0.0,0.0,0.0,0.0,0.0,0.0,0.0,0.0,0.0,0.0,0.0,0.0,0.0,0.0,0.0,0.0,0.0,0.0,0.0,0.0,0.0,0.0,0.0,0.0,0.0,0.0,0.0,0.0,0.0,0.0,0.0,0.0,2.4269,2.5426,2.517,2.5014,2.5135,2.4348,2.2811,0.0,0.0,0.0,0.0,0.0,0.0,0.0,0.0,0.0,0.0,0.0,0.0,0.0,0.0,0.0,0.0,0.0,0.0,0.0,0.0,0.0,0.0,0.0,0.0,0.0,0.0,0.0,0.0,0.0,0.0,0.0,0.0,0.0,0.0,0.0,0.0,0.0,0.0,0.0,0.0,0.0,0.0,0.0,0.0,0.0,0.0,0.0,0.0,0.0,0.0,0.0,0.0,0.0,0.0,0.0,0.0,0.0,0.0,0.0,0.0,0.0,0.0,0.0,0.0,0.0,0.0,0.0,0.0,0.0,0.0,0.0,0.0,0.0,0.0,0.0,0.0,0.0,0.0,0.0,0.0,0.0,0.0,0.0,0.0,0.0,0.0,0.0,0.0,0.0,0.0,0.0,0.0,0.0,0.0,0.0,0.0,0.0,0.0,0.0,0.0,0.0,0.0,0.0,0.0,0.0,0.0,0.0,2.3511,2.4601,2.6611,2.6611,2.6588,2.6565,2.5509,2.3931,2.1853,0.0,0.0,0.0,0.0,0.0,0.0,0.0,0.0,0.0,0.0,0.0,0.0,0.0,0.0,0.0,0.0,0.0,0.0,0.0,0.0,0.0,0.0,0.0,0.0,0.0,0.0,0.0,0.0,0.0,0.0,0.0,0.0,0.0,0.0,0.0,0.0,0.0,0.0,1.3719,1.4458,0.0,0.0,0.0,0.0,0.0,0.0,0.0,0.0,1.8228,0.0,0.0,0.0,0.0,0.0,0.0,0.0,0.0,0.0,0.0,0.0,0.0,0.0,0.0,0.0,0.0,0.0,0.0,0.0,0.0,0.0,0.0,0.0,0.0,0.0,0.0,0.0,0.0,0.0,0.0,0.0,0.0,0.0,0.0,0.0,0.0,0.0,0.0,0.0,0.0,0.0,0.0,0.0,0.0,0.0,0.0,0.0,0.0,0.0,0.0,0.0,0.0,0.0,0.0,0.0,0.0,2.5188,2.5721,2.6531,2.769,2.7323,2.7093,2.707,2.567,2.4333,2.3094,0.0,0.0,0.0,0.0,0.0,0.0,0.0,0.0,0.0,0.0,0.0,0.0,0.0,0.0,0.0,0.0,0.0,0.0,0.0,0.0,0.0,0.0,0.0,0.0,0.0,0.0,0.0,0.0,0.0,0.0,0.0,0.0,0.0,0.0,0.0,0.0,0.0,0.0,0.0,1.6484,1.7109,0.0,0.0,0.0,0.0,0.0,0.0,0.0,0.0,1.9364,0.0,0.0,0.0,0.0,0.0,0.0,0.0,0.0,0.0,0.0,0.0,0.0,0.0,0.0,0.0,0.0,0.0,0.0,0.0,0.0,0.0,0.0,0.0,0.0,0.0,0.0,0.0,0.0,0.0,0.0,0.0,0.0,0.0,0.0,0.0,0.0,0.0,0.0,0.0,0.0,0.0,0.0,0.0,0.0,0.0,0.0,0.0,0.0,0.0,0.0,0.0,0.0,0.0,0.0,0.0,2.5015,2.6211,2.7346,2.8287,2.7874,2.7621,2.7598,2.6129,2.4694,0.0,0.0,0.0,0.0,0.0,0.0,0.0,0.0,0.0,0.0,0.0,0.0,0.0,0.0,0.0,0.0,0.0,0.0,0.0,0.0,0.0,0.0,0.0,0.0,0.0,0.0,0.0,0.0,0.0,0.0,0.0,0.0,0.0,0.0,0.0,0.0,0.0,0.0,0.0,0.0,1.7784,1.8586,2.0377,0.0,0.0,0.0,0.0,0.0,0.0,2.0969,2.0603,0.0,0.0,0.0,0.0,0.0,0.0,0.0,0.0,0.0,0.0,0.0,0.0,0.0,0.0,0.0,0.0,0.0,0.0,0.0,0.0,0.0,0.0,0.0,0.0,0.0,0.0,0.0,0.0,0.0,0.0,0.0,0.0,0.0,0.0,0.0,0.0,0.0,0.0,0.0,0.0,0.0,0.0,0.0,0.0,0.0,0.0,0.0,0.0,0.0,0.0,0.0,0.0,0.0,0.0,0.0,2.4515,2.6517,2.7897,2.8632,2.8333,2.808,2.7966,2.6703,2.5179,0.0,0.0,0.0,0.0,0.0,0.0,0.0,0.0,0.0,0.0,0.0,0.0,0.0,0.0,0.0,0.0,0.0,0.0,0.0,0.0,0.0,0.0,0.0,0.0,0.0,0.0,0.0,0.0,0.0,0.0,0.0,0.0,0.0,0.0,0.0,0.0,0.0,0.0,0.0,0.0,0.0,1.9981,2.1069,2.2364,0.0,0.0,0.0,0.0,2.245,2.2293,0.0,0.0,0.0,0.0,0.0,0.0,0.0,0.0,0.0,0.0,0.0,0.0,0.0,0.0,0.0,0.0,0.0,0.0,0.0,0.0,0.0,0.0,0.0,0.0,0.0,0.0,0.0,0.0,0.0,0.0,0.0,0.0,0.0,0.0,0.0,0.0,0.0,0.0,0.0,0.0,0.0,0.0,0.0,0.0,0.0,0.0,0.0,0.0,0.0,0.0,0.0,0.0,0.0,0.0,0.0,0.0,2.4853,2.7241,2.8586,2.8677,2.8632,2.8402,2.7989,2.7392,2.6279,0.0,0.0,0.0,0.0,0.0,0.0,0.0,0.0,0.0,0.0,0.0,0.0,0.0,0.0,0.0,0.0,0.0,0.0,0.0,0.0,0.0,0.0,0.0,0.0,0.0,0.0,0.0,0.0,0.0,0.0,0.0,0.0,0.0,0.0,0.0,0.0,0.0,0.0,0.0,0.0,0.0,2.139,2.2401,2.4062,2.4945,0.0,0.0,2.649,2.5383,2.5318,0.0,0.0,0.0,0.0,0.0,0.0,0.0,0.0,0.0,0.0,0.0,0.0,0.0,0.0,0.0,0.0,0.0,0.0,0.0,0.0,0.0,0.0,0.0,0.0,0.0,0.0,0.0,0.0,0.0,0.0,0.0,0.0,0.0,0.0,0.0,0.0,0.0,0.0,0.0,0.0,0.0,0.0,0.0,0.0,0.0,0.0,0.0,0.0,0.0,0.0,0.0,0.0,0.0,0.0,0.0,2.4154,2.5394,2.7874,2.9274,2.9527,2.9297,2.9045,2.8838,2.8333,2.7346,0.0,0.0,0.0,0.0,0.0,0.0,0.0,0.0,0.0,0.0,0.0,0.0,0.0,0.0,0.0,0.0,0.0,0.0,0.0,0.0,0.0,0.0,0.0,0.0,0.0,0.0,0.0,0.0,0.0,0.0,0.0,0.0,0.0,0.0,0.0,0.0,0.0,0.0,0.0,0.0,0.0,0.0,2.3896,2.5738,0.0,0.0,0.0,2.7554,2.5756,0.0,0.0,0.0,0.0,0.0,0.0,0.0,0.0,0.0,0.0,0.0,0.0,0.0,0.0,0.0,0.0,0.0,0.0,0.0,0.0,0.0,0.0,0.0,0.0,0.0,0.0,0.0,0.0,0.0,0.0,0.0,0.0,0.0,0.0,0.0,0.0,0.0,0.0,0.0,0.0,0.0,0.0,0.0,0.0,0.0,0.0,0.0,0.0,0.0,0.0,0.0,0.0,0.0,0.0,0.0,0.0,0.0,2.5922,2.8517,3.0055,3.0376,2.9917,2.9619,2.9504,2.8976,0.0,0.0,0.0,0.0,0.0,0.0,0.0,0.0,0.0,0.0,0.0,0.0,0.0,0.0,0.0,0.0,0.0,0.0,0.0,0.0,0.0,0.0,0.0,0.0,0.0,0.0,0.0,1.1159,0.0,0.0,0.0,0.0,0.0,0.0,0.0,0.0,0.0,0.0,0.0,0.0,0.0,0.0,2.3372,2.54,2.7409,2.857,0.0,0.0,2.8595,2.6753,2.7894,2.8217,0.0,0.0,0.0,0.0,0.0,0.0,0.0,0.0,0.0,0.0,0.0,0.0,0.0,0.0,0.0,0.0,0.0,0.0,0.0,0.0,0.0,0.0,0.0,0.0,0.0,0.0,0.0,0.0,0.0,0.0,0.0,0.0,0.0,0.0,0.0,0.0,0.0,0.0,0.0,0.0,0.0,0.0,0.0,0.0,0.0,0.0,0.0,0.0,0.0,0.0,0.0,0.0,0.0,0.0,2.5876,2.6496,2.9389,3.0905,3.095,3.0445,2.9963,2.9504,2.8976,2.8448,0.0,0.0,0.0,0.0,0.0,0.0,0.0,0.0,0.0,0.0,0.0,0.0,0.0,0.0,0.0,0.0,0.0,0.0,0.0,0.0,0.0,0.0,0.0,0.0,0.0,0.0,0.0,0.0,0.0,0.0,0.0,0.0,0.0,0.0,0.0,0.0,0.0,0.0,0.0,0.0,0.0,2.4913,2.6631,2.908,3.0481,0.0,3.0361,3.0505,2.9846,2.9858,2.969,2.875,0.0,0.0,0.0,0.0,0.0,0.0,0.0,0.0,0.0,0.0,0.0,0.0,0.0,0.0,0.0,0.0,0.0,0.0,0.0,0.0,0.0,0.0,0.0,0.0,0.0,0.0,0.0,0.0,0.0,0.0,0.0,0.0,0.0,0.0,0.0,0.0,0.0,0.0,0.0,0.0,0.0,0.0,0.0,0.0,0.0,0.0,0.0,0.0,0.0,0.0,0.0,0.0,0.0,2.6427,2.6955,2.9619,3.0859,3.0537,3.0652,3.0468,2.9963,2.9734,2.9477,0.0,0.0,0.0,0.0,0.0,0.0,0.0,0.0,0.0,0.0,0.0,0.0,0.0,0.0,0.0,0.0,0.0,0.0,0.0,0.0,0.0,0.0,0.0,0.0,0.0,0.0,0.0,0.0,1.7481,1.8101,1.7356,0.0,0.0,0.0,0.0,0.0,0.0,0.0,0.0,0.0,0.0,2.6699,2.8356,2.9934,0.0,0.0,3.1023,3.1168,3.0663,3.1144,3.1584,3.1627,3.1324,0.0,0.0,0.0,0.0,0.0,0.0,0.0,0.0,0.0,0.0,0.0,0.0,0.0,0.0,0.0,0.0,0.0,0.0,0.0,0.0,0.0,0.0,0.0,0.0,0.0,0.0,0.0,0.0,0.0,0.0,0.0,0.0,0.0,0.0,0.0,0.0,0.0,0.0,0.0,0.0,0.0,0.0,0.0,0.0,0.0,0.0,0.0,0.0,0.0,0.0,0.0,0.0,2.73,2.7667,2.9871,3.0905,3.0698,3.0905,3.0767,3.0262,3.0376,3.0306,0.0,0.0,0.0,0.0,0.0,0.0,0.0,0.0,0.0,0.0,0.0,0.0,0.0,0.0,0.0,0.0,0.0,0.0,0.0,0.0,0.0,0.0,0.0,0.0,0.0,0.0,0.0,0.0,1.9363,2.0093,1.9504,0.0,0.0,0.0,0.0,0.0,0.0,0.0,0.0,0.0,0.0,2.8356,2.9899,3.089,3.1408,3.1577,3.1913,3.213,3.2058,3.2442,3.2971,3.3645,0.0,0.0,0.0,0.0,0.0,0.0,0.0,0.0,0.0,0.0,0.0,0.0,0.0,0.0,0.0,0.0,0.0,0.0,0.0,0.0,0.0,0.0,0.0,0.0,0.0,0.0,0.0,1.989,0.0,0.0,1.9142,0.0,0.0,0.0,0.0,0.0,0.0,0.0,0.0,0.0,0.0,0.0,0.0,0.0,0.0,0.0,0.0,0.0,0.0,0.0,0.0,0.0,0.0,2.8654,2.87,3.0239,3.1249,3.1685,3.1272,3.0767,3.0262,3.0721,3.0744,3.0216,0.0,0.0,0.0,0.0,0.0,0.0,0.0,0.0,0.0,0.0,0.0,0.0,0.0,0.0,0.0,0.0,0.0,0.0,0.0,0.0,0.0,0.0,0.0,0.0,0.0,0.0,1.7327,1.8882,2.0308,0.0,0.0,0.0,0.0,0.0,0.0,0.0,0.0,0.0,2.8179,2.8826,2.9542,3.1392,3.2106,3.2611,3.3116,3.3236,3.3573,3.4487,3.3909,3.3621,0.0,0.0,0.0,0.0,0.0,0.0,0.0,0.0,0.0,0.0,0.0,0.0,0.0,0.0,0.0,0.0,0.0,0.0,0.0,0.0,0.0,0.0,0.0,0.0,0.0,0.0,0.0,2.2155,2.2192,0.0,0.0,0.0,0.0,0.0,0.0,0.0,0.0,0.0,0.0,0.0,2.687,2.7716,0.0,0.0,0.0,0.0,0.0,0.0,0.0,0.0,0.0,0.0,0.0,0.0,2.9711,2.9757,3.0905,3.1593,3.1754,3.1593,3.1272,3.0767,3.0928,3.102,3.102,0.0,0.0,0.0,0.0,0.0,0.0,0.0,0.0,0.0,0.0,0.0,0.0,0.0,0.0,0.0,0.0,0.0,0.0,0.0,0.0,0.0,0.0,0.0,0.0,0.0,2.1731,0.0,0.0,0.0,0.0,0.0,0.0,0.0,0.0,0.0,0.0,2.5448,2.7742,2.878,3.0584,3.1931,3.2226,3.2683,3.3092,0.0,0.0,0.0,0.0,0.0,0.0,0.0,0.0,0.0,0.0,0.0,0.0,0.0,3.403,3.2747,3.2042,3.1589,3.1365,3.1556,0.0,0.0,0.0,0.0,0.0,0.0,0.0,0.0,0.0,0.0,0.0,0.0,0.0,0.0,2.4874,2.492,2.4897,0.0,0.0,0.0,0.0,0.0,0.0,0.0,0.0,2.8222,2.8771,2.8962,2.9558,2.9612,2.9028,2.9028,2.781,0.0,0.0,0.0,0.0,0.0,0.0,0.0,0.0,3.0905,3.079,3.1433,3.1846,3.2007,3.1846,3.1616,3.1295,3.1205,3.1367,3.1879,3.134,3.1035,0.0,0.0,0.0,0.0,0.0,0.0,0.0,0.0,0.0,0.0,0.0,0.0,0.0,0.0,0.0,0.0,0.0,0.0,0.0,0.0,0.0,0.0,0.0,2.4877,0.0,0.0,0.0,0.0,0.0,0.0,0.0,0.0,0.0,2.6081,2.8064,2.9857,3.0355,3.1955,3.302,3.3044,0.0,0.0,0.0,0.0,0.0,0.0,0.0,3.6227,3.5987,3.6788,3.7399,3.6913,3.6133,3.5815,3.6416,0.0,0.0,3.5064,3.451,3.4098,3.4054,3.3208,3.2744,3.3615,3.3349,3.3494,0.0,0.0,0.0,0.0,2.5941,0.0,0.0,0.0,2.7442,2.7625,0.0,2.7938,0.0,0.0,0.0,0.0,2.8298,2.8999,0.0,0.0,3.0579,3.0828,3.0738,3.067,3.0603,3.0285,3.0285,3.0032,2.9504,2.8563,0.0,0.0,0.0,0.0,0.0,0.0,3.2259,3.1731,3.1777,3.203,3.2443,3.203,3.1895,3.1872,3.1599,3.1902,3.2858,3.1762,3.1144,3.1097,2.9659,0.0,0.0,0.0,0.0,0.0,0.0,0.0,0.0,0.0,0.0,0.0,0.0,0.0,0.0,0.0,0.0,0.0,0.0,0.0,0.0,2.5971,0.0,0.0,0.0,0.0,0.0,0.0,0.0,0.0,0.0,3.1044,3.0647,3.0206,3.0707,3.3023,0.0,0.0,0.0,0.0,3.4463,3.5473,3.5208,3.5232,3.6242,3.6251,3.606,3.5861,0.0,0.0,3.6864,3.714,3.7584,3.8251,3.8445,3.8024,3.6802,3.6941,3.6846,3.6033,3.6251,3.6646,3.6281,3.6402,3.6868,2.932,0.0,0.0,0.0,0.0,2.8226,2.8664,2.933,2.933,2.9319,2.9297,2.9423,0.0,0.0,0.0,0.0,0.0,0.0,3.0903,3.1437,3.1828,3.2347,3.2818,3.263,3.244,3.2109,3.2299,3.2134,3.1616,3.1529,3.1344,3.1111,0.0,0.0,0.0,0.0,3.2971,3.1869,3.2099,3.2351,3.2489,3.2545,3.2669,3.2861,3.2816,3.2959,3.3433,3.3126,3.2912,3.2935,3.1841,0.0,0.0,0.0,0.0,0.0,0.0,0.0,0.0,0.0,0.0,0.0,0.0,0.0,0.0,0.0,0.0,0.0,0.0,0.0,2.7244,2.9148,3.0453,0.0,0.0,0.0,0.0,0.0,0.0,0.0,0.0,0.0,3.3577,3.3078,3.3148,0.0,0.0,3.4535,3.5593,3.54,3.54,3.6074,3.605,0.0,3.6867,3.7597,3.8113,3.8428,3.9037,3.9569,3.9717,3.9635,3.9627,3.9815,4.0079,3.9981,3.9447,3.868,3.8289,3.846,3.8736,3.8662,3.8197,3.8466,3.8939,3.1759,3.1161,3.0533,3.0295,3.02,3.02,3.0683,3.136,3.136,3.1249,3.1185,3.1318,3.0985,3.0419,3.0359,0.0,0.0,0.0,3.1948,3.2227,3.2699,3.3095,3.3714,3.3609,3.3621,3.3661,3.3389,3.3296,3.3284,3.2966,3.3036,3.33,0.0,3.2856,3.3292,3.3752,3.3476,3.2443,3.2748,3.3007,3.3007,3.318,3.3399,3.3473,3.3478,3.3647,3.3957,3.3863,3.3959,3.4126,3.3361,3.2575,0.0,0.0,0.0,0.0,0.0,0.0,0.0,0.0,0.0,0.0,0.0,2.3953,2.4073,0.0,0.0,0.0,2.9076,2.9869,3.0927,3.2346,0.0,0.0,0.0,0.0,0.0,0.0,0.0,3.322,3.5011,3.6122,3.5809,3.5497,3.5256,3.516,3.5136,3.5593,3.6867,0.0,3.6747,3.7484,3.7387,3.7363,3.7782,3.8664,3.9438,3.9783,4.0046,4.0252,4.0252,4.0426,4.0517,4.0607,4.0789,4.1097,4.1521,4.0843,4.007,3.9996,4.0079,4.0063,3.9742,3.9791,3.9915,3.3477,3.338,3.1988,3.1774,3.215,3.2289,3.2644,3.3284,3.3284,3.3284,3.3284,3.3332,3.3116,3.2683,3.2337,0.0,3.2677,3.2955,3.2908,3.2724,3.3244,3.3608,3.383,3.3945,3.4326,3.4785,3.3821,3.3769,3.4318,3.3412,3.39,3.5584,3.4544,3.3821,3.3499,3.3821,3.3752,3.3224,3.3592,3.3738,3.3784,3.4082,3.4106,3.3884,3.3929,3.41,3.4504,3.4246,3.4438,3.4968,3.4487,3.3982,3.3597,0.0,0.0,0.0,0.0,0.0,0.0,0.0,0.0,0.0,0.0,0.0,0.0,0.0,0.0,3.1096,3.2563,0.0,3.4751,3.5352,0.0,0.0,0.0,3.5246,3.3854,3.4952,3.5337,3.4528,0.0,0.0,3.7252,3.73,3.6988,3.605,3.5809,3.6314,3.795,3.807,3.8345,3.915,3.8883,3.8721,3.9234,3.9939,4.0575,4.0649,4.0059,3.9935,4.0034,4.0464,4.0996,4.1305,4.1171,4.1618,4.3298,4.3049,4.2364,4.1175,4.1087,4.1196,4.1221,4.0923,4.0906,3.5064,3.5088,3.511,3.4342,3.3047,3.3407,3.3431,3.3284,3.3284,3.3284,3.3308,3.3504,3.3744,3.3958,3.3648,3.3672,3.3979,3.4,3.4115,3.4299,3.4528,3.475,3.4853,3.4659,3.467,3.4762,3.4347,3.4093,3.406,3.3684,3.3638,3.3899,3.3935,3.4326,3.4946,3.4531,3.3769,3.2673,3.3731,3.4513,3.5113,3.5419,3.5622,3.5723,3.5705,3.5805,3.5901,3.5421,3.5665,3.6555,3.5737,3.5545,3.6218,3.5641,0.0,0.0,0.0,0.0,0.0,0.0,0.0,0.0,0.0,3.0543,2.9989,0.0,3.403,0.0,3.4366,3.4992,3.4847,3.5665,0.0,0.0,3.6651,3.6645,3.6319,3.6645,3.686,3.7059,3.7892,3.8262,3.7853,3.8166,3.861,3.8897,3.767,3.7541,3.9465,3.9104,3.89,3.9734,3.9782,4.0038,4.1127,4.2103,4.2687,4.3159,4.2937,4.2849,4.325,4.345,4.3689,4.3701,4.3726,4.3901,4.4252,4.4202,4.4051,4.3662,4.3726,4.3726,4.3726,4.3576,4.3551,3.5978,3.6002,3.629,3.5737,3.4703,3.4968,3.4944,3.4679,3.4679,3.4679,3.4679,3.4796,3.496,3.5099,3.4912,3.4936,3.4923,3.4822,3.4886,3.5168,3.5062,3.5213,3.555,3.5465,3.5566,3.5772,3.5603,3.5455,3.5201,3.4819,3.4588,3.4485,3.4531,3.4958,3.5772,3.5166,3.4693,3.4393,3.4792,3.5184,3.5774,3.59,3.6534,3.7546,3.6788,3.6867,3.7781,3.6627,3.6675,3.8166,3.7709,3.7757,3.8551,3.8118,3.7733,0.0,0.0,0.0,0.0,0.0,0.0,0.0,0.0,0.0,0.0,0.0,3.6074,3.5497,3.5978,3.629,3.6242,3.6988,3.7397,3.7132,3.7589,3.7829,3.7565,3.7781,3.8118,3.8647,3.9393,3.9657,3.9152,3.9729,4.0419,4.1047,4.0207,4.0086,4.1128,4.108,4.1007,4.1752,4.1914,4.2199,4.3069,4.3622,4.4136,4.4636,4.4653,4.4744,4.5246,4.5171,4.507,4.5296,4.497,4.4819,4.5246,4.5171,4.507,4.5321,4.5372,4.5196,4.4719,4.4618,4.4618,3.6507,3.6507,3.6579,3.6603,3.6603,3.6603,3.6531,3.6411,3.6411,3.6411,3.6411,3.6411,3.6309,3.6105,3.6105,3.5924,3.5686,3.5525,3.5619,3.577,3.534,3.5511,3.614,3.6363,3.6691,3.7104,3.7058,3.6916,3.6673,3.6186,3.5931,3.5908,3.5561,3.5802,3.6507,3.6117,3.6218,3.6595,3.6215,3.6119,3.6398,3.6549,3.7477,3.9165,3.7772,3.7661,3.9345,3.7637,3.7493,3.9345,3.9369,3.9609,4.0234,3.985,3.9176,0.0,3.6964,0.0,0.0,0.0,0.0,0.0,0.0,0.0,0.0,3.6675,3.73,3.73,3.73,3.7493,3.7926,3.8431,3.8575,3.8262,3.8695,3.8815,3.8383,3.8839,3.9393,3.985,4.0787,4.1196,4.0812,4.1533,4.2179,4.2482,4.2598,4.2598,4.3118,4.3223,4.3252,4.4085,4.4327,4.4444,4.4853,4.497,4.5196,4.5698,4.5748,4.5899,4.6426,4.615,4.5974,4.6326,4.5799,4.5472,4.6351,4.6125,4.5999,4.6426,4.6502,4.6175,4.5246,4.5045,4.4945,3.7036,3.7084,3.7517,3.7685,3.7685,3.7685,3.7204,3.6411,3.6411,3.6411,3.6411,3.6411,3.6411,3.6309,3.6309,3.6343,3.6273,3.6543,3.675,3.6732,3.7035,3.7265,3.7469,3.7448,3.7563,3.7609,3.7219,3.6989,3.6874,3.6478,3.6225,3.6248,3.6547,3.7127,3.8091,0.0,0.0,0.0,3.7239,3.8073,3.8718,3.9344,3.986,4.0354,3.9435,0.0,3.8936,3.8142,3.807,3.8888,3.8118,0.0,0.0,0.0,0.0,0.0,0.0,0.0,0.0,0.0,0.0,0.0,3.7902,3.7565,3.6411,3.7228,3.7829,3.7829,3.7829,3.7878,3.7974,3.807,3.8455,3.9224,3.9777,4.0066,3.997,4.0763,4.1413,4.1509,4.2086,4.2423,4.2327,4.2495,4.2853,4.3423,4.3573,4.4056,4.4935,4.4215,4.3826,4.4252,4.5235,4.603,4.6602,4.6627,4.6728,4.7255,4.7079,4.7054,4.7456,4.7531,4.7431,4.7606,4.7431,4.7305,4.7556,4.7506,4.7456,4.7581,4.7606,4.728,4.6225,4.6351,4.6652,3.7998,3.8046,3.8551,3.8791,0.0,3.8791,3.8479,3.7974,3.7709,3.7757,3.7974,3.7974,3.7974,3.7998,3.7998,3.8035,3.7976,3.8129,3.8037,3.785,3.8016,3.7906,3.7793,3.8045,3.8183,3.8183,3.816,3.816,3.8137,3.7907,3.777,3.777,3.8022,3.8551,3.9174,3.9267,3.884,3.8138,3.8783,3.9325,3.9926,4.0188,4.0806,4.197,4.0434,0.0,0.0,0.0,0.0,0.0,0.0,0.0,0.0,4.0908,0.0,3.9657,3.9874,3.9777,3.9248,3.92,3.932,3.9585,3.9826,3.9296,3.7709,3.8334,3.8671,3.8431,3.8623,3.8888,3.9152,3.9176,3.9393,3.997,4.0691,4.1172,4.1244,4.187,4.2447,4.2711,4.2976,4.3241,4.3361,4.3627,4.4135,4.4984,4.5255,4.5624,4.6334,4.5839,4.5324,4.5985,4.6556,4.7179,4.7431,4.7506,4.7707,4.8134,4.8109,4.8184,4.8661,4.8736,4.8736,4.8736,4.8736,4.8736,4.8736,4.8736,4.8736,4.8736,4.8736,4.8611,4.8008,4.7732,4.7606,3.896,3.8984,3.9441,3.9609,3.9609,3.9609,3.9657,3.9705,3.9176,0.0,0.0,3.9609,3.9609,3.9609,3.9609,3.9657,3.9618,3.9396,3.922,3.8953,3.8751,3.8457,3.8321,3.8758,3.9011,3.8987,3.9377,3.9561,3.9702,3.9679,3.9702,3.9679,3.9798,3.9939,4.0176,4.0105,4.0124,4.0421,4.0259,4.0326,4.0554,4.0421,4.128,4.3216,4.1124,4.0667,4.223,4.0667,4.0547,4.2206,4.1942,4.1942,4.2423,4.199,4.11,3.9874,3.9657,3.9609,3.9609,3.9705,4.0018,4.0619,4.1076,4.0691,3.92,3.9657,3.9777,3.9152,3.9657,4.0186,4.0499,4.0619,4.0715,4.0812,4.1677,4.2254,4.2279,4.2711,4.3216,4.3577,4.3746,4.4038,4.433,4.4792,4.5526,4.6514,4.6712,4.7085,4.7733,4.7283,4.696,4.7683,4.7958,4.8083,4.8335,4.841,4.8586,4.9213,4.9264,4.9389,4.9741,4.9891,4.9891,4.9891,4.9891,4.9891,4.9891,4.9891,4.9891,4.9891,4.9891,4.9891,4.9816,4.9163,4.8711,3.9513,3.9513,3.9585,3.9609,3.9609,3.9609,3.985,4.0234,3.9729,3.9561,3.9609,3.9609,3.9609,3.9609,3.9609,3.9738,3.9896,3.9783,3.9931,4.0011,4.0011,4.0013,4.0101,4.0171,4.0306,4.0479,4.0571,4.0739,4.0959,4.0959,4.1201,4.1442,4.1442,4.1563,4.1947,4.1875,4.2067,4.2423,4.1377,4.1023,4.1258,4.1686,4.2042,4.228,4.1513,4.086,4.0715,4.0451,4.0403,4.0715,4.0667,4.086,4.1341,4.0932,4.0523,4.0282,3.985,3.9609,3.9633,4.0042,4.0715,4.1629,4.1822,4.1389,4.0331,4.1076,4.1244,4.0331,4.1052,4.1485,4.1172,4.1485,4.1894,4.2327,4.2928,4.3289,4.3265,4.377,4.413,4.4251,4.4884,4.5375,4.5524,4.6064,4.6784,4.7283,4.7558,4.7707,4.8384,4.8159,4.8083,4.851,4.8661,4.9038,4.9715,5.0042,5.0193,5.0845,5.082,5.0745,5.087,5.0946,5.0971,5.1021,5.1021,5.1046,5.1046,5.1046,5.1046,5.1046,5.1046,5.1046,5.1096,5.0896,5.0695,4.0042,4.0066,4.0331,4.0475,4.0451,4.0475,4.0595,4.0787,4.0571,4.0451,4.0475,4.0451,4.0451,4.0475,4.0475,4.0626,4.1014,4.0898,4.0834,4.1069,4.0831,4.0731,4.0699,4.082,4.0959,4.1045,4.1289,4.1574,4.1953,4.1976,4.2093,4.2327,4.2216,4.232,4.2685,4.2664,4.264,4.276,4.2281,4.2043,4.2138,4.2114,4.209,4.2066,4.1557,4.1076,4.0836,4.0836,4.0812,4.0812,4.0812,4.0932,4.1172,4.0956,4.0812,4.0836,4.086,4.0884,4.0908,4.1629,4.2303,4.276,4.3096,4.3072,4.2591,4.2447,4.2206,4.1725,4.2134,4.2303,4.2062,4.2254,4.2495,4.2735,4.3216,4.3625,4.3962,4.4443,4.4876,4.5164,4.5658,4.6182,4.6333,4.6907,4.7582,4.8108,4.8582,4.9336,5.0017,4.9916,4.969,4.9715,4.9916,5.0293,5.0795,5.087,5.0996,5.1272,5.1272,5.1272,5.1297,5.1498,5.1724,5.1749,5.1975,5.2151,5.2176,5.2176,5.2176,5.2176,5.2176,5.2251,5.2503,5.2829,5.2653,4.0571,4.0619,4.1004,4.1244,4.1365,4.1365,4.1437,4.1533,4.1533,4.1533,4.1533,4.1437,4.1413,4.1533,4.1557,4.1749,4.211,4.1922,4.19,4.2016,4.1798,4.1481,4.1352,4.1574,4.1766,4.1737,4.2005,4.2461,4.2838,4.2862,4.295,4.313,4.2926,4.3085,4.333,4.3192,4.312,4.3096,4.3,4.288,4.276,4.2351,4.2086,4.1942,4.1581,4.1317,4.1196,4.1196,4.1196,4.1196,4.1196,4.1196,4.1196,4.1196,4.1244,4.1365,4.1749,4.2086,4.2351,4.3048,4.3577,4.3697,4.4106,4.4395,4.4443,4.377,4.3192,4.3,4.3048,4.312,4.3144,4.3265,4.3337,4.3457,4.3818,4.4275,4.4683,4.5068,4.5453,4.5966,4.6391,4.6871,4.715,4.7728,4.8532,4.9414,5.0092,5.077,5.1197,5.1373,5.1247,5.1021,5.1096,5.1272,5.1423,5.1473,5.1523,5.1599,5.1699,5.1825,5.195,5.2251,5.2528,5.2703,5.303,5.3256,5.3306,5.3306,5.3306,5.3306,5.3306,5.3406,5.3733,5.4084,5.416,4.11,4.1124,4.1196,4.1461,4.1894,4.1894,4.2158,4.2543,4.2615,4.2615,4.2543,4.211,4.2158,4.2567,4.2591,4.2615,4.2687,4.2687,4.2735,4.2664,4.264,4.2759,4.2678,4.2848,4.2962,4.3091,4.3114,4.3239,4.3559,4.3583,4.3778,4.4099,4.4175,4.4127,4.4127,4.4202,4.4178,4.4178,4.3697,4.3216,4.2784,4.2711,4.2471,4.199,4.1918,4.1653,4.1268,4.1196,4.1196,4.1196,4.122,4.122,4.122,4.122,4.1413,4.1894,4.199,4.2351,4.3265,4.3457,4.3794,4.4202,4.4347,4.4587,4.502,4.4972,4.4467,4.3818,4.3938,4.4202,4.4227,4.4587,4.4972,4.5309,4.5477,4.5742,4.5718,4.5814,4.6014,4.6269,4.7213,4.7794,4.8248,4.9257,5.0187,5.0795,5.1021,5.1272,5.1473,5.1774,5.2026,5.185,5.1649,5.1599,5.19,5.2051,5.2251,5.2628,5.2779,5.2929,5.3206,5.3406,5.3658,5.3808,5.4185,5.4235,5.4285,5.4411,5.4336,5.421,5.4235,5.4411,5.4486,5.4612,5.4511,4.1653,4.1677,4.199,4.223,4.2423,4.2447,4.2567,4.2735,4.276,4.2928,4.3168,4.2976,4.2856,4.276,4.276,4.2904,4.3192,4.2951,4.3142,4.3283,4.2938,4.2809,4.2872,4.2896,4.3013,4.3302,4.3451,4.3826,4.395,4.395,4.395,4.4223,4.4075,4.4075,4.4347,4.4347,4.4347,4.4347,4.413,4.389,4.3649,4.3072,4.2663,4.2471,4.2423,4.2351,4.2134,4.211,4.211,4.2134,4.2399,4.2543,4.2567,4.288,4.3144,4.3385,4.3673,4.4154,4.4876,4.4924,4.5044,4.5261,4.5285,4.5381,4.5573,4.5597,4.5381,4.5068,4.514,4.5285,4.5285,4.5477,4.5694,4.5886,4.5934,4.6054,4.6367,4.6391,4.6713,4.7734,4.842,4.8953,4.9669,5.0356,5.1147,5.1624,5.1774,5.185,5.2176,5.2452,5.2553,5.2603,5.2628,5.2653,5.2653,5.2879,5.3105,5.3356,5.3683,5.4034,5.411,5.421,5.431,5.4561,5.4637,5.4637,5.4511,5.4561,5.4561,5.4662,5.4913,5.5064,5.5064,5.5315,5.5491,4.2182,4.2254,4.2615,4.2832,4.2976,4.2952,4.3048,4.3192,4.3192,4.3409,4.3721,4.3746,4.3553,4.3241,4.3192,4.3409,4.3721,4.3501,4.3569,4.3927,4.3451,4.3224,4.32,4.32,4.3326,4.3576,4.3826,4.4075,4.4223,4.4075,4.4075,4.4223,4.4075,4.4075,4.4247,4.4467,4.4563,4.4587,4.4683,4.478,4.4683,4.4034,4.3481,4.3241,4.3337,4.3337,4.3216,4.3192,4.3192,4.3216,4.3553,4.3746,4.3746,4.413,4.4419,4.4587,4.5068,4.5525,4.591,4.5934,4.5934,4.5934,4.5934,4.5982,4.6102,4.615,4.6223,4.6343,4.6487,4.6511,4.615,4.6126,4.6247,4.6511,4.6583,4.68,4.7305,4.7353,4.7823,4.906,4.9401,5.0048,5.0921,5.1364,5.1724,5.2201,5.2327,5.2427,5.2854,5.3005,5.313,5.3155,5.3582,5.3658,5.3306,5.3557,5.3884,5.4009,5.4285,5.4511,5.4737,5.4787,5.4963,5.5214,5.5039,5.5039,5.5239,5.5139,5.5089,5.5114,5.5365,5.5666,5.5616,5.5968,5.6143,4.2735,4.2735,4.276,4.3072,4.3481,4.3481,4.377,4.4154,4.4227,4.4275,4.4275,4.4275,4.4275,4.4227,4.4178,4.4275,4.4299,4.4151,4.4175,4.4223,4.4223,4.4223,4.4223,4.4223,4.4223,4.4099,4.4223,4.4223,4.4347,4.4223,4.4223,4.4371,4.4271,4.4247,4.4491,4.49,4.5092,4.514,4.5525,4.5814,4.5814,4.5742,4.5213,4.4467,4.4756,4.4732,4.4347,4.4275,4.4275,4.4275,4.4347,4.4347,4.4347,4.4419,4.4708,4.514,4.5621,4.591,4.5982,4.603,4.6006,4.5982,4.6102,4.6199,4.6704,4.6824,4.7016,4.7401,4.781,4.7714,4.6944,4.6872,4.7185,4.7954,4.8122,4.8339,4.882,4.8724,4.9349,4.9878,5.0223,5.085,5.1865,5.2076,5.2327,5.2729,5.2879,5.2955,5.313,5.3432,5.3632,5.3783,5.4084,5.431,5.3858,5.416,5.4461,5.4587,5.4712,5.4813,5.5114,5.5415,5.5666,5.5867,5.5842,5.5917,5.6068,5.6168,5.6194,5.6219,5.6194,5.6319,5.6394,5.6244,5.6394,4.3457,4.377,4.377,4.389,4.4034,4.4058,4.4154,4.4347,4.4347,4.4347,4.4347,4.4347,4.4347,4.4347,4.4347,4.4347,4.4347,4.4347,4.4347,4.4223,4.4075,4.395,4.395,4.3826,4.3826,4.395,4.395,4.4075,4.4347,4.4347,4.4515,4.4828,4.4852,4.4996,4.5333,4.5549,4.5645,4.5669,4.5838,4.5934,4.5982,4.6247,4.6223,4.5886,4.5718,4.5549,4.5357,4.5357,4.5357,4.5357,4.5669,4.5862,4.5886,4.6175,4.6439,4.6631,4.6824,4.6944,4.6944,4.6944,4.692,4.6944,4.7257,4.7473,4.7738,4.8026,4.8315,4.8507,4.8652,4.8555,4.8363,4.8243,4.8363,4.87,4.8796,4.8868,4.9149,4.9382,4.9777,5.0641,5.1371,5.2154,5.2391,5.2628,5.2854,5.3306,5.3432,5.3582,5.3909,5.416,5.426,5.4336,5.4712,5.5039,5.4863,5.4913,5.5114,5.5214,5.534,5.5591,5.5867,5.5842,5.6018,5.6244,5.6369,5.662,5.6746,5.7223,5.7273,5.7575,5.7549,5.7173,5.7298,5.7097,5.7148,4.401,4.4323,4.4347,4.4347,4.4347,4.4347,4.4347,4.4347,4.4347,4.4347,4.4347,4.4347,4.4347,4.4347,4.4347,4.4347,4.4347,4.4347,4.4347,4.4347,4.4075,4.395,4.395,4.3701,4.3701,4.395,4.395,4.4147,4.4587,4.4587,4.4876,4.5357,4.5405,4.5573,4.5886,4.6078,4.6175,4.6199,4.6343,4.6463,4.6487,4.6776,4.6968,4.692,4.6607,4.6439,4.6439,4.6439,4.6439,4.6487,4.6776,4.6968,4.7016,4.7305,4.7569,4.7714,4.7738,4.7834,4.7978,4.8002,4.8002,4.8026,4.8315,4.8555,4.8579,4.8868,4.906,4.9109,4.9253,4.9325,4.9373,4.9469,4.9517,4.9373,4.9325,4.9421,4.9565,5.0052,5.0612,5.1368,5.2391,5.2967,5.3206,5.3356,5.3607,5.3959,5.3984,5.4185,5.4461,5.4737,5.4838,5.4863,5.529,5.5591,5.5566,5.5591,5.5641,5.5717,5.5717,5.6068,5.6344,5.6319,5.647,5.6671,5.6922,5.7173,5.76,5.8102,5.8529,5.8905,5.8504,5.8001,5.8001,5.7926,5.8051,4.4323,4.4347,4.4347,4.4347,4.4347,4.4347,4.4347,4.4347,4.4347,4.4347,4.4347,4.4347,4.4347,4.4347,4.4347,4.4347,4.4347,4.4347,4.4347,4.4347,4.4223,4.4223,4.4223,4.4223,4.4271,4.4295,4.4247,4.4659,4.5116,4.5164,4.5405,4.5838,4.5934,4.5982,4.5982,4.6487,4.6704,4.68,4.7136,4.7401,4.7473,4.7425,4.7425,4.7449,4.7425,4.7449,4.7473,4.7425,4.7353,4.7401,4.7473,4.7521,4.7569,4.7642,4.7786,4.8219,4.8291,4.8531,4.894,4.8964,4.8916,4.894,4.9036,4.9084,4.9109,4.9181,4.9253,4.9349,4.9614,4.9878,4.995,5.0335,5.0431,4.9974,4.9926,5.0307,5.0644,5.1095,5.1516,5.2362,5.3293,5.3683,5.3808,5.4059,5.4386,5.4511,5.4561,5.4637,5.4838,5.5164,5.5365,5.5465,5.5742,5.5968,5.6093,5.6194,5.6194,5.6168,5.6118,5.6244,5.6595,5.6721,5.7248,5.7524,5.8077,5.8378,5.9006,5.9483,5.9583,5.9759,5.9232,5.9159,5.9617,5.9718,5.9261,4.4347,4.4347,4.4347,4.4347,4.4347,4.4347,4.4347,4.4347,4.4347,4.4347,4.4347,4.4347,4.4347,4.4347,4.4347,4.4371,4.4347,4.4347,4.4347,4.4371,4.4371,4.4371,4.4371,4.4371,4.4539,4.4828,4.49,4.5164,4.5597,4.5694,4.5934,4.6367,4.6463,4.6655,4.6944,4.7161,4.7257,4.7281,4.7425,4.7497,4.7497,4.7497,4.7497,4.7545,4.7858,4.805,4.8026,4.769,4.7497,4.7521,4.7858,4.8195,4.8483,4.8579,4.8676,4.8796,4.8844,4.8868,4.9036,4.9109,4.9133,4.9157,4.9421,4.9589,4.9686,4.995,5.0143,5.0167,5.0359,5.0431,5.0527,5.0912,5.0984,5.0527,5.1027,5.1435,5.1795,5.2514,5.3329,5.3778,5.421,5.4285,5.431,5.4561,5.4787,5.5064,5.5139,5.5214,5.5616,5.5742,5.5942,5.5993,5.6194,5.6219,5.6219,5.6244,5.6269,5.642,5.6495,5.6671,5.6972,5.7449,5.7976,5.8654,5.9207,5.9759,6.0387,6.0688,6.0763,6.0839,6.0821,6.1114,6.1891,6.181,6.1469,4.4347,4.4347,4.4347,4.4467,4.4635,4.4635,4.4756,4.4924,4.4948,4.4924,4.4948,4.4948,4.4924,4.4924,4.4924,4.4924,4.4924,4.4948,4.4924,4.4828,4.4467,4.4467,4.4635,4.4852,4.5092,4.5381,4.5429,4.5694,4.6175,4.6223,4.6487,4.692,4.7016,4.7136,4.7473,4.7497,4.7497,4.7521,4.769,4.7714,4.7617,4.7882,4.8002,4.7906,4.8315,4.8555,4.8555,4.8243,4.8074,4.8122,4.8411,4.8748,4.906,4.906,4.9157,4.9325,4.9397,4.9445,4.9638,4.9734,4.9686,4.9758,4.9998,5.0167,5.0239,5.0551,5.0696,5.0696,5.0888,5.1008,5.1056,5.1609,5.1873,5.1631,5.1992,5.2473,5.2833,5.3483,5.4085,5.4394,5.4712,5.4838,5.4888,5.5114,5.5265,5.5616,5.5691,5.5742,5.6118,5.6168,5.6219,5.6194,5.6219,5.6219,5.6219,5.6244,5.6319,5.657,5.6846,5.7198,5.7549,5.8227,5.883,5.9935,6.0638,6.119,6.1768,6.1793,6.1843,6.2079,6.2299,6.2893,6.3439,6.4122,6.4,4.4347,4.4347,4.4347,4.4635,4.5068,4.5092,4.5357,4.5838,4.5862,4.5814,4.5838,4.5766,4.5838,4.5886,4.5766,4.5766,4.5886,4.579,4.5814,4.5645,4.514,4.49,4.5188,4.5645,4.5934,4.6078,4.6078,4.6343,4.6872,4.68,4.704,4.7497,4.7473,4.7521,4.7593,4.7545,4.7617,4.769,4.8122,4.8195,4.7858,4.8579,4.8892,4.8459,4.8868,4.9109,4.9109,4.9157,4.9133,4.9109,4.9109,4.9181,4.9205,4.9181,4.9493,4.9902,4.9902,5.0143,5.0527,5.0527,5.0551,5.0527,5.0551,5.0696,5.0648,5.0744,5.084,5.0864,5.1249,5.1681,5.1778,5.2429,5.2841,5.3083,5.3059,5.3492,5.3948,5.4166,5.4552,5.4888,5.5114,5.544,5.544,5.5817,5.6043,5.6118,5.6118,5.6143,5.6168,5.6219,5.6219,5.6219,5.6219,5.6219,5.6219,5.6495,5.6646,5.7346,5.7899,5.8831,5.911,5.9794,6.0657,6.1565,6.2332,6.283,6.2997,6.3143,6.3118,6.3254,6.3715,6.443,6.5281,6.6234,6.6575,4.4347,4.4347,4.4347,4.4659,4.5116,4.514,4.5453,4.5886,4.5958,4.6006,4.5958,4.5934,4.5982,4.5934,4.5958,4.5934,4.6006,4.5982,4.6175,4.6439,4.6271,4.591,4.5862,4.6271,4.6728,4.704,4.7088,4.7353,4.781,4.7497,4.7593,4.805,4.7762,4.7738,4.8002,4.8074,4.8074,4.8219,4.9012,4.9373,4.9277,4.9469,4.9589,4.9493,4.9589,4.9662,4.971,5.007,5.0046,4.9686,4.9662,4.9878,5.0167,5.0215,5.0263,5.0383,5.0455,5.0503,5.0648,5.0696,5.0696,5.0696,5.0744,5.0696,5.072,5.1056,5.1249,5.1369,5.2042,5.2502,5.2719,5.3399,5.4107,5.4768,5.4667,5.4713,5.5326,5.5647,5.5647,5.5817,5.5892,5.6063,5.6138,5.6214,5.634,5.6485,5.6485,5.6485,5.675,5.6485,5.6631,5.6365,5.6219,5.6219,5.6319,5.6646,5.7097,5.8101,5.9337,6.1144,6.1583,6.2302,6.331,6.4321,6.4874,6.5451,6.4923,6.4713,6.4657,6.4683,6.5162,6.5838,6.7886,6.9124,6.9068,4.4347,4.4347,4.4347,4.478,4.5429,4.5453,4.5886,4.6487,4.6583,4.6583,4.6583,4.6583,4.6583,4.6583,4.6583,4.6583,4.6607,4.6824,4.7112,4.7353,4.7593,4.7425,4.7185,4.7473,4.7882,4.8122,4.8147,4.8315,4.8507,4.8291,4.8363,4.8531,4.8315,4.8339,4.8579,4.8628,4.8748,4.906,4.9782,5.0215,5.0215,5.0455,5.0383,5.0287,5.0215,5.0215,5.0263,5.0527,5.0527,5.0287,5.0239,5.0383,5.0648,5.0696,5.0696,5.0696,5.0696,5.0696,5.0696,5.0696,5.0696,5.0768,5.0864,5.1008,5.1129,5.1513,5.1826,5.2139,5.2744,5.3254,5.3546,5.423,5.538,5.6428,5.6446,5.6251,5.634,5.6725,5.675,5.6631,5.675,5.7184,5.7184,5.7184,5.7446,5.7876,5.8276,5.8276,5.8276,5.759,5.7286,5.7414,5.7328,5.748,5.8276,5.8808,6.0007,6.0684,6.1692,6.3475,6.4313,6.4897,6.5421,6.6415,6.7215,6.7549,6.6805,6.6339,6.6339,6.6495,6.6805,6.762,6.9347,7.0525,7.0679,4.4347,4.4347,4.4347,4.4948,4.5814,4.5934,4.6439,4.7329,4.7401,4.7401,4.7401,4.7449,4.7329,4.7497,4.7305,4.7497,4.7569,4.7882,4.8267,4.8531,4.8868,4.894,4.8628,4.8796,4.8988,4.906,4.9133,4.9133,4.9109,4.9084,4.9084,4.9084,4.906,4.9084,4.9133,4.9157,4.9445,4.9926,5.06,5.1032,5.1129,5.1345,5.1273,5.0984,5.0648,5.0624,5.0624,5.0696,5.0672,5.0696,5.0696,5.0672,5.0696,5.0696,5.0696,5.0696,5.0696,5.0696,5.0744,5.0792,5.0816,5.0912,5.1321,5.1562,5.1802,5.2453,5.3179,5.3468,5.3814,5.4497,5.4886,5.5601,5.6768,5.7966,5.8507,5.7707,5.7328,5.7876,5.816,5.6895,5.7876,5.8418,5.856,5.8701,5.9096,5.9262,5.9681,5.9621,5.9562,5.9413,5.9342,5.9462,5.9293,5.8903,6.0128,6.1264,6.2844,6.4046,6.5058,6.6305,6.7298,6.7873,6.7816,6.8311,6.9093,6.9093,6.8187,6.8007,6.8007,6.8187,6.8517,6.9087,6.981,7.0879,7.1304,4.4347,4.4347,4.4347,4.4948,4.5838,4.5958,4.6535,4.7473,4.7497,4.7497,4.7497,4.7497,4.7497,4.7497,4.7545,4.7714,4.8074,4.8339,4.87,4.9589,5.0095,5.0287,5.0046,4.9878,4.9686,4.9686,4.971,4.971,4.9638,4.9421,4.9301,4.9638,4.9421,4.9301,4.9662,4.9758,4.9974,5.06,5.1441,5.2091,5.2307,5.2139,5.197,5.1706,5.1081,5.072,5.0696,5.0696,5.0696,5.0696,5.0696,5.0696,5.0696,5.0696,5.0696,5.072,5.072,5.072,5.0792,5.1081,5.1321,5.1656,5.2186,5.2526,5.2695,5.4502,5.5324,5.5736,5.6453,5.6852,5.7475,5.7604,5.8533,5.9515,5.9236,5.8956,5.9515,5.9931,5.9931,5.9654,5.9793,6.007,6.007,6.007,6.0345,6.062,6.0865,6.0974,6.1054,6.1271,6.1399,6.1636,6.1523,6.1344,6.2963,6.4229,6.5561,6.6751,6.7675,6.8295,6.9321,7.0086,6.9783,7.0164,7.0927,7.0487,6.9719,6.9719,6.9719,6.9895,6.9959,7.0299,7.0707,7.139,7.1237,4.4347,4.4371,4.4611,4.5188,4.5886,4.6199,4.6752,4.7401,4.7497,4.7497,4.7497,4.7497,4.7497,4.7521,4.7762,4.805,4.8363,4.8844,4.9469,5.0167,5.0576,5.0672,5.0672,5.0455,5.0263,5.0263,5.0263,5.0263,5.0167,5.0022,5.0022,5.0215,4.995,5.0022,5.0287,5.0479,5.0936,5.1489,5.2211,5.2908,5.3245,5.2668,5.1922,5.161,5.1008,5.0696,5.0696,5.0696,5.0696,5.0696,5.0696,5.0696,5.0696,5.0696,5.0696,5.072,5.0984,5.1056,5.1201,5.1657,5.2259,5.3069,5.3849,5.4762,5.5507,5.697,5.7817,5.8062,5.8552,5.9183,6.0181,5.9654,6.0208,6.1138,6.0866,6.0866,6.1409,6.1571,6.1301,6.1029,6.1165,6.1436,6.1706,6.1844,6.2381,6.2837,6.3046,6.3215,6.3785,6.3795,6.3861,6.3886,6.3816,6.4246,6.5987,6.7289,6.8485,6.9224,6.9679,6.9936,7.0334,7.0879,7.1393,7.1711,7.1855,7.2,7.1393,7.1421,7.1247,7.1364,7.1309,7.1166,7.0989,7.0865,7.0424,4.4347,4.4395,4.4924,4.5453,4.5958,4.6487,4.6992,4.7449,4.7497,4.7497,4.7497,4.7497,4.7545,4.7714,4.8074,4.8315,4.8796,4.9493,5.0239,5.0576,5.0648,5.0696,5.0696,5.0648,5.0624,5.0696,5.0648,5.0648,5.0648,5.0696,5.0527,5.0672,5.0672,5.0576,5.0768,5.1201,5.161,5.2115,5.2668,5.3245,5.3558,5.2884,5.2018,5.1201,5.0816,5.072,5.0696,5.0696,5.0696,5.0696,5.0696,5.0837,5.0954,5.0954,5.1027,5.1216,5.1771,5.2132,5.2494,5.2742,5.3611,5.5101,5.6149,5.711,5.8382,5.9311,5.9938,6.032,6.0811,6.1381,6.2508,6.1706,6.1706,6.2641,6.2906,6.2906,6.3037,6.3169,6.2641,6.1975,6.2564,6.315,6.348,6.365,6.441,6.4929,6.5187,6.5577,6.5939,6.6251,6.6015,6.6392,6.6314,6.6594,6.8145,6.8627,6.9961,7.0444,7.0957,7.1068,7.1092,7.1593,7.1971,7.2316,7.2459,7.2459,7.2459,7.2172,7.2143,7.2515,7.2166,7.1532,7.0894,7.0308,6.9815,4.4347,4.4395,4.4924,4.5453,4.5958,4.6487,4.7016,4.7449,4.7497,4.7497,4.7497,4.7521,4.7786,4.8098,4.8219,4.8748,4.9541,5.0215,5.0576,5.0696,5.0696,5.0696,5.0696,5.0696,5.0696,5.0696,5.0696,5.0696,5.0696,5.0696,5.0696,5.0696,5.0696,5.0696,5.0888,5.1225,5.1826,5.2379,5.2884,5.3389,5.3558,5.3321,5.2501,5.1512,5.1102,5.1027,5.0837,5.0696,5.0696,5.0696,5.0696,5.1352,5.2302,5.2554,5.2917,5.3103,5.3403,5.3869,5.4477,5.4955,5.5467,5.647,5.807,5.9195,6.0102,6.1271,6.2053,6.248,6.3169,6.3749,6.2773,6.2641,6.3197,6.3879,6.3749,6.3328,6.4167,6.4512,6.4382,6.3891,6.4339,6.4886,6.5187,6.5429,6.5865,6.6346,6.6375,6.6854,6.7389,6.7603,6.7728,6.8421,6.9113,6.9546,7.0234,7.0181,7.0692,7.0639,7.0981,7.1184,7.1469,7.2108,7.2515,7.2602,7.2631,7.2602,7.2602,7.2573,7.2485,7.234,7.1934,7.1411,7.0744,7.0105,6.996,4.4347,4.4419,4.4924,4.5429,4.5958,4.6487,4.7016,4.7449,4.7497,4.7497,4.7593,4.7786,4.8026,4.8387,4.894,4.9565,5.0215,5.0527,5.0696,5.0696,5.0696,5.0696,5.0696,5.0696,5.0696,5.0696,5.0696,5.0696,5.0696,5.0696,5.0696,5.0696,5.072,5.084,5.1177,5.1658,5.2139,5.2668,5.3173,5.3534,5.3876,5.401,5.335,5.2114,5.203,5.2042,5.1771,5.1747,5.2139,5.2804,5.2941,5.3189,5.3945,5.4961,5.5465,5.5423,5.5641,5.6193,5.6834,5.7416,5.8149,5.9422,6.0539,6.1623,6.248,6.3431,6.3879,6.4009,6.4296,6.4711,6.4037,6.3879,6.4296,6.4711,6.4296,6.4296,6.4798,6.5286,6.5402,6.546,6.5477,6.5868,6.6896,6.7215,6.7551,6.7638,6.7696,6.8131,6.8712,6.8625,6.8625,6.935,7.0018,7.0512,7.0831,7.086,7.1005,7.1063,7.1121,7.1324,7.1644,7.2195,7.2485,7.2602,7.2631,7.2515,7.2456,7.2369,7.2253,7.2021,7.1266,7.0599,7.0308,6.9989,6.9815,4.4419,4.4539,4.4948,4.5501,4.6102,4.6535,4.7016,4.7425,4.7497,4.7497,4.7569,4.8026,4.8339,4.87,4.9493,5.0287,5.0696,5.0696,5.0696,5.0696,5.0696,5.0696,5.0696,5.0954,5.1095,5.0696,5.1236,5.0954,5.0837,5.1095,5.1236,5.1211,5.1236,5.1362,5.199,5.2595,5.2938,5.3201,5.3981,5.4199,5.4278,5.4957,5.4687,5.2656,5.3393,5.3732,5.324,5.3189,5.3733,5.4381,5.4782,5.5101,5.5816,5.7613,5.8385,5.7998,5.8374,5.8776,5.9397,5.9586,6.043,6.1674,6.2452,6.359,6.4296,6.4583,6.4839,6.4996,6.4996,6.4996,6.4839,6.4996,6.4996,6.4996,6.4996,6.4996,6.5083,6.5373,6.5925,6.6041,6.6186,6.6999,6.8073,6.8509,6.8712,6.9234,6.9321,6.9147,6.9554,6.8944,6.9031,6.9757,7.0395,7.0918,7.115,7.1063,7.1237,7.1411,7.144,7.1528,7.1818,7.2195,7.2311,7.2311,7.2311,7.2195,7.2166,7.205,7.1847,7.1353,7.0424,6.996,6.9931,6.9757,6.9525,4.4635,4.5044,4.5092,4.5694,4.6535,4.6655,4.7016,4.7473,4.7497,4.7497,4.7593,4.8209,4.8715,4.9318,5.0095,5.06,5.0813,5.0837,5.0954,5.0954,5.1095,5.1095,5.0954,5.2,5.1886,5.1632,5.2139,5.1747,5.1492,5.2139,5.2529,5.2529,5.2491,5.2854,5.3503,5.3768,5.3759,5.3643,5.4869,5.548,5.5296,5.6072,5.6038,5.5177,5.5034,5.4831,5.4835,5.4782,5.5049,5.5181,5.5419,5.6343,5.7901,5.9023,6.083,6.1481,6.1585,6.0882,6.1591,6.1864,6.2053,6.3037,6.3749,6.4583,6.4967,6.4996,6.4996,6.4996,6.4996,6.4996,6.4996,6.4996,6.4996,6.4996,6.4996,6.4996,6.5054,6.5402,6.5983,6.7057,6.7347,6.8305,6.9379,6.9641,6.9931,7.0512,7.086,7.0628,7.0308,6.9728,6.9321,6.9989,7.057,7.1092,7.1324,7.1295,7.1528,7.1731,7.1673,7.1702,7.1992,7.2137,7.176,7.176,7.1789,7.1702,7.1469,7.1353,7.1266,7.0802,7.0018,6.9815,6.9815,6.9554,6.9263,4.4491,4.4683,4.4683,4.5285,4.6223,4.6271,4.6752,4.7377,4.7497,4.7666,4.827,4.9401,5.0333,5.0985,5.095,5.1211,5.1747,5.1886,5.1886,5.2139,5.2416,5.2554,5.2416,5.3189,5.3462,5.3326,5.3598,5.3868,5.3189,5.2804,5.3053,5.3894,5.3681,5.4137,5.5011,5.5062,5.4927,5.5135,5.5555,5.5697,5.604,5.7364,5.7831,5.5992,5.6637,5.6717,5.6524,5.639,5.7038,5.7551,5.806,5.8618,5.9865,6.0865,6.2152,6.3163,6.3436,6.3362,6.372,6.3749,6.3749,6.4009,6.4583,6.4868,6.4996,6.4996,6.4996,6.4996,6.4996,6.4996,6.4996,6.4996,6.4996,6.4996,6.4996,6.4996,6.5112,6.5519,6.6128,6.7347,6.8538,6.9437,7.025,7.0686,7.0976,7.1411,7.1557,7.1266,7.0976,7.0599,7.025,7.0163,7.0686,7.1179,7.1353,7.144,7.1847,7.1992,7.1789,7.1847,7.2108,7.2108,7.1644,7.1324,7.1295,7.1121,7.0802,7.0599,7.0512,7.0105,6.967,6.9525,6.9379,6.9263,6.9002,4.457,4.4347,4.4347,4.4972,4.591,4.5934,4.6439,4.7257,4.7449,4.8052,4.9278,5.0913,5.2412,5.3012,5.2391,5.2554,5.3326,5.3326,5.3326,5.3708,5.4113,5.4113,5.3978,5.4649,5.5181,5.4916,5.5207,5.534,5.5049,5.4782,5.4675,5.534,5.5195,5.5767,5.6641,5.7025,5.6868,5.7409,5.7487,5.7229,5.7266,5.9422,5.8887,5.8159,5.8232,5.8961,5.8309,5.8242,5.9024,5.9645,6.0043,6.0385,6.1308,6.2073,6.3014,6.3901,6.4323,6.4624,6.4711,6.4711,6.4996,6.4996,6.4996,6.4996,6.4996,6.4996,6.4996,6.4996,6.4996,6.4996,6.4996,6.4996,6.4996,6.4996,6.4996,6.4996,6.5083,6.5548,6.6302,6.7551,6.8799,7.0134,7.0918,7.1586,7.2021,7.2369,7.2253,7.1905,7.1557,7.1208,7.0889,7.0599,7.0715,7.1179,7.1469,7.1673,7.2079,7.2253,7.2021,7.1731,7.1818,7.1731,7.1353,7.1121,7.0773,7.0337,6.9902,6.9815,6.9728,6.9466,6.9234,6.9031,6.8886,6.8828,6.8828,4.5403,4.4347,4.4347,4.4948,4.591,4.5934,4.6247,4.7003,4.7437,4.8714,5.0857,5.2748,5.4103,5.4519,5.4381,5.4381,5.4782,5.4782,5.4782,5.4782,5.4916,5.5049,5.5314,5.5867,5.6417,5.5709,5.626,5.6936,5.6963,5.6677,5.6677,5.6915,5.7036,5.7917,5.851,5.8912,5.912,5.9547,5.9627,5.9472,5.9643,6.0772,6.096,6.0114,6.0104,6.0228,5.9663,5.9702,5.992,6.0316,6.056,6.1257,6.215,6.2716,6.3478,6.4405,6.4851,6.4996,6.4996,6.4996,6.4996,6.4996,6.4996,6.4996,6.4996,6.4996,6.4996,6.4996,6.4996,6.4996,6.4996,6.4996,6.4996,6.4996,6.5025,6.5112,6.5257,6.5606,6.6447,6.7725,6.9002,7.025,7.1324,7.1905,7.2224,7.2515,7.2544,7.2195,7.1963,7.1644,7.1295,7.1005,7.0889,7.115,7.1557,7.1876,7.2195,7.2311,7.2195,7.1644,7.1237,7.1063,7.086,7.0308,6.9873,6.9437,6.9205,6.9321,6.9321,6.9031,6.8828,6.8828,6.8828,6.8828,6.8828,4.5864,4.5525,4.5525,4.5477,4.5453,4.663,4.7453,4.7972,4.8516,5.0867,5.3968,5.4525,5.5261,5.5814,5.5314,5.5472,5.6129,5.626,5.626,5.665,5.6936,5.6936,5.7194,5.7478,5.8143,5.7606,5.8143,5.8424,5.8424,5.8325,5.8729,5.875,5.8756,5.9517,6.0254,6.0453,6.062,6.092,6.0975,6.0729,6.091,6.2136,6.2608,6.1443,6.1456,6.124,6.0851,6.0639,6.0617,6.0831,6.0981,6.1733,6.2629,6.308,6.3777,6.4793,6.4967,6.4996,6.4996,6.4996,6.4996,6.4996,6.4996,6.4996,6.4996,6.4996,6.4996,6.4996,6.4996,6.4996,6.4996,6.4996,6.4996,6.4996,6.5054,6.517,6.5489,6.5838,6.6738,6.8102,6.9147,7.025,7.1266,7.2166,7.2398,7.2602,7.2602,7.2544,7.2282,7.2108,7.176,7.1586,7.1498,7.1295,7.1673,7.2021,7.2311,7.2253,7.2224,7.1615,7.0889,7.0366,7.0076,6.9495,6.9205,6.906,6.9031,6.9089,6.9031,6.8886,6.8828,6.8828,6.8828,6.8828,6.8828,4.6917,4.6345,4.7215,4.6939,4.6266,4.7626,4.8528,4.9113,4.9825,5.2358,5.6197,5.6122,5.6677,5.7221,5.6807,5.6677,5.7606,5.7734,5.7761,5.8016,5.8424,5.855,5.8424,5.855,5.8955,5.9205,5.9205,5.908,5.908,5.9402,5.9851,6.0158,6.0199,6.1016,6.1406,6.1725,6.1599,6.2002,6.1947,6.197,6.2033,6.3073,6.3508,6.2393,6.2291,6.2102,6.1652,6.1228,6.1126,6.1334,6.1629,6.2093,6.2761,6.337,6.3951,6.459,6.4996,6.4996,6.4996,6.4996,6.4996,6.4996,6.4996,6.4996,6.4996,6.4996,6.4996,6.4996,6.4996,6.4996,6.4996,6.4996,6.4996,6.4996,6.4996,6.5141,6.5722,6.6186,6.7289,6.8479,6.9495,7.0541,7.1295,7.2195,7.2456,7.2631,7.2602,7.2602,7.2515,7.2398,7.2311,7.2195,7.2195,7.1992,7.1818,7.1905,7.1905,7.1528,7.144,7.1237,7.0657,7.0076,6.9583,6.9234,6.9002,6.8857,6.8886,6.8944,6.8915,6.8828,6.8828,6.8828,6.8828,6.8828,6.8828,4.8416,4.6636,4.9488,4.964,4.8133,4.8603,4.9348,5.0132,5.138,5.3627,5.6576,5.7993,5.8802,5.8955,5.8396,5.855,5.8676,5.8955,5.8955,5.8955,5.8955,5.908,5.908,5.9205,5.9205,5.9205,5.9205,5.9329,5.9233,5.9836,6.0554,6.1359,6.1796,6.2117,6.2099,6.2868,6.3545,6.3834,6.3806,6.3749,6.372,6.4037,6.3637,6.3335,6.2859,6.2697,6.2534,6.1704,6.1507,6.1832,6.1919,6.2325,6.2964,6.3603,6.4241,6.488,6.4967,6.4996,6.4996,6.4996,6.4996,6.4996,6.4996,6.4996,6.4996,6.4996,6.4996,6.4996,6.4996,6.4996,6.4996,6.4996,6.4996,6.5025,6.5025,6.5402,6.6012,6.6651,6.7725,6.8683,6.9844,7.0947,7.1586,7.2166,7.2456,7.2631,7.2631,7.2631,7.2602,7.2573,7.2485,7.2253,7.2224,7.205,7.176,7.1644,7.1469,7.1034,7.0744,7.057,7.0308,6.9786,6.935,6.9002,6.8886,6.8828,6.8828,6.8828,6.8828,6.8828,6.8828,6.8828,6.8828,6.8828,6.8828,4.9448,4.8789,4.9805,5.0344,5.0487,5.0351,5.0783,5.2203,5.4569,5.6679,5.766,5.8828,5.9205,5.9205,5.9205,5.9205,5.9205,5.9205,5.9205,5.9205,5.9205,5.9205,5.9205,5.9329,5.9205,5.9329,5.9329,5.9606,5.9606,6.041,6.1103,6.201,6.2951,6.3464,6.3419,6.3777,6.3965,6.4224,6.4354,6.4354,6.4612,6.4583,6.4496,6.4179,6.3757,6.3439,6.3352,6.2441,6.1948,6.2122,6.218,6.247,6.308,6.3719,6.4328,6.4851,6.4996,6.4996,6.4996,6.4996,6.4996,6.4996,6.4996,6.4996,6.4996,6.4996,6.4996,6.4996,6.4996,6.4996,6.4996,6.4996,6.5025,6.5112,6.5286,6.5925,6.6535,6.7202,6.8044,6.8857,6.9902,7.1034,7.1876,7.1905,7.2166,7.2427,7.2427,7.2573,7.2602,7.2544,7.2456,7.205,7.1876,7.1818,7.1673,7.1266,7.1121,7.0889,7.0424,7.0047,6.9728,6.9437,6.9205,6.8886,6.8857,6.8828,6.8828,6.8828,6.8828,6.8828,6.8828,6.8828,6.8828,6.8828,6.8828,5.0266,4.9901,5.0378,5.0962,5.168,5.1626,5.2443,5.4185,5.6568,5.7856,5.8306,5.8727,5.8896,5.8924,5.9121,5.9329,5.9329,5.9329,5.9454,5.9454,5.9578,5.9578,5.9578,5.9578,5.9578,5.9578,5.973,5.991,6.0223,6.104,6.1965,6.2978,6.3794,6.4181,6.4325,6.4354,6.4354,6.4612,6.474,6.474,6.4868,6.4996,6.4996,6.4764,6.4444,6.4125,6.3864,6.3167,6.2209,6.2354,6.2499,6.2645,6.3196,6.3893,6.4473,6.488,6.4996,6.4996,6.4996,6.4996,6.4996,6.4996,6.4996,6.4996,6.4996,6.4996,6.4996,6.4996,6.4996,6.4996,6.4996,6.4996,6.5141,6.5257,6.5693,6.6302,6.7057,6.7725,6.8247,6.9089,6.9699,7.0889,7.176,7.1789,7.176,7.2021,7.2253,7.2398,7.2544,7.2544,7.2369,7.1876,7.1498,7.1382,7.1092,7.0599,7.0541,7.0657,7.0192,6.9583,6.9379,6.9089,6.8944,6.8828,6.8828,6.8828,6.8828,6.8828,6.8828,6.8828,6.8828,6.8828,6.8828,6.8828,6.8828,5.1072,5.0266,5.132,5.1787,5.1899,5.2407,5.4005,5.6136,5.6451,5.7182,5.8165,5.8221,5.8541,5.8474,5.8952,5.9454,5.9702,5.973,5.9825,6.0071,6.0071,6.0071,6.0071,6.0071,6.0071,6.0071,6.0308,6.0622,6.1108,6.1919,6.3118,6.4051,6.4595,6.474,6.474,6.474,6.474,6.4868,6.4868,6.4996,6.4996,6.4996,6.4996,6.4822,6.4561,6.4502,6.4183,6.3428,6.2906,6.2906,6.3138,6.3138,6.3516,6.4328,6.4764,6.4996,6.4996,6.4996,6.4996,6.4996,6.4996,6.4996,6.4996,6.4996,6.4996,6.4996,6.4996,6.4996,6.4996,6.4996,6.4996,6.517,6.5344,6.5664,6.6041,6.6738,6.7551,6.8131,6.8596,6.9147,6.9554,7.0337,7.0918,7.1092,7.1266,7.1557,7.1789,7.2108,7.2282,7.2573,7.2282,7.1586,7.1237,7.0947,7.0541,7.0018,6.996,7.0105,6.9583,6.906,6.8915,6.8886,6.8857,6.8828,6.8828,6.8828,6.8828,6.8828,6.8828,6.8828,6.8828,6.8828,6.8828,6.8828,6.8828,5.154,5.132,5.1677,5.1787,5.1955,5.2939,5.4091,5.5187,5.6423,5.7154,5.6985,5.8184,5.8588,5.873,5.9541,5.9891,6.0071,6.0071,6.0071,6.0194,6.0316,6.0194,6.0194,6.0287,6.0194,6.0488,6.084,6.1307,6.1738,6.2668,6.3844,6.4723,6.4967,6.4996,6.4996,6.4868,6.4996,6.4996,6.4996,6.4996,6.4996,6.4996,6.4996,6.488,6.4793,6.4822,6.4532,6.398,6.3603,6.369,6.3748,6.3748,6.3864,6.4532,6.4996,6.4996,6.4996,6.4996,6.4996,6.4996,6.4996,6.4996,6.4996,6.4996,6.4996,6.4996,6.4996,6.4996,6.4996,6.4996,6.5199,6.5402,6.5722,6.6157,6.6593,6.7289,6.8015,6.8363,6.8799,6.8973,6.9408,6.9786,7.0308,7.0512,7.0715,7.1005,7.1295,7.1615,7.1963,7.2253,7.2079,7.1382,7.086,7.0541,7.0018,6.9495,6.9525,6.9466,6.906,6.8828,6.8857,6.8857,6.8828,6.8828,6.8828,6.8828,6.8828,6.8828,6.8828,6.8828,6.8828,6.8828,6.8828,6.8828,6.8828,5.2146,5.2452,5.2226,5.2396,5.2989,5.3923,5.4714,5.545,5.6406,5.6745,5.692,5.8093,5.8547,5.8782,5.9615,6.0194,6.0438,6.0438,6.0438,6.0681,6.056,6.0681,6.056,6.0589,6.0883,6.1113,6.1459,6.2014,6.2687,6.3622,6.4706,6.4938,6.4996,6.4996,6.4996,6.4996,6.4996,6.4996,6.4996,6.4996,6.4996,6.4996,6.4996,6.4996,6.4996,6.4996,6.4909,6.4357,6.4212,6.427,6.427,6.4183,6.4299,6.4822,6.4996,6.4996,6.4996,6.4996,6.4996,6.4996,6.4996,6.4996,6.4996,6.4996,6.4996,6.4996,6.4996,6.4996,6.4996,6.5083,6.5373,6.5722,6.6215,6.6709,6.7289,6.7899,6.8276,6.8596,6.877,6.8857,6.9147,6.9603,6.9894,6.9931,7.0105,7.0337,7.057,7.0831,7.1295,7.1789,7.1586,7.1034,7.0541,7.0076,6.9554,6.9147,6.9176,6.9176,6.9002,6.8828,6.8828,6.8828,6.8828,6.8828,6.8828,6.8828,6.8828,6.8828,6.8828,6.8828,6.8828,6.8828,6.8828,6.8828,6.8828,5.2807,5.3537,5.2994,5.3423,5.4537,5.5166,5.5794,5.6366,5.6278,5.6534,5.7337,5.7965,5.8251,5.8451,5.9514,6.0301,6.0537,6.0595,6.0802,6.1193,6.1044,6.1073,6.1073,6.128,6.1478,6.1826,6.247,6.2985,6.398,6.4561,6.4851,6.4996,6.4996,6.4996,6.4996,6.4996,6.4996,6.4996,6.4996,6.4996,6.4996,6.4996,6.4996,6.4996,6.4996,6.4967,6.4851,6.4619,6.4386,6.4619,6.4648,6.4502,6.4735,6.4938,6.4996,6.4996,6.4996,6.4996,6.4996,6.4996,6.4996,6.4996,6.4996,6.4996,6.4996,6.4996,6.4996,6.4996,6.4996,6.5414,6.5734,6.607,6.6564,6.7173,6.7945,6.8276,6.8567,6.8876,6.9039,6.9127,6.9185,6.9476,6.9476,6.9516,6.9632,6.9806,7.0234,7.0526,7.0679,7.1261,7.0976,7.0599,7.0279,6.9786,6.9263,6.8944,6.8915,6.8857,6.8828,6.8828,6.8828,6.8828,6.8828,6.8828,6.8828,6.8828,6.8828,6.8828,6.8828,6.8828,6.8828,6.8828,6.8828,6.8828,6.8828,5.2944,5.3594,5.3452,5.3852,5.4566,5.5194,5.6078,5.6737,5.6766,5.6623,5.6852,5.7512,5.7973,5.8203,5.959,6.0287,6.0435,6.0899,6.1044,6.1193,6.1193,6.1251,6.1309,6.1629,6.1948,6.2383,6.3022,6.3893,6.4532,6.488,6.4996,6.4996,6.4996,6.4996,6.4996,6.4996,6.4996,6.4996,6.4996,6.4996,6.4996,6.4996,6.4996,6.4996,6.4996,6.4996,6.4909,6.4909,6.5141,6.546,6.5054,6.4909,6.4967,6.4996,6.4996,6.4996,6.4996,6.4996,6.4996,6.4996,6.4996,6.4996,6.4996,6.4996,6.4996,6.4996,6.4996,6.4996,6.5269,6.5746,6.6183,6.6549,6.7101,6.7799,6.8544,6.8672,6.8799,6.9068,6.9337,6.9337,6.9366,6.9337,6.9203,6.9232,6.929,6.9717,7.0262,7.0661,7.039,7.0604,7.0359,7.0097,6.9989,6.9583,6.906,6.8828,6.8828,6.8828,6.8828,6.8828,6.8828,6.8828,6.8828,6.8828,6.8828,6.8828,6.8828,6.8828,6.8828,6.8828,6.8828,6.8828,6.8828,6.8828,6.8828,5.3267,5.3949,5.4237,5.4553,5.4984,5.5929,5.6647,5.7049,5.7107,5.6964,5.6966,5.7599,5.8061,5.8263,5.9508,6.0177,6.0293,6.0903,6.1135,6.1193,6.1251,6.1425,6.1658,6.2006,6.2558,6.3051,6.3893,6.4648,6.4938,6.4996,6.4996,6.4996,6.4996,6.4996,6.4996,6.4996,6.4996,6.4996,6.4996,6.4996,6.4996,6.4996,6.4996,6.4996,6.4996,6.4996,6.5112,6.5199,6.5577,6.5809,6.5519,6.5199,6.5112,6.4996,6.4996,6.4996,6.4996,6.4996,6.4996,6.4996,6.4996,6.4996,6.4996,6.4996,6.5222,6.5222,6.5222,6.528,6.5717,6.6195,6.7067,6.7624,6.8239,6.8913,6.9177,6.9382,6.947,6.9737,6.9737,6.9737,6.9737,6.9869,6.9737,6.9604,6.9662,6.9662,7.0341,7.043,7.0162,7.0115,6.998,6.968,6.9739,6.9379,6.8973,6.8828,6.8828,6.8828,6.8828,6.8828,6.8828,6.8828,6.8828,6.8828,6.8828,6.8828,6.8828,6.8828,6.8828,6.8828,6.8828,6.8828,6.8828,6.8828,6.8828,5.3724,5.4575,5.5155,5.5474,5.5707,5.6781,5.7303,5.7303,5.7303,5.7303,5.7361,5.7884,5.8145,5.861,5.9335,5.98,6.0235,6.0642,6.0903,6.1222,6.1338,6.16,6.1977,6.2383,6.3167,6.3864,6.459,6.4822,6.4996,6.4996,6.4996,6.4996,6.4996,6.4996,6.4996,6.4996,6.4996,6.4996,6.4996,6.4996,6.4996,6.4996,6.4996,6.4996,6.4996,6.4996,6.517,6.5489,6.5867,6.5896,6.5838,6.546,6.517,6.4996,6.4996,6.4996,6.4996,6.4996,6.4996,6.5124,6.5124,6.5124,6.5124,6.5251,6.5475,6.5601,6.5601,6.5924,6.6363,6.6961,6.7706,6.8484,6.9132,6.9634,6.9781,6.9869,7.0002,7.0134,7.0134,7.0002,7.0134,7.0265,7.0134,7.0002,7.0002,7.0002,7.0002,7.0002,7.0061,7.0076,7.0031,6.9734,6.9629,6.9349,6.8828,6.8828,6.8828,6.8828,6.8828,6.8828,6.8828,6.8828,6.8828,6.8828,6.8828,6.8828,6.8828,6.8828,6.8828,6.8828,6.8828,6.8828,6.8828,6.8828,6.8828,5.3801,5.4575,5.5155,5.5707,5.6287,5.6984,5.7303,5.7303,5.7303,5.7303,5.7361,5.7361,5.7477,5.7536,5.8261,5.89,5.9568,6.0148,6.0787,6.1135,6.16,6.189,6.2412,6.3196,6.4038,6.4561,6.488,6.4938,6.4996,6.4996,6.4996,6.4996,6.4996,6.4996,6.4996,6.4996,6.4996,6.4996,6.4996,6.4996,6.4996,6.4996,6.4996,6.4996,6.4996,6.4996,6.517,6.5635,6.5838,6.5925,6.5838,6.5489,6.5228,6.4996,6.4996,6.4996,6.4996,6.5124,6.5094,6.5222,6.5348,6.5378,6.5504,6.5756,6.5882,6.5882,6.6184,6.6908,6.7323,6.7521,6.824,6.8761,6.9382,6.9867,7.0104,7.0265,7.0265,7.0397,7.0397,7.0397,7.0397,7.0397,7.0397,7.0265,7.0265,7.0397,7.0528,7.0528,7.0265,7.0134,6.9972,6.9869,6.9604,6.9203,6.8934,6.8963,6.8963,6.8828,6.8828,6.8828,6.8828,6.8828,6.8828,6.8828,6.8828,6.8828,6.8828,6.8828,6.8828,6.8828,6.8828,6.8828,6.8828,6.8828,6.8828]},{"header":{"parameterUnit":"m.s-1","parameterCategory":1,"la1":31.0,"la2":29.5877,"lo1":-88.7671,"lo2":-86.6584,"dx":0.0162,"dy":0.0185,"nx":115,"ny":88,"refTime":"2023-01-02T18:00:00:Z","depth":0,"parameterNumber":3,"parameterNumberName":"V-component_of_WINDS"},"data":[0.0,0.0,0.0,0.0,0.0,0.0,0.0,0.0,0.0,0.0,0.0,0.0,0.0,0.0,0.0,0.0,0.0,0.0,0.0,0.0,0.0,0.0,0.0,0.0,0.0,0.0,0.0,0.0,0.0,0.0,0.0,0.0,0.0,0.0,0.0,0.0,0.0,0.0,0.0,0.0,0.0,0.0,0.0,0.0,0.0,0.0,0.0,0.0,0.0,0.0,0.0,0.0,0.0,0.0,0.0,0.0,0.0,0.0,0.0,0.0,0.0,0.0,0.0,0.0,0.0,0.0,0.0,0.0,0.0,0.0,0.0,0.0,0.0,0.0,0.0,0.0,0.0,0.0,0.0,0.0,0.0,0.0,0.0,0.0,0.0,0.0,0.0,0.0,0.0,0.0,0.0,0.0,0.0,0.0,0.0,0.0,0.0,0.0,0.0,0.0,0.0,0.0,0.0,0.0,0.0,0.0,0.0,0.0,0.0,0.0,0.0,0.0,0.0,0.0,0.0,0.0,0.0,0.0,0.0,0.0,0.0,0.0,0.0,0.0,0.0,0.0,0.0,0.0,0.0,0.0,0.0,0.0,0.0,0.0,0.0,0.0,0.0,0.0,0.0,0.0,0.0,0.0,0.0,0.0,0.0,0.0,0.0,0.0,0.0,0.0,0.0,0.0,0.0,0.0,0.0,0.0,0.0,0.0,0.0,0.0,0.0,0.0,0.0,0.0,0.0,0.0,0.0,0.0,0.0,0.0,0.0,0.0,0.0,0.0,0.0,0.0,0.0,0.0,0.0,0.0,0.0,0.0,0.0,0.0,0.0,0.0,0.0,0.0,0.0,0.0,0.0,0.0,0.0,0.0,0.0,0.0,0.0,0.0,0.0,0.0,0.0,0.0,0.0,0.0,0.0,0.0,0.0,0.0,0.0,0.0,0.0,0.0,0.0,0.0,0.0,0.0,0.0,0.0,0.0,0.0,0.0,0.0,0.0,0.0,0.0,0.0,0.0,0.0,0.0,0.0,0.0,0.0,0.0,0.0,0.0,0.0,0.0,0.0,0.0,0.0,0.0,0.0,0.0,0.0,0.0,0.0,0.0,0.0,0.0,0.0,0.0,0.0,0.0,0.0,0.0,0.0,0.0,0.0,0.0,0.0,0.0,0.0,0.0,0.0,0.0,0.0,0.0,0.0,0.0,0.0,0.0,0.0,0.0,0.0,0.0,0.0,0.0,0.0,0.0,0.0,0.0,0.0,0.0,0.0,0.0,0.0,0.0,0.0,0.0,0.0,0.0,0.0,0.0,0.0,0.0,0.0,0.0,0.0,0.0,0.0,0.0,0.0,0.0,0.0,0.0,0.0,0.0,0.0,0.0,0.0,0.0,0.0,0.0,0.0,0.0,0.0,0.0,0.0,0.0,0.0,0.0,0.0,0.0,0.0,0.0,0.0,0.0,0.0,0.0,0.0,0.0,0.0,0.0,0.0,0.0,0.0,0.0,0.0,0.0,0.0,0.0,0.0,0.0,0.0,0.0,0.0,0.0,0.0,0.0,0.0,0.0,0.0,0.0,0.0,0.0,0.0,0.0,0.0,0.0,0.0,0.0,0.0,0.0,0.0,0.0,0.0,0.0,0.0,0.0,0.0,0.0,0.0,0.0,0.0,0.0,0.0,0.0,0.0,0.0,0.0,0.0,0.0,0.0,0.0,0.0,0.0,0.0,0.0,0.0,0.0,0.0,0.0,0.0,0.0,0.0,0.0,0.0,0.0,0.0,0.0,0.0,0.0,0.0,0.0,0.0,0.0,0.0,0.0,0.0,0.0,0.0,0.0,0.0,0.0,0.0,0.0,0.0,0.0,0.0,0.0,0.0,0.0,0.0,0.0,0.0,0.0,0.0,0.0,0.0,0.0,0.0,0.0,0.0,0.0,0.0,0.0,0.0,0.0,0.0,0.0,0.0,0.0,0.0,0.0,0.0,0.0,0.0,0.0,0.0,0.0,0.0,0.0,0.0,0.0,0.0,0.0,0.0,0.0,0.0,0.0,0.0,0.0,0.0,0.0,0.0,0.0,0.0,0.0,0.0,0.0,0.0,0.0,0.0,0.0,0.0,0.0,0.0,0.0,0.0,0.0,0.0,0.0,0.0,0.0,0.0,0.0,0.0,0.0,0.0,0.0,0.0,0.0,0.0,0.0,0.0,0.0,0.0,0.0,0.0,0.0,0.0,0.0,0.0,0.0,0.0,0.0,0.0,0.0,0.0,0.0,0.0,0.0,0.0,0.0,0.0,0.0,0.0,0.0,0.0,0.0,0.0,0.0,0.0,0.0,0.0,0.0,0.0,0.0,0.0,0.0,0.0,0.0,0.0,0.0,0.0,0.0,0.0,0.0,0.0,0.0,0.0,0.0,0.0,0.0,0.0,0.0,0.0,0.0,0.0,0.0,0.0,0.0,0.0,0.0,0.0,0.0,0.0,0.0,0.0,0.0,0.0,0.0,0.0,0.0,0.0,0.0,0.0,0.0,0.0,0.0,0.0,0.0,0.0,0.0,0.0,0.0,0.0,0.0,0.0,0.0,0.0,0.0,0.0,0.0,0.0,0.0,0.0,0.0,0.0,0.0,0.0,0.0,0.0,0.0,0.0,0.0,0.0,0.0,0.0,0.0,0.0,0.0,0.0,0.0,0.0,0.0,0.0,0.0,0.0,0.0,0.0,0.0,0.0,0.0,0.0,0.0,0.0,0.0,0.0,0.0,0.0,0.0,0.0,0.0,0.0,0.0,0.0,0.0,0.0,0.0,0.0,0.0,0.0,0.0,0.0,0.0,0.0,0.0,0.0,0.0,0.0,0.0,0.0,0.0,0.0,0.0,0.0,0.0,0.0,0.0,0.0,0.0,0.0,0.0,0.0,0.0,0.0,0.0,0.0,0.0,0.0,0.0,0.0,0.0,0.0,0.0,0.0,0.0,0.0,0.0,0.0,0.0,0.0,0.0,0.0,0.0,0.0,0.0,0.0,0.0,0.0,0.0,0.0,0.0,0.0,0.0,0.0,0.0,0.0,0.0,0.0,0.0,0.0,0.0,0.0,0.0,0.0,0.0,0.0,0.0,0.0,0.0,0.0,0.0,0.0,0.0,0.0,0.0,0.0,0.0,0.0,0.0,0.0,0.0,0.0,0.0,0.0,0.0,0.0,0.0,0.0,0.0,0.0,0.0,0.0,0.0,0.0,0.0,0.0,0.0,0.0,0.0,0.0,0.0,0.0,0.0,0.0,0.0,0.0,0.0,0.0,0.0,0.0,0.0,0.0,0.0,0.0,0.0,0.0,0.0,0.0,0.0,0.0,0.0,0.0,0.0,0.0,0.0,0.0,0.0,0.0,0.0,0.0,0.0,0.0,0.0,0.0,0.0,0.0,0.0,0.0,0.0,0.0,0.0,0.0,0.0,0.0,0.0,0.0,0.0,0.0,0.0,0.0,0.0,0.0,0.0,0.0,0.0,0.0,0.0,0.0,0.0,0.0,0.0,0.0,0.0,0.0,0.0,0.0,0.0,0.0,0.0,0.0,0.0,0.0,0.0,0.0,0.0,0.0,0.0,0.0,0.0,0.0,0.0,0.0,0.0,0.0,0.0,0.0,0.0,0.0,0.0,0.0,0.0,0.0,0.0,0.0,0.0,0.0,0.0,0.0,0.0,0.0,0.0,0.0,0.0,0.0,0.0,0.0,0.0,0.0,0.0,0.0,0.0,0.0,0.0,0.0,0.0,0.0,0.0,0.0,0.0,0.0,0.0,0.0,0.0,0.0,0.0,0.0,0.0,0.0,0.0,0.0,0.0,0.0,0.0,0.0,0.0,0.0,0.0,0.0,0.0,0.0,0.0,0.0,0.0,0.0,0.0,0.0,0.0,0.0,0.0,0.0,0.0,0.0,0.0,0.0,0.0,0.0,0.0,0.0,0.0,0.0,0.0,0.0,0.0,0.0,0.0,0.0,0.0,0.0,0.0,0.0,0.0,0.0,0.0,0.0,0.0,0.0,0.0,0.0,0.0,0.0,0.0,0.0,0.0,0.0,0.0,0.0,0.0,0.0,0.0,0.0,0.0,0.0,0.0,0.0,0.0,0.0,0.0,0.0,0.0,0.0,0.0,0.0,0.0,0.0,0.0,0.0,0.0,0.0,0.0,0.0,0.0,0.0,0.0,0.0,0.0,0.0,0.0,0.0,0.0,0.0,0.0,0.0,0.0,0.0,0.0,0.0,0.0,0.0,0.0,-2.1531,0.0,0.0,0.0,-2.3108,0.0,0.0,0.0,0.0,0.0,0.0,0.0,0.0,0.0,0.0,0.0,0.0,0.0,0.0,0.0,0.0,0.0,0.0,0.0,0.0,0.0,0.0,0.0,0.0,0.0,0.0,0.0,0.0,0.0,0.0,0.0,0.0,0.0,0.0,0.0,0.0,0.0,0.0,0.0,0.0,0.0,0.0,0.0,0.0,0.0,0.0,0.0,0.0,0.0,0.0,0.0,0.0,0.0,0.0,0.0,0.0,0.0,0.0,0.0,0.0,0.0,0.0,0.0,0.0,0.0,0.0,0.0,0.0,0.0,0.0,0.0,0.0,0.0,0.0,0.0,0.0,0.0,0.0,0.0,0.0,0.0,0.0,0.0,0.0,0.0,0.0,0.0,0.0,0.0,0.0,0.0,0.0,0.0,0.0,0.0,0.0,0.0,0.0,0.0,0.0,0.0,0.0,0.0,0.0,0.0,0.0,0.0,0.0,0.0,0.0,-2.1832,-2.005,-2.435,-2.5316,-2.2246,0.0,0.0,0.0,0.0,0.0,0.0,0.0,0.0,0.0,0.0,0.0,0.0,0.0,0.0,0.0,0.0,0.0,0.0,0.0,0.0,0.0,0.0,0.0,0.0,0.0,0.0,0.0,0.0,0.0,0.0,0.0,0.0,0.0,0.0,0.0,0.0,0.0,0.0,0.0,0.0,0.0,0.0,0.0,0.0,0.0,0.0,0.0,0.0,0.0,0.0,0.0,0.0,0.0,0.0,0.0,0.0,0.0,0.0,0.0,0.0,0.0,0.0,0.0,0.0,0.0,0.0,0.0,0.0,0.0,0.0,0.0,0.0,0.0,0.0,0.0,0.0,0.0,0.0,0.0,0.0,0.0,0.0,0.0,0.0,0.0,0.0,0.0,0.0,0.0,0.0,0.0,0.0,0.0,0.0,0.0,0.0,0.0,0.0,0.0,0.0,0.0,0.0,0.0,0.0,0.0,0.0,0.0,0.0,0.0,0.0,0.0,0.0,-2.5143,-2.5764,-2.2522,0.0,0.0,0.0,0.0,0.0,0.0,0.0,0.0,0.0,0.0,0.0,0.0,0.0,0.0,0.0,0.0,0.0,0.0,0.0,0.0,0.0,0.0,0.0,0.0,0.0,0.0,0.0,0.0,0.0,0.0,0.0,0.0,0.0,0.0,0.0,0.0,0.0,0.0,0.0,0.0,0.0,0.0,0.0,0.0,0.0,0.0,0.0,0.0,0.0,0.0,0.0,0.0,0.0,0.0,0.0,0.0,0.0,0.0,0.0,0.0,0.0,0.0,0.0,0.0,0.0,0.0,0.0,0.0,0.0,0.0,0.0,0.0,0.0,0.0,0.0,0.0,0.0,0.0,0.0,0.0,0.0,0.0,0.0,0.0,0.0,0.0,0.0,0.0,0.0,0.0,0.0,0.0,0.0,0.0,0.0,0.0,0.0,0.0,0.0,0.0,0.0,0.0,0.0,0.0,0.0,0.0,0.0,0.0,0.0,0.0,-2.1531,-2.346,-2.5937,0.0,-2.4729,0.0,0.0,0.0,0.0,0.0,0.0,0.0,0.0,0.0,0.0,0.0,0.0,0.0,0.0,0.0,0.0,0.0,0.0,0.0,0.0,0.0,0.0,0.0,0.0,0.0,0.0,0.0,0.0,0.0,0.0,0.0,0.0,0.0,0.0,0.0,0.0,0.0,0.0,0.0,0.0,0.0,0.0,0.0,0.0,0.0,0.0,0.0,0.0,0.0,0.0,0.0,0.0,0.0,0.0,0.0,0.0,0.0,0.0,0.0,0.0,0.0,0.0,0.0,0.0,0.0,0.0,0.0,0.0,0.0,0.0,0.0,0.0,0.0,0.0,0.0,0.0,0.0,0.0,0.0,0.0,0.0,0.0,0.0,0.0,0.0,0.0,0.0,0.0,0.0,0.0,0.0,0.0,0.0,0.0,0.0,0.0,0.0,0.0,0.0,0.0,0.0,0.0,0.0,0.0,0.0,0.0,0.0,0.0,0.0,0.0,-2.2358,-2.5109,-2.5665,-2.539,0.0,0.0,0.0,0.0,0.0,0.0,0.0,0.0,0.0,0.0,0.0,0.0,0.0,0.0,0.0,0.0,0.0,0.0,0.0,0.0,0.0,0.0,0.0,0.0,0.0,0.0,0.0,0.0,0.0,0.0,0.0,0.0,0.0,0.0,0.0,0.0,0.0,0.0,0.0,0.0,0.0,0.0,0.0,0.0,0.0,0.0,0.0,0.0,0.0,0.0,0.0,0.0,0.0,0.0,0.0,0.0,0.0,0.0,0.0,0.0,0.0,0.0,0.0,0.0,0.0,0.0,0.0,0.0,0.0,0.0,0.0,0.0,0.0,0.0,0.0,0.0,0.0,0.0,0.0,0.0,0.0,0.0,0.0,0.0,0.0,0.0,0.0,0.0,0.0,0.0,0.0,0.0,0.0,0.0,0.0,0.0,0.0,0.0,0.0,0.0,0.0,0.0,0.0,0.0,0.0,0.0,0.0,0.0,0.0,0.0,-2.2297,-2.4046,-2.7109,-2.5979,-2.4952,-2.4396,0.0,0.0,0.0,0.0,0.0,0.0,0.0,0.0,0.0,0.0,0.0,0.0,0.0,0.0,0.0,0.0,0.0,0.0,0.0,0.0,0.0,0.0,0.0,0.0,0.0,0.0,0.0,0.0,0.0,0.0,0.0,0.0,0.0,0.0,0.0,0.0,0.0,0.0,0.0,0.0,0.0,0.0,0.0,0.0,0.0,0.0,0.0,0.0,0.0,0.0,0.0,0.0,0.0,0.0,0.0,0.0,0.0,0.0,0.0,0.0,0.0,0.0,0.0,0.0,0.0,0.0,0.0,0.0,0.0,0.0,0.0,0.0,0.0,0.0,0.0,0.0,0.0,0.0,0.0,0.0,0.0,0.0,0.0,0.0,0.0,0.0,0.0,0.0,0.0,0.0,0.0,0.0,0.0,0.0,0.0,0.0,0.0,0.0,0.0,0.0,0.0,0.0,0.0,0.0,0.0,0.0,0.0,0.0,-2.5527,-2.5148,-2.6661,-3.0213,-2.753,-2.5953,0.0,0.0,0.0,0.0,0.0,0.0,0.0,0.0,0.0,0.0,0.0,0.0,0.0,0.0,0.0,0.0,0.0,0.0,0.0,0.0,0.0,0.0,0.0,0.0,0.0,0.0,0.0,0.0,0.0,0.0,0.0,0.0,0.0,0.0,0.0,0.0,0.0,0.0,0.0,0.0,0.0,0.0,0.0,0.0,0.0,0.0,0.0,0.0,0.0,0.0,0.0,0.0,0.0,0.0,0.0,0.0,0.0,0.0,0.0,0.0,0.0,0.0,0.0,0.0,0.0,0.0,0.0,0.0,0.0,0.0,0.0,0.0,0.0,0.0,0.0,0.0,0.0,0.0,0.0,0.0,0.0,0.0,0.0,0.0,0.0,0.0,0.0,0.0,0.0,0.0,0.0,0.0,0.0,0.0,0.0,0.0,0.0,0.0,0.0,0.0,0.0,0.0,0.0,0.0,0.0,0.0,0.0,0.0,0.0,-2.4569,-2.7152,-2.887,-2.9659,-2.8665,-2.7672,0.0,0.0,0.0,0.0,0.0,0.0,0.0,0.0,0.0,0.0,0.0,0.0,0.0,0.0,0.0,0.0,0.0,0.0,0.0,0.0,0.0,0.0,0.0,0.0,0.0,0.0,0.0,0.0,0.0,0.0,0.0,0.0,0.0,0.0,0.0,0.0,0.0,0.0,0.0,0.0,0.0,0.0,0.0,0.0,0.0,0.0,0.0,0.0,0.0,0.0,0.0,0.0,0.0,0.0,0.0,0.0,0.0,0.0,0.0,0.0,0.0,0.0,0.0,0.0,0.0,0.0,0.0,0.0,0.0,0.0,0.0,0.0,0.0,0.0,0.0,0.0,0.0,0.0,0.0,0.0,0.0,0.0,0.0,0.0,0.0,0.0,0.0,0.0,0.0,0.0,0.0,0.0,0.0,0.0,0.0,0.0,0.0,0.0,0.0,0.0,0.0,0.0,0.0,0.0,0.0,0.0,0.0,0.0,0.0,-2.5949,-2.9695,-3.1376,-3.0791,-2.9829,-2.8733,0.0,0.0,0.0,0.0,0.0,0.0,0.0,0.0,0.0,0.0,0.0,0.0,0.0,0.0,0.0,0.0,0.0,0.0,0.0,0.0,0.0,0.0,0.0,0.0,0.0,0.0,0.0,0.0,0.0,0.0,0.0,0.0,0.0,0.0,0.0,0.0,0.0,0.0,0.0,0.0,0.0,0.0,0.0,0.0,0.0,0.0,0.0,0.0,0.0,0.0,0.0,0.0,0.0,0.0,0.0,0.0,0.0,0.0,0.0,0.0,0.0,0.0,0.0,0.0,0.0,0.0,0.0,0.0,0.0,0.0,0.0,0.0,0.0,0.0,0.0,0.0,0.0,0.0,0.0,0.0,0.0,0.0,0.0,0.0,0.0,0.0,0.0,0.0,0.0,0.0,0.0,0.0,0.0,0.0,0.0,0.0,0.0,0.0,0.0,0.0,0.0,0.0,0.0,0.0,0.0,0.0,0.0,0.0,-2.5141,-3.0245,-3.2693,-3.3869,-3.3973,-3.1003,-2.9111,0.0,0.0,0.0,0.0,0.0,0.0,0.0,0.0,0.0,0.0,0.0,0.0,0.0,0.0,0.0,0.0,0.0,0.0,0.0,0.0,0.0,0.0,0.0,0.0,0.0,0.0,0.0,0.0,0.0,0.0,0.0,0.0,0.0,0.0,0.0,0.0,0.0,0.0,0.0,0.0,0.0,0.0,0.0,0.0,0.0,0.0,0.0,0.0,0.0,0.0,0.0,0.0,0.0,0.0,0.0,0.0,0.0,0.0,0.0,0.0,0.0,0.0,0.0,0.0,0.0,0.0,0.0,0.0,0.0,0.0,0.0,0.0,0.0,0.0,0.0,0.0,0.0,0.0,0.0,0.0,0.0,0.0,0.0,0.0,0.0,0.0,0.0,0.0,0.0,0.0,0.0,0.0,0.0,0.0,0.0,0.0,0.0,0.0,0.0,0.0,0.0,0.0,0.0,0.0,0.0,0.0,0.0,0.0,0.0,-2.9588,-3.1884,-3.3048,-3.298,-3.1056,-2.9858,0.0,0.0,0.0,0.0,0.0,0.0,0.0,0.0,0.0,0.0,0.0,0.0,0.0,0.0,0.0,0.0,0.0,0.0,0.0,0.0,0.0,0.0,0.0,0.0,0.0,0.0,0.0,0.0,0.0,0.0,0.0,0.0,0.0,0.0,0.0,0.0,0.0,0.0,0.0,0.0,0.0,0.0,0.0,0.0,0.0,0.0,0.0,0.0,0.0,0.0,0.0,0.0,0.0,0.0,0.0,0.0,0.0,0.0,0.0,0.0,0.0,0.0,0.0,0.0,0.0,0.0,0.0,0.0,0.0,0.0,0.0,0.0,0.0,0.0,0.0,0.0,0.0,0.0,0.0,0.0,0.0,0.0,0.0,0.0,0.0,0.0,0.0,0.0,0.0,0.0,0.0,0.0,0.0,0.0,0.0,0.0,0.0,0.0,0.0,0.0,0.0,0.0,0.0,0.0,0.0,0.0,0.0,0.0,0.0,-3.0499,-3.2638,-3.3775,-3.3575,-3.1958,-3.0832,-3.0268,0.0,0.0,0.0,0.0,0.0,0.0,0.0,0.0,0.0,0.0,0.0,0.0,0.0,0.0,0.0,0.0,0.0,0.0,0.0,0.0,0.0,0.0,0.0,0.0,0.0,0.0,0.0,0.0,0.0,0.0,0.0,0.0,0.0,0.0,0.0,0.0,0.0,0.0,0.0,0.0,0.0,0.0,0.0,0.0,0.0,0.0,0.0,0.0,0.0,0.0,0.0,0.0,0.0,0.0,0.0,0.0,0.0,0.0,0.0,0.0,0.0,0.0,0.0,0.0,0.0,0.0,0.0,0.0,0.0,0.0,0.0,0.0,0.0,0.0,0.0,0.0,0.0,0.0,0.0,0.0,0.0,0.0,0.0,0.0,0.0,0.0,0.0,0.0,0.0,0.0,0.0,0.0,0.0,0.0,0.0,0.0,0.0,0.0,0.0,0.0,0.0,0.0,0.0,0.0,0.0,0.0,0.0,0.0,-3.2595,-3.4834,-3.5654,-3.5081,-3.3405,-3.1827,0.0,0.0,0.0,0.0,0.0,0.0,0.0,0.0,0.0,0.0,0.0,0.0,0.0,0.0,0.0,0.0,0.0,0.0,0.0,0.0,0.0,0.0,0.0,0.0,0.0,0.0,0.0,0.0,0.0,0.0,0.0,0.0,0.0,0.0,0.0,0.0,0.0,0.0,0.0,0.0,0.0,0.0,0.0,0.0,0.0,0.0,0.0,0.0,0.0,0.0,0.0,0.0,0.0,0.0,0.0,0.0,0.0,0.0,0.0,0.0,0.0,0.0,0.0,0.0,0.0,0.0,0.0,0.0,0.0,0.0,0.0,0.0,0.0,0.0,0.0,0.0,0.0,0.0,0.0,0.0,0.0,0.0,0.0,0.0,0.0,0.0,0.0,0.0,0.0,0.0,0.0,0.0,0.0,0.0,0.0,0.0,0.0,0.0,0.0,0.0,0.0,0.0,0.0,0.0,0.0,0.0,0.0,0.0,0.0,-3.5043,-3.5341,-3.4869,-3.3802,-3.2681,-3.1584,0.0,0.0,0.0,0.0,0.0,0.0,0.0,0.0,0.0,0.0,0.0,0.0,0.0,0.0,0.0,0.0,0.0,0.0,0.0,0.0,0.0,0.0,0.0,0.0,0.0,0.0,0.0,0.0,0.0,0.0,0.0,0.0,0.0,0.0,0.0,0.0,0.0,0.0,0.0,0.0,0.0,0.0,0.0,0.0,0.0,0.0,0.0,0.0,0.0,0.0,0.0,0.0,0.0,0.0,0.0,0.0,0.0,0.0,0.0,0.0,0.0,0.0,0.0,0.0,0.0,0.0,0.0,0.0,0.0,0.0,0.0,0.0,0.0,0.0,0.0,0.0,0.0,0.0,0.0,0.0,0.0,0.0,0.0,0.0,0.0,0.0,0.0,0.0,0.0,0.0,0.0,0.0,0.0,0.0,0.0,0.0,0.0,0.0,0.0,0.0,0.0,0.0,0.0,0.0,0.0,0.0,0.0,0.0,-3.2177,-3.5324,-3.4934,-3.4325,-3.3636,-3.3117,-3.2101,0.0,0.0,0.0,0.0,0.0,0.0,0.0,0.0,0.0,0.0,0.0,0.0,0.0,0.0,0.0,0.0,0.0,0.0,0.0,0.0,0.0,0.0,0.0,0.0,0.0,0.0,0.0,0.0,0.0,0.0,0.0,0.0,0.0,0.0,0.0,0.0,0.0,0.0,0.0,0.0,0.0,0.0,0.0,0.0,0.0,0.0,0.0,0.0,0.0,0.0,0.0,0.0,0.0,0.0,0.0,0.0,0.0,0.0,0.0,0.0,0.0,0.0,0.0,0.0,0.0,0.0,0.0,0.0,0.0,0.0,0.0,0.0,0.0,0.0,0.0,0.0,0.0,0.0,0.0,0.0,0.0,0.0,0.0,0.0,0.0,0.0,0.0,0.0,0.0,0.0,0.0,0.0,0.0,0.0,0.0,0.0,0.0,0.0,0.0,0.0,0.0,0.0,0.0,0.0,0.0,0.0,0.0,0.0,-3.1748,-3.4727,-3.4362,-3.4212,-3.4443,-3.4225,-3.297,0.0,0.0,0.0,0.0,0.0,0.0,0.0,0.0,0.0,0.0,0.0,0.0,0.0,0.0,0.0,0.0,0.0,0.0,0.0,0.0,0.0,0.0,0.0,0.0,0.0,0.0,0.0,0.0,0.0,0.0,0.0,0.0,0.0,0.0,0.0,0.0,0.0,0.0,0.0,0.0,0.0,0.0,0.0,0.0,0.0,0.0,0.0,0.0,0.0,0.0,0.0,0.0,0.0,0.0,0.0,0.0,0.0,0.0,0.0,0.0,0.0,0.0,0.0,0.0,0.0,0.0,0.0,0.0,0.0,0.0,0.0,0.0,0.0,0.0,0.0,0.0,0.0,0.0,0.0,0.0,0.0,0.0,0.0,0.0,0.0,0.0,0.0,0.0,0.0,0.0,0.0,0.0,0.0,0.0,0.0,0.0,0.0,0.0,0.0,0.0,0.0,0.0,0.0,0.0,0.0,0.0,0.0,0.0,-3.4355,-3.7904,-3.5974,-3.5584,-3.7077,-3.5135,-3.2849,0.0,0.0,0.0,0.0,0.0,0.0,0.0,0.0,0.0,0.0,0.0,0.0,0.0,0.0,0.0,0.0,0.0,0.0,0.0,0.0,0.0,0.0,0.0,0.0,0.0,0.0,0.0,0.0,0.0,0.0,0.0,0.0,0.0,0.0,0.0,0.0,0.0,0.0,0.0,0.0,0.0,0.0,0.0,0.0,0.0,0.0,0.0,0.0,-2.8972,0.0,0.0,0.0,0.0,0.0,0.0,0.0,0.0,0.0,0.0,0.0,0.0,0.0,0.0,0.0,0.0,0.0,0.0,0.0,0.0,0.0,0.0,0.0,0.0,0.0,0.0,0.0,0.0,0.0,0.0,0.0,0.0,0.0,0.0,0.0,0.0,0.0,0.0,0.0,0.0,0.0,0.0,0.0,0.0,0.0,0.0,0.0,0.0,0.0,0.0,0.0,0.0,0.0,0.0,0.0,0.0,0.0,0.0,0.0,-3.4984,-3.7695,-3.6451,-3.6226,-3.709,-3.5262,-3.319,0.0,0.0,0.0,0.0,0.0,0.0,0.0,0.0,0.0,0.0,0.0,0.0,0.0,0.0,0.0,0.0,0.0,0.0,0.0,0.0,0.0,0.0,0.0,0.0,0.0,0.0,0.0,0.0,0.0,0.0,0.0,0.0,0.0,0.0,0.0,0.0,0.0,0.0,0.0,0.0,0.0,0.0,0.0,0.0,0.0,0.0,0.0,0.0,0.0,0.0,0.0,0.0,0.0,0.0,0.0,0.0,0.0,0.0,0.0,0.0,0.0,0.0,0.0,0.0,0.0,0.0,0.0,0.0,0.0,0.0,0.0,0.0,0.0,0.0,0.0,0.0,0.0,0.0,0.0,0.0,0.0,0.0,0.0,0.0,0.0,0.0,0.0,0.0,0.0,0.0,0.0,0.0,0.0,0.0,0.0,0.0,0.0,0.0,0.0,0.0,0.0,0.0,0.0,0.0,0.0,0.0,0.0,-3.4368,-3.5134,-3.6627,-3.6627,-3.6595,-3.6564,-3.511,-3.355,-3.2095,0.0,0.0,0.0,0.0,0.0,0.0,0.0,0.0,0.0,0.0,0.0,0.0,0.0,0.0,0.0,0.0,0.0,0.0,0.0,0.0,0.0,0.0,0.0,0.0,0.0,0.0,0.0,0.0,0.0,0.0,0.0,0.0,0.0,0.0,0.0,0.0,0.0,0.0,-2.5399,-2.6908,0.0,0.0,0.0,0.0,0.0,0.0,0.0,0.0,-3.2055,0.0,0.0,0.0,0.0,0.0,0.0,0.0,0.0,0.0,0.0,0.0,0.0,0.0,0.0,0.0,0.0,0.0,0.0,0.0,0.0,0.0,0.0,0.0,0.0,0.0,0.0,0.0,0.0,0.0,0.0,0.0,0.0,0.0,0.0,0.0,0.0,0.0,0.0,0.0,0.0,0.0,0.0,0.0,0.0,0.0,0.0,0.0,0.0,0.0,0.0,0.0,0.0,0.0,0.0,0.0,0.0,-3.5149,-3.5728,-3.6685,-3.8112,-3.7607,-3.7291,-3.7259,-3.5331,-3.3646,-3.2228,0.0,0.0,0.0,0.0,0.0,0.0,0.0,0.0,0.0,0.0,0.0,0.0,0.0,0.0,0.0,0.0,0.0,0.0,0.0,0.0,0.0,0.0,0.0,0.0,0.0,0.0,0.0,0.0,0.0,0.0,0.0,0.0,0.0,0.0,0.0,0.0,0.0,0.0,0.0,-2.9585,-3.1025,0.0,0.0,0.0,0.0,0.0,0.0,0.0,0.0,-3.2387,0.0,0.0,0.0,0.0,0.0,0.0,0.0,0.0,0.0,0.0,0.0,0.0,0.0,0.0,0.0,0.0,0.0,0.0,0.0,0.0,0.0,0.0,0.0,0.0,0.0,0.0,0.0,0.0,0.0,0.0,0.0,0.0,0.0,0.0,0.0,0.0,0.0,0.0,0.0,0.0,0.0,0.0,0.0,0.0,0.0,0.0,0.0,0.0,0.0,0.0,0.0,0.0,0.0,0.0,0.0,-3.5559,-3.6578,-3.7638,-3.8934,-3.8365,-3.8017,-3.7986,-3.5963,-3.4302,0.0,0.0,0.0,0.0,0.0,0.0,0.0,0.0,0.0,0.0,0.0,0.0,0.0,0.0,0.0,0.0,0.0,0.0,0.0,0.0,0.0,0.0,0.0,0.0,0.0,0.0,0.0,0.0,0.0,0.0,0.0,0.0,0.0,0.0,0.0,0.0,0.0,0.0,0.0,0.0,-3.0959,-3.2029,-3.4421,0.0,0.0,0.0,0.0,0.0,0.0,-3.3557,-3.2496,0.0,0.0,0.0,0.0,0.0,0.0,0.0,0.0,0.0,0.0,0.0,0.0,0.0,0.0,0.0,0.0,0.0,0.0,0.0,0.0,0.0,0.0,0.0,0.0,0.0,0.0,0.0,0.0,0.0,0.0,0.0,0.0,0.0,0.0,0.0,0.0,0.0,0.0,0.0,0.0,0.0,0.0,0.0,0.0,0.0,0.0,0.0,0.0,0.0,0.0,0.0,0.0,0.0,0.0,0.0,-3.5669,-3.7176,-3.8397,-3.9408,-3.8997,-3.8649,-3.8491,-3.6753,-3.5299,0.0,0.0,0.0,0.0,0.0,0.0,0.0,0.0,0.0,0.0,0.0,0.0,0.0,0.0,0.0,0.0,0.0,0.0,0.0,0.0,0.0,0.0,0.0,0.0,0.0,0.0,0.0,0.0,0.0,0.0,0.0,0.0,0.0,0.0,0.0,0.0,0.0,0.0,0.0,0.0,0.0,-3.2927,-3.4047,-3.614,0.0,0.0,0.0,0.0,-3.507,-3.3681,0.0,0.0,0.0,0.0,0.0,0.0,0.0,0.0,0.0,0.0,0.0,0.0,0.0,0.0,0.0,0.0,0.0,0.0,0.0,0.0,0.0,0.0,0.0,0.0,0.0,0.0,0.0,0.0,0.0,0.0,0.0,0.0,0.0,0.0,0.0,0.0,0.0,0.0,0.0,0.0,0.0,0.0,0.0,0.0,0.0,0.0,0.0,0.0,0.0,0.0,0.0,0.0,0.0,0.0,0.0,0.0,-3.4524,-3.7666,-3.9345,-3.9471,-3.9408,-3.9092,-3.8523,-3.7701,-3.6337,0.0,0.0,0.0,0.0,0.0,0.0,0.0,0.0,0.0,0.0,0.0,0.0,0.0,0.0,0.0,0.0,0.0,0.0,0.0,0.0,0.0,0.0,0.0,0.0,0.0,0.0,0.0,0.0,0.0,0.0,0.0,0.0,0.0,0.0,0.0,0.0,0.0,0.0,0.0,0.0,0.0,-3.4905,-3.5333,-3.7052,-3.7688,0.0,0.0,-3.7482,-3.5586,-3.5007,0.0,0.0,0.0,0.0,0.0,0.0,0.0,0.0,0.0,0.0,0.0,0.0,0.0,0.0,0.0,0.0,0.0,0.0,0.0,0.0,0.0,0.0,0.0,0.0,0.0,0.0,0.0,0.0,0.0,0.0,0.0,0.0,0.0,0.0,0.0,0.0,0.0,0.0,0.0,0.0,0.0,0.0,0.0,0.0,0.0,0.0,0.0,0.0,0.0,0.0,0.0,0.0,0.0,0.0,0.0,-3.3245,-3.4952,-3.8365,-4.0293,-4.064,-4.0324,-3.9977,-3.9692,-3.8997,-3.7638,0.0,0.0,0.0,0.0,0.0,0.0,0.0,0.0,0.0,0.0,0.0,0.0,0.0,0.0,0.0,0.0,0.0,0.0,0.0,0.0,0.0,0.0,0.0,0.0,0.0,0.0,0.0,0.0,0.0,0.0,0.0,0.0,0.0,0.0,0.0,0.0,0.0,0.0,0.0,0.0,0.0,0.0,-3.6274,-3.7625,0.0,0.0,0.0,-3.8451,-3.6614,0.0,0.0,0.0,0.0,0.0,0.0,0.0,0.0,0.0,0.0,0.0,0.0,0.0,0.0,0.0,0.0,0.0,0.0,0.0,0.0,0.0,0.0,0.0,0.0,0.0,0.0,0.0,0.0,0.0,0.0,0.0,0.0,0.0,0.0,0.0,0.0,0.0,0.0,0.0,0.0,0.0,0.0,0.0,0.0,0.0,0.0,0.0,0.0,0.0,0.0,0.0,0.0,0.0,0.0,0.0,0.0,0.0,-3.5679,-3.925,-4.1367,-4.181,-4.1178,-4.0767,-4.0609,-3.9882,0.0,0.0,0.0,0.0,0.0,0.0,0.0,0.0,0.0,0.0,0.0,0.0,0.0,0.0,0.0,0.0,0.0,0.0,0.0,0.0,0.0,0.0,0.0,0.0,0.0,0.0,0.0,-2.0877,0.0,0.0,0.0,0.0,0.0,0.0,0.0,0.0,0.0,0.0,0.0,0.0,0.0,0.0,-3.4651,-3.6957,-3.8074,-3.8435,0.0,0.0,-3.8999,-3.7679,-3.7185,-3.694,0.0,0.0,0.0,0.0,0.0,0.0,0.0,0.0,0.0,0.0,0.0,0.0,0.0,0.0,0.0,0.0,0.0,0.0,0.0,0.0,0.0,0.0,0.0,0.0,0.0,0.0,0.0,0.0,0.0,0.0,0.0,0.0,0.0,0.0,0.0,0.0,0.0,0.0,0.0,0.0,0.0,0.0,0.0,0.0,0.0,0.0,0.0,0.0,0.0,0.0,0.0,0.0,0.0,0.0,-3.5616,-3.6469,-4.0451,-4.2537,-4.26,-4.1904,-4.1241,-4.0609,-3.9882,-3.9155,0.0,0.0,0.0,0.0,0.0,0.0,0.0,0.0,0.0,0.0,0.0,0.0,0.0,0.0,0.0,0.0,0.0,0.0,0.0,0.0,0.0,0.0,0.0,0.0,0.0,0.0,0.0,0.0,0.0,0.0,0.0,0.0,0.0,0.0,0.0,0.0,0.0,0.0,0.0,0.0,0.0,-3.6249,-3.7335,-3.859,-3.919,0.0,-3.9036,-3.9221,-3.8546,-3.8388,-3.8518,-3.9031,0.0,0.0,0.0,0.0,0.0,0.0,0.0,0.0,0.0,0.0,0.0,0.0,0.0,0.0,0.0,0.0,0.0,0.0,0.0,0.0,0.0,0.0,0.0,0.0,0.0,0.0,0.0,0.0,0.0,0.0,0.0,0.0,0.0,0.0,0.0,0.0,0.0,0.0,0.0,0.0,0.0,0.0,0.0,0.0,0.0,0.0,0.0,0.0,0.0,0.0,0.0,0.0,0.0,-3.6374,-3.7101,-4.0767,-4.2473,-4.2031,-4.2189,-4.1936,-4.1241,-4.0925,-4.0387,0.0,0.0,0.0,0.0,0.0,0.0,0.0,0.0,0.0,0.0,0.0,0.0,0.0,0.0,0.0,0.0,0.0,0.0,0.0,0.0,0.0,0.0,0.0,0.0,0.0,0.0,0.0,0.0,-2.9825,-3.0729,-3.0213,0.0,0.0,0.0,0.0,0.0,0.0,0.0,0.0,0.0,0.0,-3.743,-3.9029,-3.9365,0.0,0.0,-3.9708,-3.9893,-3.9247,-3.9862,-4.0608,-4.1217,-4.1007,0.0,0.0,0.0,0.0,0.0,0.0,0.0,0.0,0.0,0.0,0.0,0.0,0.0,0.0,0.0,0.0,0.0,0.0,0.0,0.0,0.0,0.0,0.0,0.0,0.0,0.0,0.0,0.0,0.0,0.0,0.0,0.0,0.0,0.0,0.0,0.0,0.0,0.0,0.0,0.0,0.0,0.0,0.0,0.0,0.0,0.0,0.0,0.0,0.0,0.0,0.0,0.0,-3.7575,-3.8081,-4.1114,-4.2537,-4.2252,-4.2537,-4.2347,-4.1652,-4.181,-4.1522,0.0,0.0,0.0,0.0,0.0,0.0,0.0,0.0,0.0,0.0,0.0,0.0,0.0,0.0,0.0,0.0,0.0,0.0,0.0,0.0,0.0,0.0,0.0,0.0,0.0,0.0,0.0,0.0,-3.129,-3.263,-3.2622,0.0,0.0,0.0,0.0,0.0,0.0,0.0,0.0,0.0,0.0,-3.8496,-4.0222,-4.0256,-4.0201,-4.0416,-4.0847,-4.1124,-4.1032,-4.1524,-4.2202,-4.3063,0.0,0.0,0.0,0.0,0.0,0.0,0.0,0.0,0.0,0.0,0.0,0.0,0.0,0.0,0.0,0.0,0.0,0.0,0.0,0.0,0.0,0.0,0.0,0.0,0.0,0.0,0.0,-2.6635,0.0,0.0,-2.5634,0.0,0.0,0.0,0.0,0.0,0.0,0.0,0.0,0.0,0.0,0.0,0.0,0.0,0.0,0.0,0.0,0.0,0.0,0.0,0.0,0.0,0.0,-3.9439,-3.9503,-4.162,-4.3011,-4.3611,-4.3042,-4.2347,-4.1652,-4.2284,-4.2315,-4.1588,0.0,0.0,0.0,0.0,0.0,0.0,0.0,0.0,0.0,0.0,0.0,0.0,0.0,0.0,0.0,0.0,0.0,0.0,0.0,0.0,0.0,0.0,0.0,0.0,0.0,0.0,-2.6428,-3.0071,-3.314,0.0,0.0,0.0,0.0,0.0,0.0,0.0,0.0,0.0,-3.8964,-3.9314,-3.9562,-4.0362,-4.1093,-4.174,-4.2386,-4.254,-4.2971,-4.4141,-4.3402,-4.3033,0.0,0.0,0.0,0.0,0.0,0.0,0.0,0.0,0.0,0.0,0.0,0.0,0.0,0.0,0.0,0.0,0.0,0.0,0.0,0.0,0.0,0.0,0.0,0.0,0.0,0.0,0.0,-2.9135,-2.945,0.0,0.0,0.0,0.0,0.0,0.0,0.0,0.0,0.0,0.0,0.0,-3.5658,-3.6781,0.0,0.0,0.0,0.0,0.0,0.0,0.0,0.0,0.0,0.0,0.0,0.0,-4.0893,-4.0956,-4.2537,-4.3485,-4.3706,-4.3485,-4.3042,-4.2347,-4.2568,-4.2501,-4.2113,0.0,0.0,0.0,0.0,0.0,0.0,0.0,0.0,0.0,0.0,0.0,0.0,0.0,0.0,0.0,0.0,0.0,0.0,0.0,0.0,0.0,0.0,0.0,0.0,0.0,-3.1325,0.0,0.0,0.0,0.0,0.0,0.0,0.0,0.0,0.0,0.0,-3.7728,-3.8893,-3.9251,-4.0587,-4.1426,-4.1247,-4.1832,-4.2355,0.0,0.0,0.0,0.0,0.0,0.0,0.0,0.0,0.0,0.0,0.0,0.0,0.0,-4.4149,-4.3065,-4.2521,-4.1541,-4.0876,-4.1124,0.0,0.0,0.0,0.0,0.0,0.0,0.0,0.0,0.0,0.0,0.0,0.0,0.0,0.0,-3.2563,-3.2921,-3.2889,0.0,0.0,0.0,0.0,0.0,0.0,0.0,0.0,-3.7622,-3.8529,-3.8434,-3.9404,-3.9656,-3.9408,-3.9408,-3.7928,0.0,0.0,0.0,0.0,0.0,0.0,0.0,0.0,-4.2537,-4.2378,-4.3263,-4.3832,-4.4053,-4.3832,-4.3516,-4.3074,-4.2753,-4.2779,-4.3082,-4.1778,-4.1372,0.0,0.0,0.0,0.0,0.0,0.0,0.0,0.0,0.0,0.0,0.0,0.0,0.0,0.0,0.0,0.0,0.0,0.0,0.0,0.0,0.0,0.0,0.0,-3.3927,0.0,0.0,0.0,0.0,0.0,0.0,0.0,0.0,0.0,-3.8667,-3.9527,-4.035,-4.0466,-4.1457,-4.2263,-4.2294,0.0,0.0,0.0,0.0,0.0,0.0,0.0,-4.5953,-4.5445,-4.6456,-4.7018,-4.6406,-4.5629,-4.5432,-4.6401,0.0,0.0,-4.488,-4.3775,-4.3254,-4.3587,-4.2314,-4.1536,-4.264,-4.2303,-4.2487,0.0,0.0,0.0,0.0,-3.396,0.0,0.0,0.0,-3.5763,-3.6164,0.0,-3.6907,0.0,0.0,0.0,0.0,-3.6878,-3.8309,0.0,0.0,-4.0395,-4.1283,-4.135,-4.1449,-4.1547,-4.1683,-4.1683,-4.1336,-4.0609,-3.9313,0.0,0.0,0.0,0.0,0.0,0.0,-4.4401,-4.3674,-4.3737,-4.4085,-4.4654,-4.4085,-4.37,-4.3668,-4.2899,-4.3113,-4.4203,-4.2341,-4.1143,-4.1081,-3.9181,0.0,0.0,0.0,0.0,0.0,0.0,0.0,0.0,0.0,0.0,0.0,0.0,0.0,0.0,0.0,0.0,0.0,0.0,0.0,0.0,-3.3542,0.0,0.0,0.0,0.0,0.0,0.0,0.0,0.0,0.0,-4.2338,-4.1417,-4.0821,-4.0935,-4.2458,0.0,0.0,0.0,0.0,-4.411,-4.5403,-4.5064,-4.5095,-4.6388,-4.5984,-4.5537,-4.5694,0.0,0.0,-4.6345,-4.6275,-4.662,-4.8087,-4.8332,-4.8018,-4.6893,-4.6234,-4.591,-4.5708,-4.5984,-4.607,-4.5611,-4.5764,-4.6142,-3.8211,0.0,0.0,0.0,0.0,-3.6785,-3.7188,-3.771,-3.771,-3.7867,-3.818,-3.8869,0.0,0.0,0.0,0.0,0.0,0.0,-4.064,-4.0969,-4.2046,-4.2731,-4.3158,-4.3301,-4.3443,-4.3591,-4.3451,-4.3427,-4.3516,-4.3,-4.2748,-4.2821,0.0,0.0,0.0,0.0,-4.5381,-4.3864,-4.418,-4.4527,-4.4717,-4.4386,-4.4149,-4.4006,-4.3747,-4.3738,-4.3967,-4.3366,-4.3086,-4.2922,-4.1496,0.0,0.0,0.0,0.0,0.0,0.0,0.0,0.0,0.0,0.0,0.0,0.0,0.0,0.0,0.0,0.0,0.0,0.0,0.0,-3.5027,-3.7307,-3.9508,0.0,0.0,0.0,0.0,0.0,0.0,0.0,0.0,0.0,-4.3758,-4.3107,-4.3004,0.0,0.0,-4.4202,-4.5557,-4.5311,-4.5311,-4.6172,-4.6142,0.0,-4.7188,-4.7907,-4.8346,-4.8095,-4.8207,-4.843,-4.8611,-4.8728,-4.8936,-4.9387,-4.9273,-4.9152,-4.8931,-4.8194,-4.7707,-4.792,-4.8049,-4.7958,-4.738,-4.7714,-4.8086,-4.1017,-4.0245,-3.9792,-3.9482,-3.9358,-3.9358,-3.9627,-4.0139,-4.0139,-4.0177,-4.0276,-4.0814,-4.038,-3.9287,-3.9924,0.0,0.0,0.0,-4.2396,-4.2381,-4.3591,-4.4319,-4.4538,-4.5008,-4.5437,-4.5699,-4.5123,-4.4997,-4.5394,-4.4755,-4.4849,-4.5624,0.0,-4.5223,-4.5823,-4.6455,-4.6076,-4.4654,-4.4867,-4.5016,-4.5016,-4.484,-4.4726,-4.4622,-4.4226,-4.4049,-4.4254,-4.3932,-4.3858,-4.4075,-4.3086,-4.2262,0.0,0.0,0.0,0.0,0.0,0.0,0.0,0.0,0.0,0.0,0.0,-3.0658,-3.0812,0.0,0.0,0.0,-3.7215,-3.8231,-3.9585,-4.1401,0.0,0.0,0.0,0.0,0.0,0.0,0.0,-4.3687,-4.5217,-4.6234,-4.5834,-4.5434,-4.5126,-4.5003,-4.4972,-4.5557,-4.7188,0.0,-4.7034,-4.7548,-4.7426,-4.7395,-4.7711,-4.8607,-4.9139,-4.891,-4.8796,-4.8829,-4.8829,-4.904,-4.937,-4.97,-4.9702,-4.9854,-5.0819,-5.0213,-4.9482,-4.9391,-4.9273,-4.9035,-4.8641,-4.8702,-4.8853,-4.2848,-4.2725,-4.1876,-4.1596,-4.1899,-4.1891,-4.216,-4.2602,-4.2602,-4.2602,-4.2602,-4.2663,-4.2386,-4.1832,-4.1952,0.0,-4.3363,-4.4131,-4.4069,-4.3426,-4.5132,-4.5835,-4.5719,-4.6508,-4.7245,-4.7877,-4.655,-4.6055,-4.6379,-4.5154,-4.5813,-4.8309,-4.7328,-4.655,-4.6108,-4.655,-4.6455,-4.5728,-4.5604,-4.5594,-4.5656,-4.5434,-4.5466,-4.5583,-4.462,-4.444,-4.4967,-4.4229,-4.4079,-4.4756,-4.4141,-4.3494,-4.3002,0.0,0.0,0.0,0.0,0.0,0.0,0.0,0.0,0.0,0.0,0.0,0.0,0.0,0.0,-3.9801,-4.1678,0.0,-4.4479,-4.5249,0.0,0.0,0.0,-4.5727,-4.5751,-4.5756,-4.6052,-4.6661,0.0,0.0,-4.7681,-4.7742,-4.7342,-4.6142,-4.5834,-4.648,-4.8573,-4.8727,-4.8859,-4.9219,-4.8882,-4.8462,-4.845,-4.8883,-4.9221,-4.9312,-4.838,-4.823,-4.835,-4.8653,-4.9074,-4.9885,-4.9944,-5.0487,-5.2292,-5.1991,-5.1391,-5.0396,-5.0064,-4.9975,-5.0005,-4.9643,-4.9403,-4.488,-4.491,-4.5141,-4.4154,-4.2489,-4.2952,-4.2983,-4.2602,-4.2602,-4.2602,-4.2633,-4.3272,-4.3778,-4.4056,-4.3457,-4.3685,-4.4483,-4.4713,-4.5067,-4.5516,-4.6661,-4.7177,-4.7101,-4.7486,-4.7719,-4.7846,-4.6843,-4.6496,-4.6665,-4.573,-4.5667,-4.6445,-4.6708,-4.7245,-4.8098,-4.7095,-4.6055,-4.497,-4.5793,-4.6429,-4.6809,-4.6578,-4.6423,-4.6346,-4.6113,-4.6035,-4.6158,-4.5542,-4.5649,-4.6788,-4.5741,-4.5495,-4.6357,-4.5618,0.0,0.0,0.0,0.0,0.0,0.0,0.0,0.0,0.0,-3.9093,-3.8385,0.0,-4.3556,0.0,-4.3987,-4.4787,-4.4603,-4.5649,0.0,0.0,-4.6911,-4.7114,-4.7119,-4.7114,-4.7392,-4.8078,-4.8718,-4.8974,-4.845,-4.885,-4.9197,-4.912,-4.7999,-4.805,-5.0513,-5.0051,-4.9566,-4.9952,-5.0013,-5.011,-5.0788,-5.1302,-5.1783,-5.2356,-5.1626,-5.1293,-5.1772,-5.2012,-5.2067,-5.2312,-5.2342,-5.2552,-5.2972,-5.2912,-5.2732,-5.2497,-5.2342,-5.2342,-5.2342,-5.2162,-5.2132,-4.6049,-4.608,-4.6449,-4.5741,-4.4418,-4.4756,-4.4726,-4.4387,-4.4387,-4.4387,-4.4387,-4.4939,-4.5356,-4.5742,-4.5294,-4.5325,-4.5925,-4.6002,-4.6296,-4.667,-4.7383,-4.7806,-4.8043,-4.859,-4.8952,-4.9236,-4.8779,-4.8355,-4.8009,-4.7271,-4.6957,-4.7032,-4.7095,-4.7896,-4.9236,-4.818,-4.7316,-4.6906,-4.6805,-4.6903,-4.7045,-4.6998,-4.7398,-4.8491,-4.7299,-4.7188,-4.8358,-4.688,-4.6942,-4.885,-4.8266,-4.8327,-4.9343,-4.8789,-4.8296,0.0,0.0,0.0,0.0,0.0,0.0,0.0,0.0,0.0,0.0,0.0,-4.6172,-4.5434,-4.6049,-4.6449,-4.6388,-4.7342,-4.7865,-4.7527,-4.8112,-4.8419,-4.8081,-4.8358,-4.8789,-4.9466,-5.042,-5.0759,-5.0112,-5.0851,-5.1502,-5.1603,-5.0774,-5.0621,-5.1938,-5.1876,-5.1784,-5.179,-5.1759,-5.188,-5.248,-5.2683,-5.3068,-5.3669,-5.3451,-5.3324,-5.3922,-5.3832,-5.3713,-5.3982,-5.3593,-5.3414,-5.3922,-5.3832,-5.3713,-5.4012,-5.4072,-5.3862,-5.3294,-5.3174,-5.3174,-4.6726,-4.6726,-4.6819,-4.685,-4.685,-4.685,-4.6757,-4.6603,-4.6603,-4.6603,-4.6603,-4.6603,-4.6683,-4.6841,-4.6841,-4.7029,-4.7356,-4.7574,-4.77,-4.7684,-4.8198,-4.8653,-4.9064,-4.9821,-5.05,-5.1069,-5.1006,-5.0578,-4.9787,-4.9127,-4.8781,-4.8749,-4.8278,-4.8828,-5.0247,-4.971,-4.9395,-4.9456,-4.8278,-4.7715,-4.765,-4.7632,-4.8841,-5.1041,-4.8564,-4.8204,-5.0359,-4.8173,-4.7989,-5.0359,-5.0389,-5.0697,-5.1498,-5.1005,-5.0143,0.0,-4.7311,0.0,0.0,0.0,0.0,0.0,0.0,0.0,0.0,-4.6942,-4.7742,-4.7742,-4.7742,-4.7989,-4.8543,-4.9189,-4.9374,-4.8974,-4.9528,-4.9682,-4.9127,-4.9712,-5.042,-5.1005,-5.2206,-5.2729,-5.2236,-5.316,-5.3745,-5.3407,-5.3314,-5.3314,-5.3247,-5.3614,-5.3891,-5.3718,-5.3772,-5.3676,-5.3691,-5.3593,-5.3862,-5.4461,-5.4521,-5.47,-5.5329,-5.4999,-5.479,-5.5209,-5.4581,-5.4192,-5.5239,-5.497,-5.482,-5.5329,-5.5418,-5.5029,-5.3922,-5.3683,-5.3563,-4.7404,-4.7465,-4.8019,-4.8235,-4.8235,-4.8235,-4.7619,-4.6603,-4.6603,-4.6603,-4.6603,-4.6603,-4.6603,-4.6683,-4.6683,-4.715,-4.8136,-4.8715,-4.9439,-5.0325,-5.0974,-5.129,-5.1335,-5.1543,-5.1701,-5.1764,-5.1227,-5.0911,-5.0753,-4.9978,-4.9631,-4.9663,-5.0073,-5.1101,-5.2428,0.0,0.0,0.0,-5.0097,-5.0986,-5.1381,-5.174,-5.2182,-5.2591,-5.0931,0.0,-4.9835,-4.882,-4.8727,-4.9774,-4.8789,0.0,0.0,0.0,0.0,0.0,0.0,0.0,0.0,0.0,0.0,0.0,-4.8512,-4.8081,-4.6603,-4.765,-4.8419,-4.8419,-4.8419,-4.8481,-4.8604,-4.8727,-4.922,-5.0205,-5.0913,-5.1282,-5.1159,-5.2175,-5.3006,-5.3129,-5.3868,-5.4299,-5.4176,-5.4391,-5.4359,-5.4104,-5.4535,-5.4648,-5.4029,-5.4117,-5.388,-5.3682,-5.4389,-5.51,-5.5538,-5.5568,-5.5688,-5.6316,-5.6107,-5.6077,-5.6555,-5.6645,-5.6526,-5.6735,-5.6526,-5.6376,-5.6675,-5.6615,-5.6555,-5.6705,-5.6735,-5.6346,-5.5089,-5.5239,-5.5598,-4.8635,-4.8696,-4.9343,-4.9651,0.0,-4.9651,-4.9251,-4.8604,-4.8266,-4.8327,-4.8604,-4.8604,-4.8604,-4.8635,-4.8635,-4.8903,-4.9491,-4.9916,-5.0476,-5.1152,-5.1611,-5.1935,-5.2017,-5.2365,-5.2554,-5.2554,-5.2523,-5.2523,-5.2491,-5.2175,-5.1986,-5.1986,-5.2333,-5.2818,-5.3427,-5.2824,-5.1778,-5.0154,-5.1234,-5.195,-5.2033,-5.2374,-5.3179,-5.4205,-5.1986,0.0,0.0,0.0,0.0,0.0,0.0,0.0,0.0,-5.2359,0.0,-5.0759,-5.1036,-5.0913,-5.0236,-5.0174,-5.0328,-5.0667,-5.0974,-5.0297,-4.8266,-4.9066,-4.9497,-4.9189,-4.9435,-4.9774,-5.0112,-5.0143,-5.042,-5.1159,-5.2082,-5.2698,-5.279,-5.3591,-5.433,-5.4668,-5.5007,-5.5097,-5.5003,-5.534,-5.5486,-5.5304,-5.5637,-5.5841,-5.5711,-5.5361,-5.5228,-5.529,-5.573,-5.6226,-5.6526,-5.6615,-5.6855,-5.7363,-5.7334,-5.7423,-5.7992,-5.8082,-5.8082,-5.8082,-5.8082,-5.8082,-5.8082,-5.8082,-5.8082,-5.8082,-5.8082,-5.7932,-5.7214,-5.6885,-5.6735,-4.9866,-4.9897,-5.0482,-5.0697,-5.0697,-5.0697,-5.0759,-5.082,-5.0143,0.0,0.0,-5.0697,-5.0697,-5.0697,-5.0697,-5.0759,-5.0938,-5.111,-5.1344,-5.1693,-5.1894,-5.2209,-5.2503,-5.3102,-5.3449,-5.366,-5.4198,-5.4451,-5.4396,-5.4364,-5.4396,-5.4364,-5.4277,-5.4222,-5.4047,-5.3221,-5.2766,-5.244,-5.2467,-5.2317,-5.214,-5.244,-5.3554,-5.5563,-5.2637,-5.2052,-5.4052,-5.2052,-5.1898,-5.4022,-5.3683,-5.3683,-5.4299,-5.3745,-5.2606,-5.1036,-5.0759,-5.0697,-5.0697,-5.082,-5.1221,-5.199,-5.2575,-5.2082,-5.0174,-5.0759,-5.0913,-5.0112,-5.0759,-5.1436,-5.1836,-5.199,-5.2113,-5.2236,-5.3345,-5.4083,-5.4114,-5.4668,-5.5315,-5.5776,-5.5992,-5.5862,-5.573,-5.6311,-5.6724,-5.6677,-5.6666,-5.6865,-5.7139,-5.6852,-5.6714,-5.7079,-5.7154,-5.7304,-5.7603,-5.7693,-5.7902,-5.865,-5.871,-5.886,-5.9279,-5.9458,-5.9458,-5.9458,-5.9458,-5.9458,-5.9458,-5.9458,-5.9458,-5.9458,-5.9458,-5.9458,-5.9368,-5.859,-5.8052,-5.0574,-5.0574,-5.0667,-5.0697,-5.0697,-5.0697,-5.1005,-5.1498,-5.0851,-5.0636,-5.0697,-5.0697,-5.0697,-5.0697,-5.0697,-5.1092,-5.176,-5.1847,-5.2275,-5.3097,-5.3097,-5.3584,-5.4442,-5.4536,-5.497,-5.5715,-5.5841,-5.5815,-5.5606,-5.5606,-5.5426,-5.5246,-5.5246,-5.5156,-5.4913,-5.482,-5.4575,-5.4299,-5.4168,-5.3948,-5.3768,-5.4326,-5.4791,-5.5101,-5.3374,-5.2298,-5.2113,-5.1775,-5.1713,-5.2113,-5.2052,-5.2298,-5.2914,-5.239,-5.1867,-5.1559,-5.1005,-5.0697,-5.0728,-5.1251,-5.2113,-5.3283,-5.3529,-5.2975,-5.1621,-5.2575,-5.279,-5.1621,-5.2544,-5.3098,-5.2698,-5.3098,-5.3622,-5.4176,-5.4945,-5.5407,-5.5376,-5.6023,-5.6484,-5.6638,-5.6935,-5.7045,-5.6976,-5.7394,-5.7516,-5.7359,-5.7437,-5.7617,-5.7918,-5.7393,-5.7304,-5.7812,-5.7992,-5.8441,-5.9249,-5.9638,-5.9817,-6.0595,-6.0565,-6.0475,-6.0625,-6.0715,-6.0745,-6.0805,-6.0805,-6.0835,-6.0835,-6.0835,-6.0835,-6.0835,-6.0835,-6.0835,-6.0894,-6.0655,-6.0416,-5.1251,-5.1282,-5.1621,-5.1805,-5.1775,-5.1805,-5.1959,-5.2206,-5.1929,-5.1775,-5.1805,-5.1775,-5.1775,-5.1805,-5.1805,-5.2233,-5.297,-5.3059,-5.3699,-5.4501,-5.4679,-5.5045,-5.5506,-5.5417,-5.5606,-5.5978,-5.5799,-5.5928,-5.6182,-5.6213,-5.6369,-5.6682,-5.6277,-5.5906,-5.5628,-5.5101,-5.4823,-5.473,-5.4607,-5.4544,-5.4422,-5.4391,-5.436,-5.4329,-5.3191,-5.2575,-5.2267,-5.2267,-5.2236,-5.2236,-5.2236,-5.239,-5.2698,-5.2421,-5.2236,-5.2267,-5.2298,-5.2329,-5.2359,-5.3283,-5.4145,-5.473,-5.5161,-5.513,-5.4514,-5.433,-5.4022,-5.3406,-5.3929,-5.4145,-5.3837,-5.4083,-5.4391,-5.4699,-5.5315,-5.5838,-5.6269,-5.6884,-5.7438,-5.7808,-5.7917,-5.78,-5.773,-5.7668,-5.7721,-5.7843,-5.8414,-5.9057,-5.9608,-5.9488,-5.9219,-5.9249,-5.9488,-5.9937,-6.0535,-6.0625,-6.0775,-6.1104,-6.1104,-6.1104,-6.1134,-6.1373,-6.1642,-6.1672,-6.1942,-6.2151,-6.2181,-6.2181,-6.2181,-6.2181,-6.2181,-6.2271,-6.257,-6.2959,-6.275,-5.1929,-5.199,-5.2483,-5.279,-5.2944,-5.2944,-5.3037,-5.316,-5.316,-5.316,-5.316,-5.3037,-5.3006,-5.316,-5.3191,-5.3437,-5.3899,-5.4144,-5.4605,-5.5254,-5.5468,-5.5803,-5.614,-5.5928,-5.5931,-5.6148,-5.5996,-5.6093,-5.6591,-5.6622,-5.6996,-5.7496,-5.6965,-5.6403,-5.6215,-5.5532,-5.5191,-5.5161,-5.5037,-5.4884,-5.473,-5.4206,-5.3868,-5.3683,-5.3221,-5.2883,-5.2729,-5.2729,-5.2729,-5.2729,-5.2729,-5.2729,-5.2729,-5.2729,-5.279,-5.2944,-5.3437,-5.3868,-5.4206,-5.5099,-5.5776,-5.593,-5.6453,-5.6823,-5.6884,-5.6023,-5.5284,-5.5037,-5.5099,-5.5191,-5.5222,-5.5376,-5.5468,-5.5622,-5.6084,-5.6669,-5.7192,-5.7685,-5.8177,-5.857,-5.8583,-5.84,-5.8225,-5.8157,-5.8354,-5.889,-5.9697,-6.0505,-6.1014,-6.1224,-6.1074,-6.0805,-6.0894,-6.1104,-6.1283,-6.1343,-6.1403,-6.1493,-6.1613,-6.1762,-6.1912,-6.2271,-6.26,-6.281,-6.3199,-6.3468,-6.3528,-6.3528,-6.3528,-6.3528,-6.3528,-6.3647,-6.4036,-6.4455,-6.4545,-5.2606,-5.2637,-5.2729,-5.3067,-5.3622,-5.3622,-5.396,-5.4453,-5.4545,-5.4545,-5.4453,-5.3899,-5.396,-5.4483,-5.4514,-5.4545,-5.4637,-5.4637,-5.4699,-5.4854,-5.4823,-5.5225,-5.6124,-5.6093,-5.6497,-5.7183,-5.7215,-5.712,-5.7024,-5.7055,-5.7053,-5.6954,-5.6796,-5.6735,-5.6735,-5.6577,-5.6546,-5.6546,-5.593,-5.5315,-5.476,-5.4668,-5.436,-5.3745,-5.3652,-5.3314,-5.2821,-5.2729,-5.2729,-5.2729,-5.276,-5.276,-5.276,-5.276,-5.3006,-5.3622,-5.3745,-5.4206,-5.5376,-5.5622,-5.6053,-5.6577,-5.6761,-5.7069,-5.7623,-5.7562,-5.6915,-5.6084,-5.6238,-5.6577,-5.6607,-5.7069,-5.7562,-5.7993,-5.8208,-5.8547,-5.8516,-5.8639,-5.8631,-5.843,-5.8826,-5.8758,-5.8791,-5.9225,-6.0076,-6.0535,-6.0805,-6.1104,-6.1343,-6.1702,-6.2002,-6.1792,-6.1553,-6.1493,-6.1852,-6.2032,-6.2271,-6.272,-6.2899,-6.3079,-6.3408,-6.3647,-6.3947,-6.4126,-6.4575,-6.4635,-6.4695,-6.4844,-6.4755,-6.4605,-6.4635,-6.4844,-6.4934,-6.5084,-6.4964,-5.3314,-5.3345,-5.3745,-5.4052,-5.4299,-5.433,-5.4483,-5.4699,-5.473,-5.4945,-5.5253,-5.5007,-5.4853,-5.473,-5.473,-5.4914,-5.5284,-5.5472,-5.5719,-5.6153,-5.6466,-5.6809,-5.7152,-5.7184,-5.734,-5.7464,-5.7401,-5.7115,-5.7019,-5.7019,-5.7019,-5.6858,-5.6923,-5.6923,-5.6761,-5.6761,-5.6761,-5.6761,-5.6484,-5.6176,-5.5869,-5.513,-5.4607,-5.436,-5.4299,-5.4206,-5.3929,-5.3899,-5.3899,-5.3929,-5.4268,-5.4453,-5.4483,-5.4884,-5.5222,-5.553,-5.5899,-5.6515,-5.7438,-5.75,-5.7654,-5.7931,-5.7962,-5.8085,-5.8331,-5.8362,-5.8085,-5.7685,-5.7777,-5.7962,-5.7962,-5.8208,-5.8485,-5.8731,-5.8793,-5.8947,-5.9347,-5.9378,-5.9522,-6.001,-6.0061,-6.0183,-6.0253,-6.0546,-6.0954,-6.1523,-6.1702,-6.1792,-6.2181,-6.251,-6.263,-6.269,-6.272,-6.275,-6.275,-6.3019,-6.3288,-6.3588,-6.3977,-6.4395,-6.4485,-6.4605,-6.4725,-6.5024,-6.5114,-6.5114,-6.4964,-6.5024,-6.5024,-6.5144,-6.5443,-6.5622,-6.5622,-6.5922,-6.6131,-5.3991,-5.4083,-5.4545,-5.4822,-5.5007,-5.4976,-5.5099,-5.5284,-5.5284,-5.5561,-5.5961,-5.5992,-5.5745,-5.5345,-5.5284,-5.5561,-5.5961,-5.6182,-5.6524,-5.6988,-5.7401,-5.7621,-5.759,-5.759,-5.7495,-5.7306,-5.7115,-5.6923,-5.6858,-5.6923,-5.6923,-5.6858,-5.6923,-5.6923,-5.6889,-5.6915,-5.7038,-5.7069,-5.7192,-5.7315,-5.7192,-5.6361,-5.5653,-5.5345,-5.5468,-5.5468,-5.5315,-5.5284,-5.5284,-5.5315,-5.5745,-5.5992,-5.5992,-5.6484,-5.6854,-5.7069,-5.7685,-5.827,-5.8762,-5.8793,-5.8793,-5.8793,-5.8793,-5.8854,-5.9008,-5.907,-5.9162,-5.9316,-5.9501,-5.9532,-5.907,-5.9039,-5.9193,-5.9532,-5.9624,-5.9901,-6.0547,-6.0609,-6.0936,-6.1401,-6.1278,-6.1256,-6.1498,-6.1485,-6.1642,-6.2211,-6.2361,-6.248,-6.2989,-6.3169,-6.3318,-6.3348,-6.3857,-6.3947,-6.3528,-6.3827,-6.4216,-6.4366,-6.4695,-6.4964,-6.5233,-6.5293,-6.5503,-6.5802,-6.5592,-6.5592,-6.5832,-6.5712,-6.5652,-6.5682,-6.5981,-6.634,-6.6281,-6.67,-6.6909,-5.4699,-5.4699,-5.473,-5.513,-5.5653,-5.5653,-5.6023,-5.6515,-5.6607,-5.6669,-5.6669,-5.6669,-5.6669,-5.6607,-5.6546,-5.6669,-5.67,-5.6765,-5.6796,-5.6858,-5.6858,-5.6858,-5.6858,-5.6858,-5.6858,-5.6954,-5.6858,-5.6858,-5.6761,-5.6858,-5.6858,-5.6792,-5.692,-5.6889,-5.6946,-5.7469,-5.7715,-5.7777,-5.827,-5.8639,-5.8639,-5.8547,-5.7869,-5.6915,-5.7285,-5.7254,-5.6761,-5.6669,-5.6669,-5.6669,-5.6761,-5.6761,-5.6761,-5.6854,-5.7223,-5.7777,-5.8393,-5.8762,-5.8854,-5.8916,-5.8885,-5.8854,-5.9008,-5.9131,-5.9778,-5.9932,-6.0178,-6.0671,-6.1194,-6.1071,-6.0086,-5.9993,-6.0393,-6.1379,-6.1594,-6.1871,-6.2487,-6.2364,-6.2319,-6.2147,-6.202,-6.1961,-6.2085,-6.2061,-6.2361,-6.2839,-6.3019,-6.3109,-6.3318,-6.3677,-6.3917,-6.4096,-6.4455,-6.4725,-6.4186,-6.4545,-6.4904,-6.5054,-6.5203,-6.5323,-6.5682,-6.6041,-6.634,-6.658,-6.655,-6.664,-6.6819,-6.6939,-6.6969,-6.6999,-6.6969,-6.7119,-6.7208,-6.7029,-6.7208,-5.5622,-5.6023,-5.6023,-5.6176,-5.6361,-5.6392,-5.6515,-5.6761,-5.6761,-5.6761,-5.6761,-5.6761,-5.6761,-5.6761,-5.6761,-5.6761,-5.6761,-5.6761,-5.6761,-5.6858,-5.6923,-5.7019,-5.7019,-5.7115,-5.7115,-5.7019,-5.7019,-5.6923,-5.6761,-5.6761,-5.6977,-5.7377,-5.7408,-5.7592,-5.8023,-5.83,-5.8423,-5.8454,-5.867,-5.8793,-5.8854,-5.9193,-5.9162,-5.8731,-5.8516,-5.83,-5.8054,-5.8054,-5.8054,-5.8054,-5.8454,-5.8701,-5.8731,-5.9101,-5.9439,-5.9686,-5.9932,-6.0086,-6.0086,-6.0086,-6.0055,-6.0086,-6.0486,-6.0763,-6.1101,-6.1471,-6.184,-6.2086,-6.2271,-6.2148,-6.1902,-6.1748,-6.1902,-6.2333,-6.2456,-6.2548,-6.2626,-6.2641,-6.2578,-6.2536,-6.2596,-6.2709,-6.2714,-6.272,-6.2989,-6.3528,-6.3677,-6.3857,-6.4246,-6.4545,-6.4665,-6.4755,-6.5203,-6.5592,-6.5383,-6.5443,-6.5682,-6.5802,-6.5951,-6.6251,-6.658,-6.655,-6.6759,-6.7029,-6.7178,-6.7478,-6.7627,-6.8196,-6.8256,-6.8615,-6.8585,-6.8136,-6.8286,-6.8046,-6.8106,-5.633,-5.673,-5.6761,-5.6761,-5.6761,-5.6761,-5.6761,-5.6761,-5.6761,-5.6761,-5.6761,-5.6761,-5.6761,-5.6761,-5.6761,-5.6761,-5.6761,-5.6761,-5.6761,-5.6761,-5.6923,-5.7019,-5.7019,-5.7211,-5.7211,-5.7019,-5.7019,-5.7016,-5.7069,-5.7069,-5.7438,-5.8054,-5.8116,-5.8331,-5.8731,-5.8978,-5.9101,-5.9131,-5.9316,-5.947,-5.9501,-5.987,-6.0116,-6.0055,-5.9655,-5.9439,-5.9439,-5.9439,-5.9439,-5.9501,-5.987,-6.0116,-6.0178,-6.0547,-6.0886,-6.1071,-6.1101,-6.1225,-6.1409,-6.144,-6.144,-6.1471,-6.184,-6.2148,-6.2179,-6.2548,-6.2794,-6.2856,-6.3041,-6.3133,-6.3195,-6.3318,-6.3379,-6.3195,-6.3133,-6.3256,-6.3441,-6.3207,-6.3061,-6.3152,-6.3273,-6.3404,-6.3408,-6.3588,-6.3887,-6.4306,-6.4336,-6.4575,-6.4904,-6.5233,-6.5353,-6.5383,-6.5892,-6.6251,-6.6221,-6.6251,-6.6311,-6.64,-6.64,-6.6819,-6.7148,-6.7119,-6.7298,-6.7537,-6.7837,-6.8136,-6.8645,-6.9243,-6.9752,-7.0201,-6.9722,-6.9123,-6.9123,-6.9034,-6.8877,-5.673,-5.6761,-5.6761,-5.6761,-5.6761,-5.6761,-5.6761,-5.6761,-5.6761,-5.6761,-5.6761,-5.6761,-5.6761,-5.6761,-5.6761,-5.6761,-5.6761,-5.6761,-5.6761,-5.6761,-5.6858,-5.6858,-5.6858,-5.6858,-5.692,-5.695,-5.6889,-5.7161,-5.7746,-5.7808,-5.8116,-5.867,-5.8793,-5.8854,-5.8854,-5.9501,-5.9778,-5.9901,-6.0332,-6.0671,-6.0763,-6.0701,-6.0701,-6.0732,-6.0701,-6.0732,-6.0763,-6.0701,-6.0609,-6.0671,-6.0763,-6.0824,-6.0886,-6.0978,-6.1163,-6.1717,-6.1809,-6.2117,-6.2641,-6.2671,-6.261,-6.2641,-6.2764,-6.2825,-6.2856,-6.2948,-6.3041,-6.3164,-6.3502,-6.3841,-6.3933,-6.4426,-6.4549,-6.3964,-6.3903,-6.4101,-6.4531,-6.4524,-6.4188,-6.3803,-6.3794,-6.3977,-6.4126,-6.4425,-6.4814,-6.4964,-6.5024,-6.5114,-6.5353,-6.5742,-6.5981,-6.6101,-6.643,-6.67,-6.6849,-6.6969,-6.6969,-6.6939,-6.6879,-6.7029,-6.7448,-6.7597,-6.8226,-6.8555,-6.9213,-6.9572,-7.032,-7.0889,-7.1009,-7.1218,-7.059,-7.0191,-6.9803,-6.9613,-6.908,-5.6761,-5.6761,-5.6761,-5.6761,-5.6761,-5.6761,-5.6761,-5.6761,-5.6761,-5.6761,-5.6761,-5.6761,-5.6761,-5.6761,-5.6761,-5.6792,-5.6761,-5.6761,-5.6761,-5.6792,-5.6792,-5.6792,-5.6792,-5.6792,-5.7008,-5.7377,-5.7469,-5.7808,-5.8362,-5.8485,-5.8793,-5.9347,-5.947,-5.9716,-6.0086,-6.0363,-6.0486,-6.0517,-6.0701,-6.0794,-6.0794,-6.0794,-6.0794,-6.0855,-6.1255,-6.1502,-6.1471,-6.104,-6.0794,-6.0824,-6.1255,-6.1686,-6.2056,-6.2179,-6.2302,-6.2456,-6.2517,-6.2548,-6.2764,-6.2856,-6.2887,-6.2918,-6.3256,-6.3472,-6.3595,-6.3933,-6.418,-6.421,-6.4457,-6.4549,-6.4672,-6.5165,-6.5257,-6.4672,-6.4727,-6.4953,-6.5115,-6.514,-6.4981,-6.4661,-6.4605,-6.4695,-6.4725,-6.5024,-6.5293,-6.5622,-6.5712,-6.5802,-6.6281,-6.643,-6.667,-6.6729,-6.6969,-6.6999,-6.6999,-6.7029,-6.7059,-6.7238,-6.7328,-6.7537,-6.7897,-6.8465,-6.9093,-6.9901,-7.056,-7.1218,-7.1966,-7.2325,-7.2415,-7.2505,-7.2163,-7.1555,-7.0573,-6.9863,-6.9174,-5.6761,-5.6761,-5.6761,-5.6915,-5.7131,-5.7131,-5.7285,-5.75,-5.7531,-5.75,-5.7531,-5.7531,-5.75,-5.75,-5.75,-5.75,-5.75,-5.7531,-5.75,-5.7377,-5.6915,-5.6915,-5.7131,-5.7408,-5.7715,-5.8085,-5.8146,-5.8485,-5.9101,-5.9162,-5.9501,-6.0055,-6.0178,-6.0332,-6.0763,-6.0794,-6.0794,-6.0824,-6.104,-6.1071,-6.0948,-6.1286,-6.144,-6.1317,-6.184,-6.2148,-6.2148,-6.1748,-6.1532,-6.1594,-6.1963,-6.2394,-6.2794,-6.2794,-6.2918,-6.3133,-6.3225,-6.3287,-6.3533,-6.3656,-6.3595,-6.3687,-6.3995,-6.421,-6.4303,-6.4703,-6.4888,-6.4888,-6.5134,-6.5288,-6.5349,-6.576,-6.5801,-6.5494,-6.5657,-6.5674,-6.5535,-6.546,-6.5319,-6.5113,-6.5203,-6.5353,-6.5413,-6.5682,-6.5862,-6.6281,-6.637,-6.643,-6.6879,-6.6939,-6.6999,-6.6969,-6.6999,-6.6999,-6.6999,-6.7029,-6.7119,-6.7418,-6.7747,-6.8166,-6.8585,-6.9393,-7.0111,-7.1427,-7.2265,-7.2924,-7.3612,-7.3642,-7.3702,-7.3656,-7.3266,-7.2032,-7.0766,-6.9671,-6.8933,-5.6761,-5.6761,-5.6761,-5.7131,-5.7685,-5.7715,-5.8054,-5.867,-5.8701,-5.8639,-5.867,-5.8577,-5.867,-5.8731,-5.8577,-5.8577,-5.8731,-5.8608,-5.8639,-5.8423,-5.7777,-5.7469,-5.7839,-5.8423,-5.8793,-5.8978,-5.8978,-5.9316,-5.9993,-5.9901,-6.0209,-6.0794,-6.0763,-6.0824,-6.0917,-6.0855,-6.0948,-6.104,-6.1594,-6.1686,-6.1255,-6.2179,-6.2579,-6.2025,-6.2548,-6.2856,-6.2856,-6.2918,-6.2887,-6.2856,-6.2856,-6.2948,-6.2979,-6.2948,-6.3349,-6.3872,-6.3872,-6.418,-6.4672,-6.4672,-6.4703,-6.4672,-6.4703,-6.4888,-6.4826,-6.4949,-6.5072,-6.5103,-6.5596,-6.5852,-6.5975,-6.6208,-6.643,-6.6436,-6.6406,-6.6057,-6.5736,-6.5709,-6.5592,-6.5413,-6.5682,-6.6071,-6.6071,-6.652,-6.6789,-6.6879,-6.6879,-6.6909,-6.6939,-6.6999,-6.6999,-6.6999,-6.6999,-6.6999,-6.6999,-6.7328,-6.7508,-6.8041,-6.8393,-6.8882,-6.9516,-7.0319,-7.1021,-7.2403,-7.2981,-7.3891,-7.4415,-7.3931,-7.3902,-7.3734,-7.2973,-7.1871,-7.0621,-6.9189,-6.8043,-5.6761,-5.6761,-5.6761,-5.7161,-5.7746,-5.7777,-5.8177,-5.8731,-5.8824,-5.8885,-5.8824,-5.8793,-5.8854,-5.8793,-5.8824,-5.8793,-5.8885,-5.8854,-5.9101,-5.9439,-5.9224,-5.8762,-5.8701,-5.9224,-5.9809,-6.0209,-6.027,-6.0609,-6.1194,-6.0794,-6.0917,-6.1502,-6.1132,-6.1101,-6.144,-6.1532,-6.1532,-6.1717,-6.2733,-6.3195,-6.3071,-6.3318,-6.3472,-6.3349,-6.3472,-6.3564,-6.3626,-6.4087,-6.4057,-6.3595,-6.3564,-6.3841,-6.421,-6.4272,-6.4334,-6.4487,-6.458,-6.4641,-6.4826,-6.4888,-6.4888,-6.4888,-6.4949,-6.4888,-6.4918,-6.5349,-6.5596,-6.575,-6.6016,-6.63,-6.6277,-6.6534,-6.6816,-6.7033,-6.6612,-6.6372,-6.6523,-6.6612,-6.6612,-6.652,-6.661,-6.6518,-6.6607,-6.6697,-6.6846,-6.6723,-6.6723,-6.6723,-6.6446,-6.6723,-6.66,-6.6876,-6.6999,-6.6999,-6.7119,-6.7508,-6.8046,-6.8631,-6.9168,-6.9721,-7.0531,-7.1355,-7.1874,-7.2701,-7.1735,-7.2055,-7.274,-7.2823,-7.3082,-7.3111,-7.2369,-7.1223,-6.9384,-6.7928,-6.6698,-5.6761,-5.6761,-5.6761,-5.7315,-5.8146,-5.8177,-5.8731,-5.9501,-5.9624,-5.9624,-5.9624,-5.9624,-5.9624,-5.9624,-5.9624,-5.9624,-5.9655,-5.9932,-6.0301,-6.0609,-6.0917,-6.0701,-6.0393,-6.0763,-6.1286,-6.1594,-6.1625,-6.184,-6.2086,-6.1809,-6.1902,-6.2117,-6.184,-6.1871,-6.2179,-6.224,-6.2394,-6.2794,-6.3718,-6.4272,-6.4272,-6.458,-6.4487,-6.4364,-6.4272,-6.4272,-6.4334,-6.4672,-6.4672,-6.4364,-6.4303,-6.4487,-6.4826,-6.4888,-6.4888,-6.4888,-6.4888,-6.4888,-6.4888,-6.4888,-6.4888,-6.498,-6.5103,-6.5288,-6.5442,-6.5934,-6.6334,-6.6138,-6.6606,-6.665,-6.6717,-6.6968,-6.6884,-6.6362,-6.609,-6.6153,-6.6846,-6.6417,-6.6446,-6.66,-6.6446,-6.6073,-6.6073,-6.6073,-6.5794,-6.5416,-6.5007,-6.5007,-6.5007,-6.5668,-6.6192,-6.6339,-6.6826,-6.7004,-6.7039,-6.7353,-6.7232,-6.799,-6.8817,-6.9575,-7.0185,-7.1133,-7.1395,-7.1221,-7.0521,-7.0255,-7.1016,-7.1452,-7.1452,-7.1307,-7.1016,-7.0023,-6.8147,-6.6926,-6.5621,-5.6761,-5.6761,-5.6761,-5.7531,-5.8639,-5.8793,-5.9439,-6.0578,-6.0671,-6.0671,-6.0671,-6.0732,-6.0578,-6.0794,-6.0547,-6.0794,-6.0886,-6.1286,-6.1779,-6.2117,-6.2548,-6.2641,-6.224,-6.2456,-6.2702,-6.2794,-6.2887,-6.2887,-6.2856,-6.2825,-6.2825,-6.2825,-6.2794,-6.2825,-6.2887,-6.2918,-6.3287,-6.3903,-6.4764,-6.5319,-6.5442,-6.5719,-6.5626,-6.5257,-6.4826,-6.4795,-6.4795,-6.4888,-6.4857,-6.4888,-6.4888,-6.4857,-6.4888,-6.4888,-6.4888,-6.4888,-6.4888,-6.4888,-6.4949,-6.5011,-6.5042,-6.5165,-6.5688,-6.5996,-6.6006,-6.6239,-6.626,-6.6027,-6.6752,-6.67,-6.6583,-6.6853,-6.6174,-6.5232,-6.4694,-6.5513,-6.5948,-6.5416,-6.5163,-6.6322,-6.5416,-6.488,-6.4752,-6.4624,-6.421,-6.411,-6.372,-6.3936,-6.4152,-6.4555,-6.5044,-6.5463,-6.6142,-6.7166,-6.7072,-6.7151,-6.6805,-6.6903,-6.7664,-6.8361,-6.8483,-6.9068,-6.9615,-6.9514,-6.8792,-6.8792,-6.9691,-6.9811,-6.9811,-6.9691,-6.942,-6.8188,-6.6828,-6.5807,-6.4768,-5.6761,-5.6761,-5.6761,-5.7531,-5.867,-5.8824,-5.9562,-6.0763,-6.0794,-6.0794,-6.0794,-6.0794,-6.0794,-6.0794,-6.0855,-6.1071,-6.1532,-6.1871,-6.2333,-6.3472,-6.4118,-6.4364,-6.4057,-6.3841,-6.3595,-6.3595,-6.3626,-6.3626,-6.3533,-6.3256,-6.3102,-6.3533,-6.3256,-6.3102,-6.3564,-6.3687,-6.3964,-6.4764,-6.5842,-6.6673,-6.695,-6.6735,-6.6519,-6.618,-6.538,-6.4918,-6.4888,-6.4888,-6.4888,-6.4888,-6.4888,-6.4888,-6.4888,-6.4888,-6.4888,-6.4918,-6.4918,-6.4918,-6.5011,-6.538,-6.5688,-6.5525,-6.5902,-6.6331,-6.6246,-6.5532,-6.5352,-6.5258,-6.5517,-6.5689,-6.5249,-6.5396,-6.4723,-6.3822,-6.4081,-6.4339,-6.3822,-6.3431,-6.3431,-6.3692,-6.3562,-6.33,-6.33,-6.33,-6.3037,-6.2773,-6.2753,-6.2865,-6.3223,-6.3448,-6.4138,-6.4668,-6.5688,-6.6653,-6.6639,-6.6511,-6.6136,-6.5883,-6.6504,-6.6821,-6.6942,-6.7386,-6.798,-6.7756,-6.7014,-6.7476,-6.8214,-6.8214,-6.8214,-6.8089,-6.7855,-6.6711,-6.5648,-6.4846,-6.4142,-5.6761,-5.6792,-5.71,-5.7839,-5.8731,-5.9131,-5.9839,-6.0671,-6.0794,-6.0794,-6.0794,-6.0794,-6.0794,-6.0824,-6.1132,-6.1502,-6.1902,-6.2517,-6.3318,-6.421,-6.4734,-6.4857,-6.4857,-6.458,-6.4334,-6.4334,-6.4334,-6.4334,-6.421,-6.4026,-6.4026,-6.4272,-6.3933,-6.4026,-6.4364,-6.4611,-6.5195,-6.5903,-6.6827,-6.772,-6.815,-6.7412,-6.6457,-6.6057,-6.5288,-6.4888,-6.4888,-6.4888,-6.4888,-6.4888,-6.4888,-6.4888,-6.4888,-6.4888,-6.4888,-6.4918,-6.5257,-6.5349,-6.5534,-6.5822,-6.5994,-6.5243,-6.5615,-6.5263,-6.4991,-6.4392,-6.4212,-6.4202,-6.4179,-6.4024,-6.3141,-6.3692,-6.3169,-6.2214,-6.248,-6.248,-6.1947,-6.184,-6.2109,-6.2375,-6.2242,-6.1975,-6.1706,-6.1844,-6.1302,-6.0947,-6.0618,-6.078,-6.1597,-6.2147,-6.3306,-6.4166,-6.5223,-6.595,-6.5987,-6.5837,-6.5274,-6.5119,-6.5262,-6.5216,-6.5016,-6.5807,-6.6575,-6.6289,-6.6132,-6.5975,-6.6575,-6.6601,-6.673,-6.6548,-6.6206,-6.5498,-6.4765,-6.4088,-6.341,-5.6761,-5.6823,-5.75,-5.8177,-5.8824,-5.9501,-6.0147,-6.0732,-6.0794,-6.0794,-6.0794,-6.0794,-6.0855,-6.1071,-6.1532,-6.184,-6.2456,-6.3349,-6.4303,-6.4734,-6.4826,-6.4888,-6.4888,-6.4826,-6.4795,-6.4888,-6.4826,-6.4826,-6.4826,-6.4888,-6.4672,-6.4857,-6.4857,-6.4734,-6.498,-6.5534,-6.6057,-6.6704,-6.7412,-6.815,-6.8551,-6.7689,-6.6581,-6.5534,-6.5042,-6.4918,-6.4888,-6.4888,-6.4888,-6.4888,-6.4888,-6.4777,-6.4635,-6.4635,-6.4727,-6.4677,-6.5085,-6.5246,-6.5407,-6.6009,-6.591,-6.4516,-6.4592,-6.4268,-6.3434,-6.3049,-6.2886,-6.2737,-6.2424,-6.1919,-6.0893,-6.1706,-6.1706,-6.0756,-6.0483,-6.0483,-6.0345,-6.0208,-6.0756,-6.1436,-6.0947,-6.0453,-6.0504,-6.0666,-5.9801,-5.9236,-5.8953,-5.9045,-6.0158,-6.0974,-6.2373,-6.328,-6.4319,-6.4873,-6.4951,-6.5125,-6.4672,-6.455,-6.4453,-6.4271,-6.4012,-6.503,-6.5949,-6.5687,-6.5529,-6.5529,-6.5529,-6.5845,-6.5818,-6.5292,-6.4979,-6.4691,-6.4114,-6.3306,-6.2862,-5.6761,-5.6823,-5.75,-5.8177,-5.8824,-5.9501,-6.0178,-6.0732,-6.0794,-6.0794,-6.0794,-6.0824,-6.1163,-6.1563,-6.1717,-6.2394,-6.341,-6.4272,-6.4734,-6.4888,-6.4888,-6.4888,-6.4888,-6.4888,-6.4888,-6.4888,-6.4888,-6.4888,-6.4888,-6.4888,-6.4888,-6.4888,-6.4888,-6.4888,-6.5134,-6.5565,-6.6334,-6.7042,-6.7689,-6.8335,-6.8551,-6.7942,-6.6897,-6.5637,-6.5115,-6.4727,-6.4777,-6.4888,-6.4888,-6.4888,-6.4888,-6.427,-6.3448,-6.3189,-6.3344,-6.385,-6.421,-6.4483,-6.4636,-6.5203,-6.5231,-6.4676,-6.393,-6.3479,-6.2783,-6.1808,-6.1246,-6.0866,-6.0208,-5.9707,-6.062,-6.0756,-6.0234,-5.9568,-5.9707,-6.0096,-5.9315,-5.9114,-5.9255,-5.9841,-5.9474,-5.9457,-5.9995,-6.0482,-6.0354,-6.0001,-6.0027,-6.0195,-6.0944,-6.1406,-6.179,-6.2422,-6.3054,-6.3449,-6.3796,-6.4028,-6.3931,-6.4164,-6.4193,-6.4376,-6.4351,-6.4926,-6.5292,-6.5371,-6.5397,-6.5371,-6.5371,-6.5345,-6.5266,-6.5136,-6.477,-6.4299,-6.3698,-6.3123,-6.2992,-5.6761,-5.6854,-5.75,-5.8146,-5.8824,-5.9501,-6.0178,-6.0732,-6.0794,-6.0794,-6.0917,-6.1163,-6.1471,-6.1933,-6.2641,-6.3441,-6.4272,-6.4672,-6.4888,-6.4888,-6.4888,-6.4888,-6.4888,-6.4888,-6.4888,-6.4888,-6.4888,-6.4888,-6.4888,-6.4888,-6.4888,-6.4888,-6.4918,-6.5072,-6.5503,-6.6119,-6.6735,-6.7412,-6.8058,-6.852,-6.8649,-6.7596,-6.6473,-6.581,-6.4828,-6.4266,-6.3932,-6.3902,-6.3532,-6.2929,-6.2814,-6.2553,-6.2057,-6.1579,-6.16,-6.237,-6.3168,-6.3515,-6.3677,-6.4047,-6.4017,-6.2892,-6.2417,-6.1623,-6.0866,-5.9931,-5.9568,-5.9429,-5.9175,-5.8779,-5.9455,-5.9568,-5.9175,-5.8779,-5.9175,-5.9175,-5.8858,-5.8784,-5.8889,-5.8941,-5.9215,-5.983,-6.0498,-6.0787,-6.0823,-6.0901,-6.0953,-6.1346,-6.1868,-6.179,-6.179,-6.2443,-6.3045,-6.3489,-6.3776,-6.3803,-6.3933,-6.3985,-6.4038,-6.4221,-6.4508,-6.5005,-6.5266,-6.5371,-6.5397,-6.5292,-6.524,-6.5162,-6.5057,-6.4848,-6.4168,-6.3567,-6.3306,-6.3018,-6.2862,-5.6854,-5.7008,-5.7531,-5.8239,-5.9008,-5.9562,-6.0178,-6.0701,-6.0794,-6.0794,-6.0886,-6.1471,-6.1871,-6.2333,-6.3349,-6.4364,-6.4888,-6.4888,-6.4888,-6.4888,-6.4888,-6.4888,-6.4888,-6.4635,-6.4524,-6.4888,-6.4412,-6.4635,-6.4777,-6.4524,-6.4412,-6.4382,-6.4412,-6.4861,-6.536,-6.5826,-6.6851,-6.7788,-6.8168,-6.8444,-6.7932,-6.6372,-6.5173,-6.5025,-6.3914,-6.2912,-6.2612,-6.2553,-6.2086,-6.1467,-6.111,-6.0928,-6.0646,-5.9921,-5.9934,-6.085,-6.2054,-6.248,-6.2592,-6.279,-6.2577,-6.1406,-6.0838,-5.982,-5.9175,-5.892,-5.8638,-5.8523,-5.8523,-5.8523,-5.8638,-5.8523,-5.8523,-5.8523,-5.8523,-5.8523,-5.8601,-5.8862,-5.9359,-5.9464,-5.9594,-6.0326,-6.1293,-6.1685,-6.1868,-6.2339,-6.2417,-6.226,-6.2626,-6.2077,-6.2156,-6.2809,-6.3384,-6.3855,-6.4064,-6.3985,-6.4142,-6.4299,-6.4325,-6.4404,-6.4665,-6.5005,-6.5109,-6.5109,-6.5109,-6.5005,-6.4979,-6.4874,-6.4691,-6.4247,-6.341,-6.2992,-6.2966,-6.2809,-6.26,-5.7131,-5.7654,-5.7715,-5.8485,-5.9562,-5.9716,-6.0178,-6.0763,-6.0794,-6.0794,-6.0917,-6.1427,-6.2073,-6.2841,-6.4118,-6.4764,-6.4746,-6.4777,-6.4635,-6.4635,-6.4524,-6.4524,-6.4635,-6.3645,-6.3789,-6.4045,-6.3532,-6.3902,-6.4158,-6.3532,-6.3159,-6.3159,-6.3394,-6.3549,-6.433,-6.5226,-6.6092,-6.7439,-6.7456,-6.7004,-6.6192,-6.4504,-6.3339,-6.2641,-6.1932,-6.1433,-6.1168,-6.111,-6.087,-6.075,-6.048,-6.0157,-5.9697,-5.9801,-5.9258,-5.9371,-5.9993,-6.1148,-6.1323,-6.1326,-6.1246,-6.0345,-5.9707,-5.892,-5.8497,-5.8523,-5.8523,-5.8523,-5.8523,-5.8523,-5.8523,-5.8523,-5.8523,-5.8523,-5.8523,-5.8523,-5.8575,-5.8889,-5.9411,-6.0378,-6.064,-6.1502,-6.2469,-6.2705,-6.2966,-6.3489,-6.3803,-6.3593,-6.3306,-6.2783,-6.2417,-6.3018,-6.3541,-6.4012,-6.4221,-6.4195,-6.4404,-6.4587,-6.4534,-6.456,-6.4822,-6.4953,-6.4613,-6.4613,-6.4639,-6.456,-6.4351,-6.4247,-6.4168,-6.375,-6.3045,-6.2862,-6.2862,-6.2626,-6.2365,-5.6946,-5.7192,-5.7192,-5.7962,-5.9162,-5.9224,-5.9839,-6.064,-6.0794,-6.1009,-6.123,-6.1278,-6.188,-6.2961,-6.434,-6.4382,-6.3902,-6.3789,-6.3789,-6.3532,-6.3304,-6.3189,-6.3304,-6.2553,-6.232,-6.2436,-6.2203,-6.1969,-6.2553,-6.2929,-6.2668,-6.1998,-6.2852,-6.3387,-6.3563,-6.4755,-6.6042,-6.6884,-6.7095,-6.6672,-6.5615,-6.3989,-6.2561,-6.1913,-6.127,-6.0556,-5.9825,-5.9683,-5.9064,-5.8564,-5.806,-5.8109,-5.8064,-5.8265,-5.8212,-5.8387,-5.8897,-5.9605,-5.9681,-5.9707,-5.9707,-5.9429,-5.892,-5.8664,-5.8523,-5.8523,-5.8523,-5.8523,-5.8523,-5.8523,-5.8523,-5.8523,-5.8523,-5.8523,-5.8523,-5.8523,-5.8627,-5.8993,-5.9542,-6.064,-6.1711,-6.2522,-6.3254,-6.3646,-6.3907,-6.4299,-6.443,-6.4168,-6.3907,-6.3567,-6.3254,-6.3175,-6.3646,-6.409,-6.4247,-6.4325,-6.4691,-6.4822,-6.4639,-6.4691,-6.4926,-6.4926,-6.4508,-6.4221,-6.4195,-6.4038,-6.375,-6.3567,-6.3489,-6.3123,-6.2731,-6.26,-6.2469,-6.2365,-6.213,-5.6537,-5.6761,-5.6761,-5.7562,-5.8762,-5.8793,-5.9439,-6.0486,-6.0732,-6.0954,-6.1126,-6.0946,-6.1367,-6.2344,-6.3273,-6.3189,-6.2436,-6.2436,-6.2436,-6.2056,-6.1704,-6.1704,-6.1821,-6.1229,-6.075,-6.099,-6.0779,-6.0658,-6.087,-6.111,-6.1258,-6.0658,-6.1841,-6.2482,-6.2906,-6.3611,-6.4846,-6.5463,-6.5551,-6.5257,-6.4443,-6.2892,-6.1783,-6.102,-6.0301,-5.9478,-5.8309,-5.7988,-5.7248,-5.6601,-5.6236,-5.6556,-5.7171,-5.738,-5.7742,-5.8044,-5.8684,-5.8701,-5.8779,-5.8779,-5.8523,-5.8523,-5.8523,-5.8523,-5.8523,-5.8523,-5.8523,-5.8523,-5.8523,-5.8523,-5.8523,-5.8523,-5.8523,-5.8523,-5.8523,-5.8523,-5.8601,-5.9019,-5.9699,-6.0823,-6.1947,-6.3149,-6.3855,-6.4456,-6.4848,-6.5162,-6.5057,-6.4743,-6.443,-6.4116,-6.3829,-6.3567,-6.3672,-6.409,-6.4351,-6.4534,-6.49,-6.5057,-6.4848,-6.4587,-6.4665,-6.4587,-6.4247,-6.4038,-6.3724,-6.3332,-6.294,-6.2862,-6.2783,-6.2548,-6.2339,-6.2156,-6.2025,-6.1973,-6.1973,-5.5819,-5.6761,-5.6761,-5.7531,-5.8762,-5.8793,-5.9193,-5.9891,-6.0444,-6.0426,-6.0075,-6.0147,-6.0617,-6.1083,-6.1467,-6.1467,-6.111,-6.111,-6.111,-6.111,-6.099,-6.087,-6.0629,-6.0173,-5.9711,-6.0266,-5.9806,-5.9217,-5.9245,-5.9465,-5.9465,-5.9454,-6.0631,-6.0765,-6.1388,-6.2352,-6.3122,-6.3578,-6.3663,-6.322,-6.2304,-6.1038,-5.9906,-5.8816,-5.8042,-5.7405,-5.6866,-5.6655,-5.6367,-5.6,-5.5736,-5.6132,-5.695,-5.6967,-5.7407,-5.8245,-5.8392,-5.8523,-5.8523,-5.8523,-5.8523,-5.8523,-5.8523,-5.8523,-5.8523,-5.8523,-5.8523,-5.8523,-5.8523,-5.8523,-5.8523,-5.8523,-5.8523,-5.8523,-5.8549,-5.8627,-5.8758,-5.9072,-5.983,-6.098,-6.213,-6.3254,-6.4221,-6.4743,-6.5031,-6.5292,-6.5318,-6.5005,-6.4796,-6.4508,-6.4195,-6.3933,-6.3829,-6.4064,-6.443,-6.4717,-6.5005,-6.5109,-6.5005,-6.4508,-6.4142,-6.3985,-6.3803,-6.3306,-6.2914,-6.2522,-6.2313,-6.2417,-6.2417,-6.2156,-6.1973,-6.1973,-6.1973,-6.1973,-6.1973,-5.5391,-5.572,-5.572,-5.6663,-5.8177,-5.7841,-5.8079,-5.8715,-5.938,-5.9296,-5.8896,-6.0027,-6.0307,-6.0116,-6.0629,-6.0537,-5.9929,-5.9806,-5.9806,-5.9436,-5.9217,-5.9217,-5.8968,-5.8746,-5.8143,-5.862,-5.8143,-5.7916,-5.7916,-5.8071,-5.8219,-5.875,-5.979,-6.0301,-6.0782,-6.1518,-6.2229,-6.2264,-6.232,-6.2068,-6.1176,-6.0267,-5.9153,-5.8053,-5.7812,-5.7358,-5.6744,-5.6054,-5.5789,-5.5498,-5.5391,-5.6074,-5.6888,-5.6798,-5.7425,-5.834,-5.8497,-5.8523,-5.8523,-5.8523,-5.8523,-5.8523,-5.8523,-5.8523,-5.8523,-5.8523,-5.8523,-5.8523,-5.8523,-5.8523,-5.8523,-5.8523,-5.8523,-5.8523,-5.8575,-5.8679,-5.8967,-5.9281,-6.0091,-6.1319,-6.226,-6.3254,-6.4168,-6.4979,-6.5188,-6.5371,-6.5371,-6.5318,-6.5083,-6.4926,-6.4613,-6.4456,-6.4378,-6.4195,-6.4534,-6.4848,-6.5109,-6.5057,-6.5031,-6.4482,-6.3829,-6.3358,-6.3097,-6.2574,-6.2313,-6.2182,-6.2156,-6.2208,-6.2156,-6.2025,-6.1973,-6.1973,-6.1973,-6.1973,-6.1973,-5.445,-5.4988,-5.4554,-5.5202,-5.6375,-5.6258,-5.6568,-5.725,-5.808,-5.8405,-5.8193,-5.9399,-5.9465,-5.8996,-5.9341,-5.9465,-5.862,-5.8494,-5.8522,-5.827,-5.7916,-5.7788,-5.7916,-5.7788,-5.7431,-5.7174,-5.7174,-5.7303,-5.7303,-5.7363,-5.7798,-5.8603,-5.9676,-5.996,-6.0344,-6.1189,-6.1868,-6.1464,-6.1409,-6.1164,-6.043,-5.9854,-5.9222,-5.8183,-5.7834,-5.7406,-5.6742,-5.6106,-5.5523,-5.5468,-5.5491,-5.5909,-5.651,-5.7059,-5.7582,-5.8157,-5.8523,-5.8523,-5.8523,-5.8523,-5.8523,-5.8523,-5.8523,-5.8523,-5.8523,-5.8523,-5.8523,-5.8523,-5.8523,-5.8523,-5.8523,-5.8523,-5.8523,-5.8523,-5.8523,-5.8653,-5.9176,-5.9594,-6.0588,-6.1659,-6.2574,-6.3515,-6.4195,-6.5005,-6.524,-6.5397,-6.5371,-6.5371,-6.5292,-6.5188,-6.5109,-6.5005,-6.5005,-6.4822,-6.4665,-6.4743,-6.4743,-6.4404,-6.4325,-6.4142,-6.362,-6.3097,-6.2652,-6.2339,-6.213,-6.1999,-6.2025,-6.2077,-6.2051,-6.1973,-6.1973,-6.1973,-6.1973,-6.1973,-6.1973,-5.3069,-5.4845,-5.3303,-5.3001,-5.3693,-5.4216,-5.4807,-5.5678,-5.6814,-5.7508,-5.7824,-5.774,-5.7532,-5.7431,-5.7889,-5.7788,-5.7661,-5.7431,-5.7431,-5.7431,-5.7431,-5.7303,-5.7303,-5.7174,-5.7174,-5.7174,-5.7174,-5.7044,-5.7201,-5.7532,-5.7968,-5.8483,-5.9157,-5.9724,-5.9968,-6.0183,-6.0039,-5.9787,-5.9761,-5.9707,-5.9681,-5.9455,-5.9083,-5.8546,-5.7853,-5.7451,-5.7051,-5.6048,-5.5625,-5.5674,-5.5752,-5.6118,-5.6693,-5.7268,-5.7843,-5.8418,-5.8497,-5.8523,-5.8523,-5.8523,-5.8523,-5.8523,-5.8523,-5.8523,-5.8523,-5.8523,-5.8523,-5.8523,-5.8523,-5.8523,-5.8523,-5.8523,-5.8523,-5.8549,-5.8549,-5.8889,-5.9437,-6.0013,-6.098,-6.1842,-6.2888,-6.3881,-6.4456,-6.4979,-6.524,-6.5397,-6.5397,-6.5397,-6.5371,-6.5345,-6.5266,-6.5057,-6.5031,-6.4874,-6.4613,-6.4508,-6.4351,-6.3959,-6.3698,-6.3541,-6.3306,-6.2835,-6.2443,-6.213,-6.2025,-6.1973,-6.1973,-6.1973,-6.1973,-6.1973,-6.1973,-6.1973,-6.1973,-6.1973,-6.1973,-5.2108,-5.2779,-5.2254,-5.168,-5.1376,-5.2597,-5.3749,-5.4771,-5.6017,-5.6679,-5.691,-5.7058,-5.7174,-5.7174,-5.7174,-5.7174,-5.7174,-5.7174,-5.7174,-5.7174,-5.7174,-5.7174,-5.7174,-5.7044,-5.7174,-5.7044,-5.7044,-5.6812,-5.6812,-5.7327,-5.7732,-5.8079,-5.896,-5.944,-5.9659,-5.9734,-5.9648,-5.9368,-5.9228,-5.9228,-5.8947,-5.892,-5.8841,-5.8552,-5.7913,-5.7624,-5.7545,-5.6223,-5.5778,-5.5935,-5.5987,-5.6249,-5.6798,-5.7373,-5.7921,-5.8392,-5.8523,-5.8523,-5.8523,-5.8523,-5.8523,-5.8523,-5.8523,-5.8523,-5.8523,-5.8523,-5.8523,-5.8523,-5.8523,-5.8523,-5.8523,-5.8523,-5.8549,-5.8627,-5.8784,-5.9359,-5.9908,-6.0509,-6.1267,-6.1999,-6.294,-6.3959,-6.4717,-6.4743,-6.4979,-6.5214,-6.5214,-6.5345,-6.5371,-6.5318,-6.524,-6.4874,-6.4717,-6.4665,-6.4534,-6.4168,-6.4038,-6.3829,-6.341,-6.3071,-6.2783,-6.2522,-6.2313,-6.2025,-6.1999,-6.1973,-6.1973,-6.1973,-6.1973,-6.1973,-6.1973,-6.1973,-6.1973,-6.1973,-6.1973,-5.1375,-5.1674,-5.1265,-5.074,-5.0344,-5.1401,-5.2903,-5.4422,-5.5347,-5.5871,-5.6305,-5.6712,-5.6875,-5.6902,-5.7092,-5.7044,-5.7044,-5.7044,-5.6915,-5.6915,-5.6785,-5.6785,-5.6785,-5.6785,-5.6785,-5.6785,-5.6682,-5.6605,-5.69,-5.7171,-5.7783,-5.8472,-5.8971,-5.9069,-5.9202,-5.9228,-5.9228,-5.8947,-5.8806,-5.8806,-5.8664,-5.8523,-5.8523,-5.8314,-5.8026,-5.7739,-5.7503,-5.6876,-5.6013,-5.6144,-5.6275,-5.6405,-5.6902,-5.7529,-5.8052,-5.8418,-5.8523,-5.8523,-5.8523,-5.8523,-5.8523,-5.8523,-5.8523,-5.8523,-5.8523,-5.8523,-5.8523,-5.8523,-5.8523,-5.8523,-5.8523,-5.8523,-5.8653,-5.8758,-5.915,-5.9699,-6.0378,-6.098,-6.145,-6.2208,-6.2757,-6.3829,-6.4613,-6.4639,-6.4613,-6.4848,-6.5057,-6.5188,-6.5318,-6.5318,-6.5162,-6.4717,-6.4378,-6.4273,-6.4012,-6.3567,-6.3515,-6.362,-6.3201,-6.2652,-6.2469,-6.2208,-6.2077,-6.1973,-6.1973,-6.1973,-6.1973,-6.1973,-6.1973,-6.1973,-6.1973,-6.1973,-6.1973,-6.1973,-6.1973,-5.0628,-5.1375,-5.0432,-5.001,-5.0118,-5.083,-5.238,-5.4447,-5.4514,-5.522,-5.617,-5.6224,-5.6286,-5.6468,-5.6929,-5.6915,-5.6655,-5.6682,-5.6524,-5.6263,-5.6263,-5.6263,-5.6263,-5.6263,-5.6263,-5.6263,-5.6238,-5.6531,-5.6984,-5.7488,-5.8091,-5.8692,-5.8674,-5.8806,-5.8806,-5.8806,-5.8806,-5.8664,-5.8664,-5.8523,-5.8523,-5.8523,-5.8523,-5.8366,-5.8131,-5.8078,-5.7791,-5.7111,-5.6641,-5.6641,-5.685,-5.685,-5.719,-5.7921,-5.8314,-5.8523,-5.8523,-5.8523,-5.8523,-5.8523,-5.8523,-5.8523,-5.8523,-5.8523,-5.8523,-5.8523,-5.8523,-5.8523,-5.8523,-5.8523,-5.8523,-5.8679,-5.8836,-5.9124,-5.9464,-6.0091,-6.0823,-6.1346,-6.1764,-6.226,-6.2626,-6.3332,-6.3855,-6.4012,-6.4168,-6.443,-6.4639,-6.4926,-6.5083,-6.5345,-6.5083,-6.4456,-6.4142,-6.3881,-6.3515,-6.3045,-6.2992,-6.3123,-6.2652,-6.2182,-6.2051,-6.2025,-6.1999,-6.1973,-6.1973,-6.1973,-6.1973,-6.1973,-6.1973,-6.1973,-6.1973,-6.1973,-6.1973,-6.1973,-6.1973,-5.0208,-5.0432,-5.0123,-5.001,-5.0173,-5.1122,-5.2235,-5.3293,-5.4487,-5.5193,-5.503,-5.5699,-5.5842,-5.5976,-5.6256,-5.634,-5.6263,-5.6263,-5.6263,-5.6132,-5.6,-5.6132,-5.6132,-5.5973,-5.6132,-5.616,-5.624,-5.6424,-5.6821,-5.7425,-5.7992,-5.8533,-5.8497,-5.8523,-5.8523,-5.8664,-5.8523,-5.8523,-5.8523,-5.8523,-5.8523,-5.8523,-5.8523,-5.8418,-5.834,-5.8366,-5.8104,-5.7608,-5.7268,-5.7346,-5.7399,-5.7399,-5.7503,-5.8104,-5.8523,-5.8523,-5.8523,-5.8523,-5.8523,-5.8523,-5.8523,-5.8523,-5.8523,-5.8523,-5.8523,-5.8523,-5.8523,-5.8523,-5.8523,-5.8523,-5.8706,-5.8889,-5.9176,-5.9568,-5.996,-6.0588,-6.1241,-6.1555,-6.1947,-6.2104,-6.2496,-6.2835,-6.3306,-6.3489,-6.3672,-6.3933,-6.4195,-6.4482,-6.4796,-6.5057,-6.49,-6.4273,-6.3803,-6.3515,-6.3045,-6.2574,-6.26,-6.2548,-6.2182,-6.1973,-6.1999,-6.1999,-6.1973,-6.1973,-6.1973,-6.1973,-6.1973,-6.1973,-6.1973,-6.1973,-6.1973,-6.1973,-6.1973,-6.1973,-6.1973,-4.9918,-4.9993,-4.9778,-4.9939,-5.0505,-5.1395,-5.2149,-5.285,-5.3997,-5.4321,-5.4251,-5.4888,-5.5317,-5.5296,-5.5835,-5.6132,-5.5868,-5.5868,-5.5868,-5.5604,-5.5736,-5.5604,-5.5736,-5.5763,-5.5789,-5.6,-5.6317,-5.6577,-5.6941,-5.7538,-5.8261,-5.847,-5.8523,-5.8523,-5.8523,-5.8523,-5.8523,-5.8523,-5.8523,-5.8523,-5.8523,-5.8523,-5.8523,-5.8523,-5.8523,-5.8523,-5.8444,-5.7948,-5.7817,-5.7869,-5.7869,-5.7791,-5.7895,-5.8366,-5.8523,-5.8523,-5.8523,-5.8523,-5.8523,-5.8523,-5.8523,-5.8523,-5.8523,-5.8523,-5.8523,-5.8523,-5.8523,-5.8523,-5.8523,-5.8601,-5.8862,-5.9176,-5.962,-6.0065,-6.0588,-6.1136,-6.1476,-6.1764,-6.1921,-6.1999,-6.226,-6.2396,-6.2657,-6.2966,-6.3123,-6.3332,-6.3541,-6.3776,-6.4195,-6.4639,-6.4456,-6.3959,-6.3515,-6.3097,-6.2626,-6.226,-6.2287,-6.2287,-6.213,-6.1973,-6.1973,-6.1973,-6.1973,-6.1973,-6.1973,-6.1973,-6.1973,-6.1973,-6.1973,-6.1973,-6.1973,-6.1973,-6.1973,-6.1973,-6.1973,-4.9676,-4.9924,-4.9418,-4.9818,-5.0857,-5.1443,-5.2029,-5.2562,-5.2941,-5.3182,-5.3467,-5.4054,-5.432,-5.4506,-5.5256,-5.5498,-5.5472,-5.5525,-5.5472,-5.5099,-5.5206,-5.5232,-5.5232,-5.5177,-5.5599,-5.5913,-5.6249,-5.6961,-5.7608,-5.8131,-5.8392,-5.8523,-5.8523,-5.8523,-5.8523,-5.8523,-5.8523,-5.8523,-5.8523,-5.8523,-5.8523,-5.8523,-5.8523,-5.8523,-5.8523,-5.8497,-5.8392,-5.8183,-5.7974,-5.8183,-5.8209,-5.8078,-5.8287,-5.847,-5.8523,-5.8523,-5.8523,-5.8523,-5.8523,-5.8523,-5.8523,-5.8523,-5.8523,-5.8523,-5.8523,-5.8523,-5.8523,-5.8523,-5.8523,-5.8641,-5.8928,-5.949,-5.9934,-6.0483,-6.091,-6.1476,-6.1738,-6.1744,-6.162,-6.1698,-6.175,-6.201,-6.201,-6.2318,-6.2422,-6.2579,-6.2686,-6.2946,-6.3361,-6.3882,-6.3907,-6.3567,-6.328,-6.2835,-6.2365,-6.2077,-6.2051,-6.1999,-6.1973,-6.1973,-6.1973,-6.1973,-6.1973,-6.1973,-6.1973,-6.1973,-6.1973,-6.1973,-6.1973,-6.1973,-6.1973,-6.1973,-6.1973,-6.1973,-6.1973,-4.9587,-4.9978,-4.9844,-5.0217,-5.0883,-5.1469,-5.1838,-5.2218,-5.2245,-5.2571,-5.2784,-5.3164,-5.3356,-5.3567,-5.4366,-5.4761,-5.4656,-5.5075,-5.5206,-5.5099,-5.5099,-5.5151,-5.5203,-5.5491,-5.5778,-5.617,-5.6745,-5.7529,-5.8104,-5.8418,-5.8523,-5.8523,-5.8523,-5.8523,-5.8523,-5.8523,-5.8523,-5.8523,-5.8523,-5.8523,-5.8523,-5.8523,-5.8523,-5.8523,-5.8523,-5.8523,-5.8444,-5.8444,-5.8653,-5.8941,-5.8575,-5.8444,-5.8497,-5.8523,-5.8523,-5.8523,-5.8523,-5.8523,-5.8523,-5.8523,-5.8523,-5.8523,-5.8523,-5.8523,-5.8523,-5.8523,-5.8523,-5.8523,-5.8511,-5.8681,-5.9071,-5.9658,-6.0154,-6.078,-6.1178,-6.1562,-6.1947,-6.1646,-6.1344,-6.1344,-6.137,-6.1344,-6.1495,-6.1521,-6.1573,-6.168,-6.189,-6.1968,-6.2276,-6.2741,-6.3074,-6.2839,-6.3018,-6.2652,-6.2182,-6.1973,-6.1973,-6.1973,-6.1973,-6.1973,-6.1973,-6.1973,-6.1973,-6.1973,-6.1973,-6.1973,-6.1973,-6.1973,-6.1973,-6.1973,-6.1973,-6.1973,-6.1973,-6.1973,-6.1973,-4.9239,-4.9652,-4.9917,-5.0208,-5.0604,-5.125,-5.168,-5.1819,-5.1872,-5.197,-5.22,-5.2549,-5.2739,-5.2922,-5.3817,-5.4184,-5.4288,-5.4837,-5.5046,-5.5099,-5.5151,-5.5308,-5.5517,-5.583,-5.6327,-5.6771,-5.7529,-5.8209,-5.847,-5.8523,-5.8523,-5.8523,-5.8523,-5.8523,-5.8523,-5.8523,-5.8523,-5.8523,-5.8523,-5.8523,-5.8523,-5.8523,-5.8523,-5.8523,-5.8523,-5.8523,-5.8627,-5.8706,-5.9045,-5.9255,-5.8993,-5.8706,-5.8627,-5.8523,-5.8523,-5.8523,-5.8523,-5.8523,-5.8523,-5.8523,-5.8523,-5.8523,-5.8523,-5.8523,-5.8212,-5.8212,-5.8212,-5.8265,-5.8655,-5.8823,-5.9075,-5.9566,-6.0108,-6.0702,-6.0934,-6.1115,-6.1193,-6.0889,-6.0889,-6.0889,-6.0889,-6.0737,-6.0889,-6.1041,-6.1092,-6.1092,-6.1147,-6.1223,-6.153,-6.1761,-6.1913,-6.2192,-6.2244,-6.2469,-6.2104,-6.1973,-6.1973,-6.1973,-6.1973,-6.1973,-6.1973,-6.1973,-6.1973,-6.1973,-6.1973,-6.1973,-6.1973,-6.1973,-6.1973,-6.1973,-6.1973,-6.1973,-6.1973,-6.1973,-6.1973,-4.8799,-4.9139,-4.9662,-4.9949,-5.0159,-5.1126,-5.1596,-5.1596,-5.1596,-5.1596,-5.1648,-5.2119,-5.2354,-5.2772,-5.3426,-5.3844,-5.4236,-5.4602,-5.4837,-5.5125,-5.5229,-5.5465,-5.5804,-5.617,-5.6876,-5.7503,-5.8157,-5.8366,-5.8523,-5.8523,-5.8523,-5.8523,-5.8523,-5.8523,-5.8523,-5.8523,-5.8523,-5.8523,-5.8523,-5.8523,-5.8523,-5.8523,-5.8523,-5.8523,-5.8523,-5.8523,-5.8679,-5.8967,-5.9307,-5.9333,-5.9281,-5.8941,-5.8679,-5.8523,-5.8523,-5.8523,-5.8523,-5.8523,-5.8523,-5.8381,-5.8381,-5.8381,-5.8381,-5.8239,-5.7927,-5.7784,-5.7784,-5.8068,-5.8456,-5.8723,-5.9116,-5.9532,-6.0096,-6.0532,-6.066,-6.0737,-6.0584,-6.0431,-6.0431,-6.0584,-6.0431,-6.0278,-6.0431,-6.0584,-6.0584,-6.0584,-6.0584,-6.0584,-6.0635,-6.0916,-6.1146,-6.1425,-6.1603,-6.1625,-6.1973,-6.1973,-6.1973,-6.1973,-6.1973,-6.1973,-6.1973,-6.1973,-6.1973,-6.1973,-6.1973,-6.1973,-6.1973,-6.1973,-6.1973,-6.1973,-6.1973,-6.1973,-6.1973,-6.1973,-6.1973,-4.8655,-4.9139,-4.9662,-5.0159,-5.0681,-5.1309,-5.1596,-5.1596,-5.1596,-5.1596,-5.1648,-5.1648,-5.1753,-5.1805,-5.2459,-5.3034,-5.3635,-5.4158,-5.4733,-5.5046,-5.5465,-5.5726,-5.6196,-5.6902,-5.766,-5.8131,-5.8418,-5.847,-5.8523,-5.8523,-5.8523,-5.8523,-5.8523,-5.8523,-5.8523,-5.8523,-5.8523,-5.8523,-5.8523,-5.8523,-5.8523,-5.8523,-5.8523,-5.8523,-5.8523,-5.8523,-5.8679,-5.9098,-5.9281,-5.9359,-5.9281,-5.8967,-5.8732,-5.8523,-5.8523,-5.8523,-5.8523,-5.8381,-5.8355,-5.8212,-5.807,-5.8096,-5.7953,-5.7667,-5.7523,-5.7523,-5.7533,-5.7652,-5.8009,-5.8437,-5.8799,-5.951,-6.0047,-6.0202,-6.0406,-6.0278,-6.0278,-6.0125,-6.0125,-6.0125,-6.0125,-6.0125,-6.0125,-6.0278,-6.0278,-6.0125,-5.9971,-5.9971,-6.0278,-6.0431,-6.0558,-6.0737,-6.1041,-6.1495,-6.1796,-6.1823,-6.1823,-6.1973,-6.1973,-6.1973,-6.1973,-6.1973,-6.1973,-6.1973,-6.1973,-6.1973,-6.1973,-6.1973,-6.1973,-6.1973,-6.1973,-6.1973,-6.1973,-6.1973,-6.1973]}]]